[[{"header":{"parameterUnit":"m.s-1","parameterCategory":1,"la1":30.6,"la2":28.766,"lo1":-90.7593,"lo2":-88.6598,"dy":0.0162,"dx":0.0183,"nx":116,"ny":114,"refTime":"2023-04-15T06:00:00:Z","depth":0,"parameterNumber":2,"parameterNumberName":"U-component_of_WINDS"},"data":[0.0,0.0,0.0,0.0,0.0,0.0,0.0,0.0,0.0,0.0,0.0,0.0,0.0,0.0,0.0,0.0,0.0,0.0,0.0,0.0,0.0,0.0,0.0,0.0,0.0,0.0,0.0,0.0,0.0,0.0,0.0,0.0,0.0,0.0,0.0,0.0,0.0,0.0,0.0,0.0,0.0,0.0,0.0,0.0,0.0,0.0,0.0,0.0,0.0,0.0,0.0,0.0,0.0,0.0,0.0,0.0,0.0,0.0,0.0,0.0,0.0,0.0,0.0,0.0,0.0,0.0,0.0,0.0,0.0,0.0,0.0,0.0,0.0,0.0,0.0,0.0,0.0,0.0,0.0,0.0,0.0,0.0,0.0,0.0,0.0,0.0,0.0,0.0,0.0,0.0,0.0,0.0,0.0,0.0,0.0,0.0,0.0,0.0,0.0,0.0,0.0,0.0,0.0,0.0,0.0,0.0,0.0,0.0,0.0,0.0,0.0,0.0,0.0,0.0,0.0,0.0,0.0,0.0,0.0,0.0,0.0,0.0,0.0,0.0,0.0,0.0,0.0,0.0,0.0,0.0,0.0,0.0,0.0,0.0,0.0,0.0,0.0,0.0,0.0,0.0,0.0,0.0,0.0,0.0,0.0,0.0,0.0,0.0,0.0,0.0,0.0,0.0,0.0,0.0,0.0,0.0,0.0,0.0,0.0,0.0,0.0,0.0,0.0,0.0,0.0,0.0,0.0,0.0,0.0,0.0,0.0,0.0,0.0,0.0,0.0,0.0,0.0,0.0,0.0,0.0,0.0,0.0,0.0,0.0,0.0,0.0,0.0,0.0,0.0,0.0,0.0,0.0,0.0,0.0,0.0,0.0,0.0,0.0,0.0,0.0,0.0,0.0,0.0,0.0,0.0,0.0,0.0,0.0,0.0,0.0,0.0,0.0,0.0,0.0,0.0,0.0,0.0,0.0,0.0,0.0,0.0,0.0,0.0,0.0,0.0,0.0,0.0,0.0,0.0,0.0,0.0,0.0,0.0,0.0,0.0,0.0,0.0,0.0,0.0,0.0,0.0,0.0,0.0,0.0,0.0,0.0,0.0,0.0,0.0,0.0,0.0,0.0,0.0,0.0,0.0,0.0,0.0,0.0,0.0,0.0,0.0,0.0,0.0,0.0,0.0,0.0,0.0,0.0,0.0,0.0,0.0,0.0,0.0,0.0,0.0,0.0,0.0,0.0,0.0,0.0,0.0,0.0,0.0,0.0,0.0,0.0,0.0,0.0,0.0,0.0,0.0,0.0,0.0,0.0,0.0,0.0,0.0,0.0,0.0,0.0,0.0,0.0,0.0,0.0,0.0,0.0,0.0,0.0,0.0,0.0,0.0,0.0,0.0,0.0,0.0,0.0,0.0,0.0,0.0,0.0,0.0,0.0,0.0,0.0,0.0,0.0,0.0,0.0,0.0,0.0,0.0,0.0,0.0,0.0,0.0,0.0,0.0,0.0,0.0,0.0,0.0,0.0,0.0,0.0,0.0,0.0,0.0,0.0,0.0,0.0,0.0,0.0,0.0,0.0,0.0,0.0,0.0,0.0,0.0,0.0,0.0,0.0,0.0,0.0,0.0,0.0,0.0,0.0,0.0,0.0,0.0,0.0,0.0,0.0,0.0,0.0,0.0,0.0,0.0,0.0,0.0,0.0,0.0,0.0,0.0,0.0,0.0,0.0,0.0,0.0,0.0,0.0,0.0,0.0,0.0,0.0,0.0,0.0,0.0,0.0,0.0,0.0,0.0,0.0,0.0,0.0,0.0,0.0,0.0,0.0,0.0,0.0,0.0,0.0,0.0,0.0,0.0,0.0,0.0,0.0,0.0,0.0,0.0,0.0,0.0,0.0,0.0,0.0,0.0,0.0,0.0,0.0,0.0,0.0,0.0,0.0,0.0,0.0,0.0,0.0,0.0,0.0,0.0,0.0,0.0,0.0,0.0,0.0,0.0,0.0,0.0,0.0,0.0,0.0,0.0,0.0,0.0,0.0,0.0,0.0,0.0,0.0,0.0,0.0,0.0,0.0,0.0,0.0,0.0,0.0,0.0,0.0,0.0,0.0,0.0,0.0,0.0,0.0,0.0,0.0,0.0,0.0,0.0,0.0,0.0,0.0,0.0,0.0,0.0,0.0,0.0,0.0,0.0,0.0,0.0,0.0,0.0,0.0,0.0,0.0,0.0,0.0,0.0,0.0,0.0,0.0,0.0,0.0,0.0,0.0,0.0,0.0,0.0,0.0,0.0,0.0,0.0,0.0,0.0,0.0,0.0,0.0,0.0,0.0,0.0,0.0,0.0,0.0,0.0,0.0,0.0,0.0,0.0,0.0,0.0,0.0,0.0,0.0,0.0,0.0,0.0,0.0,0.0,0.0,0.0,0.0,0.0,0.0,0.0,0.0,0.0,0.0,0.0,0.0,0.0,0.0,0.0,0.0,0.0,0.0,0.0,0.0,0.0,0.0,0.0,0.0,0.0,0.0,0.0,0.0,0.0,0.0,0.0,0.0,0.0,0.0,0.0,0.0,0.0,0.0,0.0,0.0,0.0,0.0,0.0,0.0,0.0,0.0,0.0,0.0,0.0,0.0,0.0,0.0,0.0,0.0,0.0,0.0,0.0,0.0,0.0,0.0,0.0,0.0,0.0,0.0,0.0,0.0,0.0,0.0,0.0,0.0,0.0,0.0,0.0,0.0,0.0,0.0,0.0,0.0,0.0,0.0,0.0,0.0,0.0,0.0,0.0,0.0,0.0,0.0,0.0,0.0,0.0,0.0,0.0,0.0,0.0,0.0,0.0,0.0,0.0,0.0,0.0,0.0,0.0,0.0,0.0,0.0,0.0,0.0,0.0,0.0,0.0,0.0,0.0,0.0,0.0,0.0,0.0,0.0,0.0,0.0,0.0,0.0,0.0,0.0,0.0,0.0,0.0,0.0,0.0,0.0,0.0,0.0,0.0,0.0,0.0,0.0,0.0,0.0,0.0,0.0,0.0,0.0,0.0,0.0,0.0,0.0,0.0,0.0,0.0,0.0,0.0,0.0,0.0,0.0,0.0,0.0,0.0,0.0,0.0,0.0,0.0,0.0,0.0,0.0,0.0,0.0,0.0,0.0,0.0,0.0,0.0,0.0,0.0,0.0,0.0,0.0,0.0,0.0,0.0,0.0,0.0,0.0,0.0,0.0,0.0,0.0,0.0,0.0,0.0,0.0,0.0,0.0,0.0,0.0,0.0,0.0,0.0,0.0,0.0,0.0,0.0,0.0,0.0,0.0,0.0,0.0,0.0,0.0,0.0,0.0,0.0,0.0,0.0,0.0,0.0,0.0,0.0,0.0,0.0,0.0,0.0,0.0,0.0,0.0,0.0,0.0,0.0,0.0,0.0,0.0,0.0,0.0,0.0,0.0,0.0,0.0,0.0,0.0,0.0,0.0,0.0,0.0,0.0,0.0,0.0,0.0,0.0,0.0,0.0,0.0,0.0,0.0,0.0,0.0,0.0,0.0,0.0,0.0,0.0,0.0,0.0,0.0,0.0,0.0,0.0,0.0,0.0,0.0,0.0,0.0,0.0,0.0,0.0,0.0,0.0,0.0,0.0,0.0,0.0,0.0,0.0,0.0,0.0,0.0,0.0,0.0,0.0,0.0,0.0,0.0,0.0,0.0,0.0,0.0,0.0,0.0,0.0,0.0,0.0,0.0,0.0,0.0,0.0,0.0,0.0,0.0,0.0,0.0,0.0,0.0,0.0,0.0,0.0,0.0,0.0,0.0,0.0,0.0,0.0,0.0,0.0,0.0,0.0,0.0,0.0,0.0,0.0,0.0,0.0,0.0,0.0,0.0,0.0,0.0,0.0,0.0,0.0,0.0,0.0,0.0,0.0,0.0,0.0,0.0,0.0,0.0,0.0,0.0,0.0,0.0,0.0,0.0,0.0,0.0,0.0,0.0,0.0,0.0,0.0,0.0,0.0,0.0,0.0,0.0,0.0,0.0,0.0,0.0,0.0,0.0,0.0,0.0,0.0,0.0,0.0,0.0,0.0,0.0,0.0,0.0,0.0,0.0,0.0,0.0,0.0,0.0,0.0,0.0,0.0,0.0,0.0,0.0,0.0,0.0,0.0,0.0,0.0,0.0,0.0,0.0,0.0,0.0,0.0,0.0,0.0,0.0,0.0,0.0,0.0,0.0,0.0,0.0,0.0,0.0,0.0,0.0,0.0,0.0,0.0,0.0,0.0,0.0,0.0,0.0,0.0,0.0,0.0,0.0,0.0,0.0,0.0,0.0,0.0,0.0,0.0,0.0,0.0,0.0,0.0,0.0,0.0,0.0,0.0,0.0,0.0,0.0,0.0,0.0,0.0,0.0,0.0,0.0,0.0,0.0,0.0,0.0,0.0,0.0,0.0,0.0,0.0,0.0,0.0,0.0,0.0,0.0,0.0,0.0,0.0,0.0,0.0,0.0,0.0,0.0,0.0,0.0,0.0,0.0,0.0,0.0,0.0,0.0,0.0,0.0,0.0,0.0,0.0,0.0,0.0,0.0,0.0,0.0,0.0,0.0,0.0,0.0,0.0,0.0,0.0,0.0,0.0,0.0,0.0,0.0,0.0,0.0,0.0,0.0,0.0,0.0,0.0,0.0,0.0,0.0,0.0,0.0,0.0,0.0,0.0,0.0,0.0,0.0,0.0,0.0,0.0,0.0,0.0,0.0,0.0,0.0,0.0,0.0,0.0,0.0,0.0,0.0,0.0,0.0,0.0,0.0,0.0,0.0,0.0,0.0,0.0,0.0,0.0,0.0,0.0,0.0,0.0,0.0,0.0,0.0,0.0,0.0,0.0,0.0,0.0,0.0,0.0,0.0,0.0,0.0,0.0,0.0,0.0,0.0,0.0,0.0,0.0,0.0,0.0,0.0,0.0,0.0,0.0,0.0,0.0,0.0,0.0,0.0,0.0,0.0,0.0,0.0,0.0,0.0,0.0,0.0,0.0,0.0,0.0,0.0,0.0,0.0,0.0,0.0,0.0,0.0,0.0,0.0,0.0,0.0,0.0,0.0,0.0,0.0,0.0,0.0,0.0,0.0,0.0,0.0,0.0,0.0,0.0,0.0,0.0,0.0,0.0,0.0,0.0,0.0,0.0,0.0,0.0,0.0,0.0,0.0,0.0,0.0,0.0,0.0,0.0,0.0,0.0,0.0,0.0,0.0,0.0,0.0,0.0,0.0,0.0,0.0,0.0,0.0,0.0,0.0,0.0,0.0,0.0,0.0,0.0,0.0,0.0,0.0,0.0,0.0,0.0,0.0,0.0,0.0,0.0,0.0,0.0,0.0,0.0,0.0,0.0,0.0,0.0,0.0,0.0,0.0,0.0,0.0,0.0,0.0,0.0,0.0,0.0,0.0,0.0,0.0,0.0,0.0,0.0,0.0,0.0,0.0,0.0,0.0,0.0,0.0,0.0,0.0,0.0,0.0,0.0,0.0,0.0,0.0,0.0,0.0,0.0,0.0,0.0,0.0,0.0,0.0,0.0,0.0,0.0,0.0,0.0,0.0,0.0,0.0,0.0,0.0,0.0,0.0,0.0,0.0,0.0,0.0,0.0,0.0,0.0,0.0,0.0,0.0,0.0,0.0,0.0,0.0,0.0,0.0,0.0,0.0,0.0,0.0,0.0,0.0,0.0,0.0,0.0,0.0,0.0,0.0,0.0,0.0,0.0,0.0,0.0,0.0,0.0,0.0,0.0,0.0,0.0,0.0,0.0,0.0,0.0,0.0,0.0,0.0,0.0,0.0,0.0,0.0,0.0,0.0,0.0,0.0,0.0,0.0,0.0,0.0,0.0,0.0,0.0,0.0,0.0,0.0,0.0,0.0,0.0,0.0,0.0,0.0,0.0,0.0,0.0,0.0,0.0,0.0,0.0,0.0,0.0,0.0,0.0,0.0,0.0,0.0,0.0,0.0,0.0,0.0,0.0,0.0,0.0,0.0,0.0,0.0,0.0,0.0,0.0,0.0,0.0,0.0,0.0,0.0,0.0,0.0,0.0,0.0,0.0,0.0,0.0,0.0,0.0,0.0,0.0,0.0,2.4531,0.0,0.0,0.0,0.0,0.0,0.0,0.0,0.0,0.0,0.0,0.0,0.0,0.0,0.0,0.0,0.0,0.0,0.0,0.0,0.0,0.0,0.0,0.0,0.0,0.0,0.0,0.0,0.0,0.0,0.0,0.0,0.0,0.0,0.0,0.0,0.0,0.0,0.0,0.0,5.1048,4.9932,4.8443,4.9187,4.9357,4.9018,0.0,0.0,0.0,0.0,0.0,0.0,0.0,0.0,0.0,0.0,0.0,0.0,0.0,0.0,0.0,0.0,0.0,0.0,0.0,0.0,0.0,0.0,0.0,0.0,0.0,0.0,0.0,0.0,0.0,0.0,0.0,0.0,0.0,0.0,0.0,0.0,0.0,0.0,0.0,0.0,0.0,0.0,0.0,0.0,0.0,0.0,0.0,0.0,0.0,0.0,0.0,0.0,0.0,0.0,0.0,0.0,0.0,0.0,0.0,0.0,0.0,0.0,0.0,0.0,0.0,0.0,0.0,0.0,0.0,0.0,0.0,2.5254,0.0,0.0,0.0,0.0,0.0,0.0,0.0,0.0,0.0,0.0,0.0,0.0,0.0,0.0,0.0,0.0,0.0,0.0,0.0,0.0,0.0,0.0,0.0,0.0,5.2417,5.1654,5.2773,5.3213,0.0,0.0,0.0,0.0,0.0,0.0,0.0,0.0,0.0,5.1725,5.0033,4.939,4.983,5.0811,5.0947,5.0371,5.0294,0.0,0.0,0.0,0.0,0.0,0.0,0.0,0.0,0.0,0.0,0.0,0.0,0.0,0.0,0.0,0.0,0.0,0.0,0.0,0.0,0.0,0.0,0.0,0.0,0.0,0.0,0.0,0.0,0.0,0.0,0.0,0.0,0.0,0.0,0.0,0.0,0.0,0.0,0.0,0.0,0.0,0.0,0.0,0.0,0.0,0.0,0.0,0.0,0.0,0.0,0.0,0.0,0.0,0.0,0.0,0.0,0.0,0.0,0.0,0.0,0.0,0.0,0.0,0.0,2.875,2.875,2.875,2.875,2.8691,2.7637,2.6543,2.5566,0.0,0.0,0.0,0.0,0.0,0.0,0.0,0.0,0.0,0.0,0.0,0.0,0.0,0.0,0.0,0.0,0.0,0.0,0.0,0.0,0.0,0.0,5.3392,5.3927,5.3245,5.3382,5.345,0.0,0.0,0.0,0.0,0.0,0.0,0.0,5.098,5.0744,4.9458,4.9763,5.098,5.2942,5.4972,5.5852,5.5615,5.2489,5.182,5.3142,0.0,0.0,0.0,0.0,0.0,0.0,0.0,0.0,0.0,0.0,0.0,0.0,0.0,0.0,0.0,0.0,0.0,0.0,0.0,0.0,0.0,0.0,0.0,0.0,0.0,0.0,0.0,0.0,0.0,0.0,0.0,0.0,0.0,0.0,0.0,0.0,0.0,0.0,0.0,0.0,0.0,3.2968,3.2968,0.0,0.0,0.0,0.0,0.0,0.0,0.0,0.0,0.0,0.0,0.0,0.0,0.0,0.0,3.0349,2.9978,2.9805,2.9863,3.0332,3.0547,3.0547,3.0547,3.0547,3.0547,3.0371,0.0,2.7162,2.5368,0.0,0.0,0.0,0.0,0.0,0.0,0.0,0.0,0.0,0.0,0.0,0.0,0.0,0.0,0.0,0.0,0.0,0.0,0.0,0.0,0.0,5.3307,5.3827,5.3551,5.5412,5.5716,5.3653,0.0,0.0,0.0,0.0,0.0,5.0135,4.9999,5.0067,5.0236,5.2266,5.4397,5.663,5.8017,5.8896,5.9275,5.8102,5.6597,5.4738,5.3175,0.0,0.0,0.0,0.0,0.0,0.0,0.0,0.0,0.0,0.0,0.0,0.0,0.0,0.0,0.0,0.0,0.0,0.0,0.0,0.0,0.0,0.0,0.0,0.0,0.0,0.0,0.0,0.0,0.0,0.0,0.0,0.0,0.0,0.0,0.0,0.0,0.0,0.0,0.0,3.3771,3.4474,3.3219,3.2667,3.1921,0.0,0.0,0.0,0.0,0.0,0.0,0.0,0.0,0.0,3.0056,2.9809,3.0162,3.0902,3.1445,3.1777,3.2012,3.2207,3.2441,3.2676,3.2422,3.2305,3.2305,3.207,3.1289,3.0098,2.8038,2.6967,2.6162,0.0,0.0,0.0,0.0,0.0,1.8971,0.0,0.0,0.0,0.0,0.0,0.0,0.0,0.0,0.0,0.0,0.0,0.0,5.2795,5.3891,5.4768,5.5108,5.7374,5.7543,5.4803,5.5953,0.0,0.0,0.0,5.1319,4.983,4.983,5.0777,5.2638,5.5649,5.8355,6.0723,6.167,6.2415,6.3035,6.3971,6.1936,5.7701,5.5568,5.3936,5.2637,0.0,0.0,0.0,0.0,0.0,0.0,0.0,0.0,0.0,0.0,0.0,0.0,0.0,0.0,0.0,0.0,0.0,0.0,0.0,0.0,0.0,0.0,0.0,0.0,0.0,0.0,0.0,0.0,0.0,0.0,0.0,0.0,0.0,0.0,0.0,0.0,0.0,3.4675,3.5479,3.3696,3.3149,3.2225,0.0,0.0,0.0,0.0,0.0,0.0,2.8887,2.9453,3.0,3.0527,3.1406,3.1973,3.2207,3.3144,3.3887,3.4414,3.4297,3.4473,3.4883,3.4551,3.4297,3.4062,3.375,3.3262,3.2519,3.0664,2.9114,2.7682,2.5441,2.4128,2.3198,2.0859,1.9856,1.9706,0.0,0.0,0.0,0.0,0.0,0.0,0.0,0.0,0.0,0.0,0.0,5.3472,5.4339,5.6318,5.8194,5.9655,5.866,5.7881,5.7679,5.5175,5.2976,5.1285,5.1251,5.0574,4.9086,5.1082,5.3585,5.6528,5.9539,6.2516,6.5392,6.6812,6.7523,6.7642,6.8659,6.705,6.3264,5.9583,5.7517,5.6546,5.266,0.0,0.0,0.0,0.0,0.0,0.0,0.0,0.0,0.0,0.0,0.0,0.0,0.0,0.0,0.0,0.0,0.0,0.0,0.0,0.0,0.0,0.0,0.0,0.0,0.0,0.0,0.0,0.0,0.0,0.0,0.0,0.0,0.0,0.0,0.0,0.0,0.0,0.0,3.4726,3.3808,0.0,0.0,0.0,0.0,2.8164,2.8945,2.9805,3.0703,3.1543,3.2383,3.3203,3.4062,3.4902,3.5762,3.582,3.6269,3.709,3.6699,3.6719,3.7129,3.7109,3.666,3.5879,3.5859,3.5137,3.3809,3.1699,2.9925,2.8482,2.7984,2.6151,2.3779,2.3202,2.2033,2.0535,0.0,0.0,0.0,0.0,0.0,0.0,0.0,0.0,5.2736,5.3462,5.3426,5.4575,5.7982,5.8885,6.0387,6.3043,6.3528,6.2618,6.025,5.9099,5.7002,5.3551,5.2435,5.1894,5.1894,5.4059,5.69,6.0385,6.3396,6.6136,6.8605,6.9113,6.962,7.006,7.0643,6.9836,6.7845,6.3659,6.0867,5.897,5.448,5.1623,0.0,0.0,0.0,0.0,0.0,0.0,0.0,0.0,0.0,0.0,0.0,0.0,0.0,0.0,0.0,0.0,0.0,0.0,0.0,0.0,0.0,0.0,0.0,0.0,0.0,0.0,0.0,0.0,0.0,0.0,0.0,0.0,0.0,0.0,0.0,0.0,0.0,3.7864,3.685,0.0,0.0,3.1324,2.959,3.0312,3.0918,3.1992,3.3691,3.4336,3.5156,3.6289,3.6894,3.7344,3.7656,3.793,3.8086,3.8125,3.7676,3.7559,3.7676,3.7148,3.6582,3.5996,3.5742,3.5176,3.4414,3.3652,3.2739,3.156,3.0267,2.8303,2.612,2.4761,2.3148,2.1483,0.0,0.0,0.0,0.0,0.0,0.0,0.0,0.0,5.2562,5.3836,5.4343,5.6034,5.9888,6.1631,6.3514,6.6135,6.6378,6.5087,6.1873,6.025,5.7645,5.3619,5.2706,5.3044,5.46,5.7306,6.0385,6.3869,6.6609,6.8842,7.0567,7.0567,7.0838,7.1278,7.1763,7.1711,7.1018,6.7885,6.4601,6.1225,5.6508,5.416,5.301,0.0,0.0,0.0,0.0,0.0,0.0,0.0,0.0,0.0,0.0,0.0,0.0,0.0,0.0,0.0,0.0,0.0,0.0,0.0,0.0,0.0,0.0,0.0,0.0,0.0,0.0,0.0,0.0,0.0,0.0,0.0,0.0,0.0,0.0,0.0,3.9471,4.0425,3.989,3.878,3.7063,3.4403,3.2715,3.2773,3.3496,3.4648,3.6387,3.6855,3.7559,3.8555,3.8867,3.9082,3.9238,3.9219,3.9141,3.9004,3.8418,3.8144,3.8125,3.7422,3.6855,3.6445,3.6152,3.5703,3.5156,3.5293,3.4941,3.4109,3.2592,3.0401,2.7982,2.6724,2.451,2.2405,0.0,0.0,0.0,0.0,0.0,0.0,0.0,5.2554,5.2335,5.3133,5.5425,5.7765,5.9937,6.4348,6.7666,6.9135,6.7133,6.4783,6.2584,5.8254,5.4431,5.1454,5.2029,5.389,5.6934,6.0622,6.3937,6.6914,6.9147,7.0601,7.1312,7.1312,7.1312,7.1345,7.2313,7.2783,7.2749,7.2022,6.87,6.3574,5.8855,5.7374,5.7374,0.0,0.0,0.0,0.0,0.0,0.0,0.0,0.0,0.0,0.0,0.0,0.0,0.0,0.0,0.0,0.0,0.0,0.0,0.0,0.0,0.0,0.0,0.0,0.0,0.0,0.0,0.0,0.0,0.0,0.0,0.0,0.0,0.0,3.7136,3.9647,4.163,4.2258,4.2543,4.1638,3.8612,3.7919,3.7032,3.5583,3.6641,3.7734,3.8594,3.9023,3.9453,3.9922,3.9941,4.0137,4.0547,3.9687,3.9473,3.9883,3.9023,3.8613,3.8555,3.8125,3.7695,3.7305,3.7285,3.6797,3.6055,3.6484,3.6406,3.5937,3.5078,3.2551,2.922,2.9008,2.6436,2.3247,0.0,0.0,0.0,0.0,0.0,0.0,0.0,5.2149,5.2022,5.3917,5.5226,5.8282,6.4051,6.6034,6.8487,7.2538,6.9001,6.5797,6.4106,5.9302,5.5649,5.3754,5.4871,5.7476,6.1569,6.37,6.6237,6.9248,7.0432,7.1109,7.1312,7.1312,7.1616,7.209,7.2416,7.2778,7.3254,7.305,7.1825,6.9544,6.3882,6.0486,5.8321,0.0,0.0,0.0,0.0,0.0,0.0,0.0,0.0,0.0,0.0,0.0,0.0,0.0,0.0,0.0,0.0,0.0,0.0,0.0,0.0,0.0,0.0,0.0,0.0,0.0,0.0,0.0,0.0,0.0,0.0,0.0,0.0,3.9245,3.9546,4.1279,4.3463,4.6024,4.5646,4.4478,4.2722,4.125,3.9584,3.7818,3.8301,3.9062,3.9941,4.0098,4.0371,4.0801,4.082,4.0879,4.0996,4.0762,4.0391,3.9883,3.9648,3.9199,3.8555,3.8125,3.7695,3.7285,3.6973,3.6523,3.6035,3.6152,3.6133,3.5996,3.5742,3.4252,3.1946,3.0169,2.697,2.33,0.0,0.0,0.0,0.0,0.0,0.0,0.0,5.1323,5.1205,5.2895,5.5497,5.9147,6.4179,6.7156,6.9687,7.1885,6.8857,6.5527,6.2448,5.8254,5.575,5.5513,5.7848,6.096,6.4816,6.6373,6.8267,7.0669,7.1413,7.1751,7.1785,7.209,7.2462,7.2868,7.3172,7.3544,7.3984,7.4289,7.3984,7.3003,6.9214,6.6068,6.3193,5.8626,5.6934,5.6457,5.2503,5.0758,4.9821,4.6782,0.0,0.0,0.0,0.0,0.0,0.0,0.0,0.0,0.0,0.0,0.0,0.0,0.0,0.0,0.0,0.0,0.0,0.0,0.0,0.0,0.0,0.0,0.0,0.0,4.045,4.2283,4.3438,4.4443,4.6024,4.8636,4.8639,4.7714,4.6194,4.448,4.264,4.0813,4.0215,4.0254,4.0762,4.0801,4.0918,4.1172,4.1172,4.1172,4.1172,4.0996,4.0644,4.0156,3.9785,3.9336,3.8828,3.8203,3.7793,0.0,3.7109,3.668,3.6289,3.6289,3.6191,0.0,0.0,0.0,0.0,0.0,2.5765,2.3327,0.0,0.0,0.0,0.0,0.0,0.0,0.0,5.0306,5.0165,5.0981,5.5663,5.9667,6.1843,6.7333,7.0354,6.9237,6.7404,6.4241,5.9336,5.6461,5.5716,5.7374,6.0926,6.4208,6.7015,6.8571,7.0026,7.1447,7.209,7.2428,7.2529,7.3274,7.3646,7.3781,7.4525,7.4931,7.5033,7.5676,7.554,7.4796,7.4052,7.2259,6.9383,6.3193,6.1975,6.2695,5.6591,5.3453,5.1773,4.8292,0.0,0.0,0.0,0.0,0.0,0.0,0.0,0.0,0.0,0.0,0.0,0.0,0.0,0.0,0.0,0.0,0.0,0.0,0.0,0.0,0.0,0.0,0.0,0.0,4.2861,4.5221,4.7983,4.8385,4.8937,5.0419,5.1071,5.0677,4.8858,4.7275,4.5508,4.3636,4.2128,4.1172,4.1172,0.0,0.0,0.0,0.0,4.1172,4.1172,4.0781,4.0547,4.0449,3.9648,3.9219,3.9101,3.8301,3.7891,3.7832,3.7402,3.6992,3.6601,3.6601,3.6367,3.6016,3.6016,3.3725,2.9851,2.6171,2.4303,2.338,0.0,0.0,0.0,0.0,0.0,0.0,0.0,4.9436,4.9536,5.1011,5.4239,5.7534,6.0496,6.3913,6.6848,6.9222,6.5653,6.2042,5.9201,5.7915,5.8457,6.1197,6.4309,6.6812,6.8639,7.0128,7.1312,7.2191,7.2326,7.2699,7.3274,7.4052,7.4695,7.5303,7.6115,7.6792,7.7333,7.7468,7.713,7.6386,7.5574,7.2868,6.9045,6.6474,6.4681,6.2898,5.8204,5.6564,5.5911,5.1274,4.9478,4.8745,4.677,4.5214,0.0,0.0,0.0,0.0,0.0,0.0,0.0,0.0,0.0,0.0,0.0,0.0,0.0,0.0,0.0,0.0,0.0,0.0,0.0,4.4016,4.5974,4.8083,5.0896,5.1297,5.1423,5.1749,5.1875,5.1396,4.991,4.801,4.6014,4.41,4.2289,4.1172,4.1172,4.1172,0.0,4.1172,4.1172,4.1172,4.1172,4.1094,4.0703,4.0019,0.0,0.0,3.8672,3.8164,3.7734,3.7402,3.6973,3.6543,3.6152,3.6152,3.6094,3.6016,3.6016,3.3725,3.0151,2.9392,2.684,2.3688,0.0,0.0,0.0,0.0,0.0,0.0,0.0,4.865,4.8639,4.9847,5.2652,5.5587,5.8282,6.1223,6.3281,6.4161,6.0745,5.849,5.8457,5.9167,6.1095,6.4478,6.7455,6.9586,7.0737,7.1853,7.2563,7.2935,7.368,7.4221,7.4627,7.5777,7.6487,7.686,7.7671,7.8213,7.8585,7.8923,7.8686,7.7976,7.757,7.5405,7.2157,6.9925,6.7665,6.5259,6.148,5.9383,5.7808,5.3744,5.1843,5.093,4.9284,4.7848,4.6591,0.0,0.0,0.0,0.0,0.0,0.0,0.0,0.0,0.0,0.0,0.0,0.0,0.0,0.0,4.0697,0.0,0.0,4.4242,4.6728,4.8284,4.9841,5.1825,5.2101,5.2201,5.2477,5.2528,5.2192,5.1558,4.9913,4.8032,4.5723,4.4023,4.2591,4.1347,4.1172,4.1172,4.1172,4.1172,4.1172,4.1172,4.1172,4.0957,4.0527,4.0312,3.9863,3.9219,3.8769,3.834,3.791,3.748,3.7051,3.6621,3.6191,3.6152,3.6328,3.6094,3.3725,3.0168,2.9186,2.6801,2.3768,0.0,0.0,0.0,0.0,0.0,0.0,0.0,4.7921,4.7922,4.8657,5.1245,5.3635,5.5421,5.8046,5.9268,5.8015,5.6576,5.6528,5.8626,6.1028,6.3971,6.7523,7.0297,7.209,7.28,7.3409,7.3849,7.4153,7.5337,7.6014,7.6183,7.7705,7.8416,7.845,7.9363,7.9769,7.9803,8.0378,8.0276,7.9735,7.9431,7.8145,7.6048,7.2759,7.027,6.8071,6.4739,6.1627,5.869,5.5771,5.3892,5.2606,5.1528,5.084,4.9972,4.7728,4.7189,0.0,0.0,0.0,0.0,0.0,0.0,0.0,0.0,0.0,4.3202,4.2552,4.2658,4.3244,4.4206,4.5723,4.733,4.8987,5.0193,5.1222,5.2126,5.2352,5.2553,5.2879,5.2929,5.2929,5.2929,5.1528,4.9838,4.7804,4.5771,4.3905,4.1927,4.1463,4.1172,4.1172,4.1172,4.1172,4.1172,4.1172,4.1133,4.1035,4.0605,4.0176,3.9746,3.9199,3.8769,3.8418,3.7988,3.7617,3.7246,3.6562,3.6426,3.6641,3.5858,3.3363,3.0168,2.8629,2.6243,2.3768,0.0,0.0,0.0,0.0,0.0,0.0,0.0,0.0,4.7761,4.8579,5.0172,5.1319,5.1706,5.3218,5.4141,5.4126,5.7412,6.0182,6.1772,6.458,6.759,7.0669,7.236,7.3578,7.4356,7.4458,7.5168,7.6521,7.669,7.7096,7.7773,7.9261,7.9938,8.0006,8.1426,8.2035,8.2035,8.2137,8.2137,8.1934,8.0615,7.9532,7.8283,7.4106,7.1457,6.9647,6.6192,6.245,5.8975,5.7311,5.5927,5.482,5.467,5.4581,5.3892,5.072,4.8626,4.6691,4.4094,4.3517,0.0,4.4846,4.6082,4.7109,0.0,0.0,4.6933,4.616,4.5885,4.5993,4.6627,4.7707,4.9038,5.072,5.1925,5.2678,5.2829,5.3231,5.3381,5.298,5.2929,5.2929,5.2929,5.1211,5.0032,4.9677,4.6189,4.4008,4.3794,4.2196,4.1172,4.1172,4.1172,4.1172,4.1172,4.1172,4.0976,4.0586,4.0176,3.9726,3.9258,3.8437,3.8047,3.7969,3.7559,3.7344,3.7285,3.7187,3.6973,3.6521,3.4715,3.2456,3.031,3.0026,2.7357,2.3768,0.0,0.0,0.0,0.0,0.0,0.0,0.0,0.0,0.0,0.0,4.8933,4.9501,4.9083,4.9681,5.0169,5.0232,5.3923,5.7645,6.0858,6.5087,6.8977,7.2428,7.4424,7.5608,7.5946,7.6352,7.6893,7.7536,7.8382,7.8991,7.9295,8.0784,8.1494,8.1528,8.2137,8.2408,8.2408,8.2408,8.2408,8.2374,8.1731,8.0784,7.933,7.5336,7.1716,6.8204,6.4266,6.0749,0.0,5.5981,5.5059,5.47,5.5059,5.4401,5.3114,5.1319,4.9434,4.7376,4.5198,0.0,0.0,0.0,4.7009,4.7716,4.8705,4.8435,4.78,4.7349,4.7774,4.8485,4.9389,5.0444,5.1423,0.0,5.2879,5.3281,5.298,5.3105,5.3055,5.2503,5.2729,5.2929,5.2929,5.2461,5.162,5.0127,4.7761,4.5728,4.4247,4.2196,4.1172,4.1172,4.1172,4.1172,4.1172,4.1172,4.1074,4.0898,4.0723,4.041,3.9941,3.9355,3.8789,3.8281,3.7851,3.7656,3.7617,3.7129,3.6393,3.5228,3.4025,3.1588,2.9039,2.8691,2.6658,2.3768,0.0,0.0,0.0,0.0,0.0,0.0,0.0,0.0,0.0,0.0,4.7994,4.8271,4.7369,4.7248,4.7249,4.7319,5.1116,5.5209,5.9235,6.4783,6.9586,7.3341,7.5676,7.7096,7.7502,7.8213,7.8686,7.8889,8.0175,8.0818,8.0818,8.2103,8.2712,8.2712,8.2915,8.3016,8.3016,8.3016,8.3016,8.2983,8.209,8.0909,7.9056,7.4346,6.984,6.5676,6.2003,5.8359,5.5239,5.3653,5.2995,5.2995,5.3832,5.3354,5.2276,5.1259,4.8919,4.6488,4.5035,0.0,0.0,4.6951,4.8906,5.0169,5.002,5.0059,5.0033,4.9419,5.0067,5.0971,5.18,5.2603,5.308,5.2955,5.3356,5.3507,5.3005,5.2929,5.2678,5.1975,5.2101,5.2302,5.2452,5.308,5.2445,5.0151,4.8561,4.6541,4.4247,4.2196,4.1172,4.1172,4.1172,4.1172,4.1172,4.1172,4.1172,4.1172,4.1055,4.0762,4.0332,3.9785,3.918,3.8555,3.8242,3.8105,3.8047,3.7324,3.6104,3.4414,3.3162,3.0717,2.7804,2.691,2.5468,2.3768,0.0,0.0,0.0,0.0,0.0,0.0,0.0,0.0,0.0,0.0,0.0,0.0,0.0,4.6044,4.5737,4.5771,5.0507,5.4769,5.7746,6.4208,6.9586,7.3341,7.5676,7.757,7.9025,7.9769,8.0479,8.119,8.1968,8.234,8.2374,8.3118,8.3456,8.349,8.4234,8.4539,8.4539,8.4539,8.4539,8.4297,8.1315,7.9386,7.7289,6.9554,6.4951,6.2268,6.0079,5.5857,5.1289,5.0601,4.9942,4.9643,5.093,5.2187,5.2785,5.084,4.6761,4.2833,4.2499,0.0,4.6634,4.7334,5.2148,5.5733,5.1576,5.3267,5.523,5.3182,5.3206,5.3582,5.3607,5.3658,5.3507,5.3005,5.3356,5.3507,5.3005,5.2929,5.2528,5.1448,5.082,5.072,0.0,5.2302,5.205,5.0127,4.8217,4.6167,4.4247,4.2196,4.1172,4.1172,4.1172,4.1172,4.1172,4.1172,4.1172,4.1172,4.0742,4.0332,3.9883,3.9004,3.8594,3.8574,3.8555,3.8555,3.8516,3.8066,3.6455,3.4306,3.1998,2.9633,2.7186,2.5029,2.4022,2.3768,0.0,0.0,0.0,0.0,0.0,0.0,0.0,0.0,0.0,0.0,0.0,0.0,0.0,0.0,0.0,0.0,4.8646,5.1792,5.4769,6.1704,6.6914,6.9654,7.4796,7.8077,7.9092,8.031,8.1291,8.2035,8.278,8.3118,8.3152,8.3896,8.4234,8.4268,8.4505,8.464,8.464,8.464,8.4001,8.2776,8.0487,7.8408,7.5797,6.902,6.3984,5.9861,0.0,5.1937,4.9045,4.7489,4.713,4.7459,4.8356,4.8626,4.8209,4.6255,4.4904,4.426,4.4941,0.0,4.9855,5.2693,5.4711,5.6011,5.603,5.6165,5.5683,5.3746,5.303,5.2427,5.1674,5.2126,5.2327,5.1423,5.2628,5.3507,5.3005,5.2929,5.2377,5.0896,5.1197,0.0,0.0,0.0,0.0,5.0055,4.6882,4.4827,4.4096,4.2196,4.1172,4.1172,4.1172,4.1172,4.1172,4.1172,4.1172,4.1172,4.1035,4.0586,3.9883,3.959,3.9141,3.8574,3.8574,3.8574,3.8516,3.6463,3.4469,3.2373,2.9745,2.745,2.5492,2.4663,2.4182,2.3741,0.0,0.0,0.0,0.0,0.0,0.0,0.0,0.0,0.0,0.0,0.0,0.0,0.0,0.0,0.0,0.0,0.0,4.9357,5.2097,5.778,6.2381,6.5425,6.9958,7.3003,7.4289,7.5236,7.6487,7.8044,7.9025,8.0073,8.1156,8.19,8.2408,8.2678,8.2915,8.305,8.305,8.305,8.1604,7.9046,7.6515,7.335,6.9663,6.396,5.9201,0.0,5.0608,4.7997,4.6322,4.5035,4.4885,4.5334,4.5753,4.5903,4.5679,4.4501,4.511,4.6446,4.7829,5.0572,5.3465,5.608,5.7765,5.8916,5.9117,5.8667,5.7432,5.4893,5.3299,5.1915,5.0147,5.0092,5.0142,4.9615,5.072,5.18,5.2277,5.2151,5.1699,5.082,5.1197,5.1297,0.0,0.0,0.0,4.8868,4.5998,4.3794,4.3075,4.1907,4.1172,4.1172,4.1172,4.1172,4.1172,4.1172,4.1172,4.1172,4.0859,4.043,3.9883,3.957,3.9121,3.8574,3.8574,3.8185,3.7226,3.5355,3.2867,2.9968,2.8099,2.6113,2.4315,2.4209,2.3928,2.3607,0.0,0.0,0.0,0.0,0.0,0.0,0.0,0.0,0.0,0.0,0.0,0.0,0.0,0.0,0.0,0.0,0.0,0.0,4.9729,5.2706,5.6325,6.0655,6.1806,6.3328,6.5459,6.5628,6.7117,7.006,7.1481,7.3646,7.6521,7.7198,7.7908,7.8619,7.9329,7.9634,7.9634,7.96,7.7246,7.3309,6.9566,6.497,5.9861,5.4971,5.1079,4.8027,4.6052,4.4496,4.3329,4.3329,4.3359,4.3389,4.3449,4.4295,4.5382,4.5665,4.716,4.919,5.1084,5.4623,5.7828,5.7828,6.1386,6.4154,6.0891,6.0765,6.0183,5.6233,5.3915,5.1805,0.0,0.0,4.7255,4.7757,4.7983,4.8887,5.1046,5.0896,5.0745,0.0,0.0,0.0,0.0,0.0,0.0,4.7006,0.0,4.3228,4.1327,4.1172,4.1172,4.1172,4.1172,4.1172,4.1172,4.1172,4.1172,4.1172,4.0332,3.9922,3.9863,3.9004,3.8594,3.8574,3.8574,3.7264,3.5048,3.4505,3.1709,2.7605,2.7132,2.5556,2.3741,2.3474,2.3354,2.3367,0.0,0.0,0.0,0.0,0.0,0.0,0.0,0.0,0.0,0.0,0.0,0.0,0.0,0.0,0.0,0.0,0.0,0.0,4.6752,5.0135,5.2841,5.4532,5.9066,6.211,6.3193,6.485,6.6609,6.847,6.8842,6.9755,7.1109,7.1278,7.1481,7.165,7.1853,7.1921,7.1887,7.1278,6.9377,6.6354,6.3387,6.0195,5.6869,5.3158,5.0301,4.8087,4.6591,4.4885,4.3329,4.3329,0.0,0.0,4.5244,4.5457,4.5958,4.8383,5.0904,5.3482,5.6332,6.0033,6.3357,6.4298,6.5077,6.5228,6.2974,6.0709,5.791,5.4447,5.0649,4.7332,0.0,0.0,0.0,4.6702,4.9138,0.0,5.2377,5.2377,0.0,0.0,0.0,5.2352,5.2503,4.8849,0.0,0.0,4.4175,4.1753,4.1172,4.1172,4.1172,4.1172,4.1172,4.1172,4.1172,4.1172,4.1172,4.1172,4.0625,4.0195,3.9883,3.9297,3.8867,3.8574,3.8574,3.7264,3.4902,3.3033,3.0551,2.749,2.5834,2.463,2.3794,2.3928,2.3701,2.334,0.0,0.0,0.0,0.0,0.0,0.0,0.0,0.0,0.0,0.0,0.0,0.0,0.0,0.0,0.0,0.0,0.0,0.0,0.0,4.7158,4.8781,4.983,5.2807,5.4938,5.6021,5.7239,5.893,6.1061,6.1738,6.2956,6.4681,6.5019,6.5358,6.5696,6.6,6.617,6.6136,6.5211,6.3033,0.0,0.0,5.4321,5.1169,4.9015,4.7309,4.6022,4.5274,4.4646,4.4317,0.0,0.0,4.6352,4.7967,4.883,4.9927,5.3157,0.0,5.8107,6.1349,6.4248,6.649,6.7238,6.6939,6.5647,6.2651,5.9829,5.6332,5.0864,4.7424,0.0,4.1746,0.0,0.0,0.0,0.0,0.0,5.2327,5.2578,5.2804,0.0,5.3607,0.0,5.3984,5.0938,4.8758,0.0,4.3801,4.1172,4.1172,4.1172,4.1172,4.1172,4.1172,4.1172,4.1172,4.1172,4.1172,4.1172,4.0547,4.0117,3.9883,3.9219,3.8789,3.8574,0.0,3.6713,3.3465,3.2086,2.9451,2.6011,2.4875,2.4168,2.3794,2.3955,2.3728,2.3327,0.0,0.0,0.0,0.0,0.0,0.0,0.0,0.0,0.0,0.0,0.0,0.0,0.0,0.0,0.0,0.0,0.0,0.0,0.0,0.0,4.5162,4.6447,4.5974,4.6312,4.7597,4.7733,4.912,5.186,5.3213,5.5277,5.7983,5.8626,5.9302,6.0013,6.0622,6.0892,6.0815,5.9831,5.72,5.36,5.1379,4.8245,4.4975,0.0,4.3838,4.3329,4.3329,4.4077,4.5394,0.0,4.8745,4.9194,5.1439,5.3443,5.5628,5.8919,6.0775,6.245,6.5652,6.7418,6.8345,6.8345,6.7717,6.5948,6.1439,5.8434,5.4562,4.7128,4.4323,4.2154,3.912,3.9948,4.1731,4.3614,0.0,4.851,5.185,5.2327,5.308,5.5139,5.4963,5.4888,5.544,5.3157,5.0678,4.8223,4.4016,4.1522,4.1172,4.1172,4.1172,4.1172,4.1172,4.1172,4.1172,4.1172,4.1172,4.1172,4.0351,3.998,3.9941,3.9062,3.8652,3.8652,0.0,0.0,3.1563,3.1513,2.8581,2.4209,2.4249,2.4062,2.3768,2.3808,2.3647,2.338,0.0,0.0,0.0,0.0,0.0,0.0,0.0,0.0,0.0,0.0,4.6194,4.4797,0.0,0.0,0.0,0.0,0.0,0.0,0.0,0.0,0.0,4.4959,4.5432,4.5838,4.6075,4.6684,4.7834,4.956,4.983,5.0879,5.257,5.2706,5.2841,5.2976,5.3112,5.3145,5.3045,5.1453,4.9942,4.8445,4.668,4.4969,4.3658,4.3539,0.0,0.0,4.3329,4.3479,4.4407,4.9134,5.1079,5.2157,5.5777,5.7902,5.9727,6.3019,6.4545,6.5772,6.8525,6.9842,7.041,7.041,6.9093,6.664,6.2012,5.6872,0.0,4.6079,4.1789,3.8586,3.7107,3.8542,4.0978,4.3991,0.0,0.0,0.0,0.0,5.3909,0.0,0.0,0.0,0.0,0.0,0.0,0.0,0.0,0.0,4.1347,4.1172,4.1172,4.1172,4.1172,4.1172,4.1172,4.1172,4.1172,4.1172,4.0664,4.041,4.0391,3.9492,3.9101,3.9062,3.834,0.0,3.1546,3.1231,2.8351,2.4222,2.4462,2.4235,2.3794,2.4035,2.3941,2.3661,0.0,0.0,0.0,0.0,0.0,0.0,0.0,4.6214,4.6985,4.9848,4.8592,4.6729,4.4991,4.315,4.2083,0.0,0.0,0.0,0.0,0.0,0.0,0.0,4.4925,4.5128,4.5128,4.5838,4.6752,0.0,0.0,4.8984,5.0067,5.0067,5.0067,5.0067,5.0067,5.0067,4.997,4.8164,4.7109,4.6582,4.4754,4.3693,4.3329,0.0,0.0,0.0,0.0,0.0,0.0,4.8476,5.1498,5.4461,5.8411,6.0595,6.2211,6.5173,6.652,6.7597,7.026,7.1457,7.1787,7.1068,6.8645,6.4785,5.8195,0.0,0.0,4.0816,3.7826,3.6056,3.5228,3.7362,0.0,0.0,0.0,0.0,0.0,0.0,0.0,0.0,0.0,0.0,0.0,0.0,0.0,0.0,0.0,0.0,4.1347,4.1172,4.1172,4.1172,4.1172,4.1172,4.1172,4.1172,4.1172,4.1172,4.0723,4.041,4.0176,3.9512,3.9082,3.8848,3.7359,0.0,3.1546,3.0208,2.7702,2.4436,2.4583,2.4462,2.4235,2.4382,2.4249,2.3955,0.0,0.0,0.0,0.0,0.0,0.0,0.0,4.8196,4.9187,5.2821,5.1565,4.9467,4.715,4.3746,4.167,0.0,0.0,0.0,0.0,0.0,0.0,0.0,0.0,0.0,0.0,0.0,0.0,0.0,0.0,0.0,0.0,0.0,0.0,0.0,0.0,4.9018,4.8861,4.7036,4.6269,0.0,0.0,4.3539,0.0,0.0,0.0,0.0,0.0,0.0,0.0,0.0,5.072,5.4371,5.8201,6.1283,6.3887,6.5981,6.7448,6.8914,7.1248,7.2385,7.2565,7.1068,6.7717,6.2704,5.4476,4.9108,0.0,3.6586,3.4881,3.455,3.3997,3.6132,3.8542,0.0,4.2057,4.4945,4.9741,5.0519,5.195,0.0,5.6143,0.0,0.0,0.0,0.0,0.0,0.0,0.0,4.1347,4.1172,4.1172,4.1172,4.1172,4.1172,4.1172,4.1172,4.1172,4.1172,4.082,4.0449,4.0019,3.9551,3.9121,3.8545,3.6368,0.0,0.0,2.9282,2.6858,2.4636,2.4636,2.4636,2.4636,2.4636,2.4449,2.4155,0.0,0.0,0.0,0.0,0.0,0.0,0.0,4.9994,5.216,5.6822,5.4771,5.2534,5.1772,4.7082,4.3012,0.0,0.0,0.0,0.0,0.0,0.0,0.0,0.0,0.0,0.0,0.0,0.0,0.0,0.0,0.0,0.0,0.0,0.0,0.0,0.0,0.0,0.0,4.7036,0.0,0.0,0.0,0.0,0.0,0.0,0.0,0.0,0.0,0.0,0.0,0.0,0.0,4.9494,5.2845,5.8949,6.4904,6.5144,0.0,0.0,7.1517,7.2385,7.2445,7.05,6.7029,6.2017,5.4293,0.0,4.4014,3.7608,3.548,3.455,3.3997,3.455,3.6282,0.0,4.1103,4.3639,4.959,5.087,5.2251,5.5114,0.0,0.0,0.0,0.0,0.0,0.0,0.0,0.0,0.0,4.1172,4.1172,4.1172,4.1172,4.1172,4.1172,4.1172,4.1172,4.1172,4.1133,4.0879,4.0449,4.0019,3.957,3.8954,3.6201,0.0,0.0,2.9035,2.6657,2.4636,2.4636,2.4636,2.4636,2.4636,2.4449,2.4155,0.0,0.0,0.0,0.0,0.0,0.0,4.9664,5.0582,5.2711,5.8033,5.6806,5.5013,5.3845,5.0182,4.6215,4.2324,0.0,0.0,0.0,0.0,0.0,0.0,0.0,0.0,0.0,0.0,0.0,0.0,0.0,0.0,0.0,0.0,0.0,0.0,0.0,0.0,0.0,0.0,0.0,0.0,0.0,0.0,0.0,0.0,0.0,0.0,0.0,0.0,0.0,0.0,0.0,0.0,4.7369,5.1887,0.0,0.0,6.4096,6.7089,7.041,7.2086,7.2445,7.044,6.6071,6.0357,5.3087,4.7278,4.1993,3.6545,3.4781,3.4048,3.3495,3.3847,3.4951,3.7161,3.7713,3.9622,4.4719,4.5924,4.7933,5.2377,0.0,0.0,0.0,0.0,0.0,0.0,0.0,0.0,0.0,4.1172,4.1172,4.1172,4.1172,4.1172,4.1172,4.1172,4.1035,4.0781,4.0781,4.041,3.9726,3.9551,3.9238,3.8642,3.6072,0.0,0.0,2.8842,2.6643,2.4636,2.4636,2.4636,2.4636,2.4636,2.4449,2.4155,0.0,0.0,0.0,0.0,0.0,4.5736,4.9774,5.1059,5.3188,5.7886,5.7569,5.6508,5.5425,5.1692,4.8204,4.5505,4.3128,0.0,0.0,0.0,0.0,0.0,0.0,0.0,0.0,0.0,4.5297,4.6786,4.6278,0.0,0.0,0.0,0.0,0.0,0.0,0.0,0.0,0.0,0.0,0.0,0.0,0.0,0.0,0.0,0.0,0.0,0.0,0.0,0.0,0.0,0.0,0.0,0.0,4.5933,5.0421,0.0,6.0326,6.4066,6.8315,7.0709,7.1607,6.9842,6.5054,5.8999,5.196,4.6224,4.0814,3.5927,3.4525,3.3972,3.342,3.3495,3.4073,3.5328,3.5554,3.7086,4.153,4.2635,4.4744,0.0,0.0,0.0,0.0,0.0,0.0,0.0,0.0,0.0,0.0,4.1172,4.1172,4.1172,4.1172,4.1172,4.1172,4.1172,4.0957,4.0527,4.0527,4.0059,3.9199,3.9199,3.8906,3.8214,0.0,0.0,0.0,2.8811,2.6643,2.4636,2.4636,2.4636,2.4623,2.4543,2.4329,2.4035,0.0,0.0,0.0,0.0,0.0,0.0,4.8893,5.161,5.4069,5.6492,5.6879,5.6876,5.6768,5.1322,4.8224,4.9703,4.5776,0.0,0.0,0.0,0.0,0.0,0.0,0.0,0.0,0.0,4.5297,4.6786,4.6786,4.753,4.8984,0.0,0.0,0.0,0.0,0.0,0.0,0.0,0.0,0.0,0.0,0.0,0.0,0.0,0.0,0.0,0.0,0.0,0.0,0.0,0.0,0.0,0.0,4.2479,4.3748,5.0361,5.6496,6.1852,6.5173,6.7986,6.9692,6.8315,6.4006,5.8288,5.1307,4.6097,4.1387,3.6514,3.5102,3.455,3.3997,3.3445,3.3621,3.5278,3.5554,3.7086,4.153,4.2635,0.0,0.0,0.0,0.0,0.0,0.0,0.0,0.0,0.0,0.0,0.0,4.1172,4.1172,4.1172,4.1172,4.1172,4.1172,4.1172,4.0957,4.0527,4.0527,4.0059,3.9199,3.9199,3.873,0.0,0.0,0.0,0.0,2.8704,2.6643,2.4636,2.4636,2.4636,2.4596,2.4315,2.4022,2.3728,0.0,0.0,0.0,0.0,0.0,0.0,0.0,4.8636,5.0729,5.3188,5.3529,5.3741,5.4283,5.1098,4.9161,4.9784,4.6193,0.0,0.0,0.0,0.0,0.0,0.0,0.0,0.0,0.0,4.5568,4.7564,4.7056,4.7564,4.9018,4.9018,4.8748,0.0,0.0,0.0,0.0,0.0,0.0,0.0,0.0,0.0,0.0,0.0,0.0,0.0,0.0,0.0,0.0,0.0,0.0,0.0,0.0,0.0,0.0,4.4736,5.0002,5.5628,5.8501,6.1224,6.278,6.0984,5.7932,5.3959,4.8368,4.4494,4.0723,3.5953,3.4851,3.4449,3.3495,3.3194,3.3621,3.5278,3.5554,3.6558,0.0,0.0,0.0,0.0,0.0,0.0,0.0,0.0,0.0,0.0,0.0,0.0,0.0,4.1172,4.1172,4.1172,4.1172,4.1172,4.1172,4.1172,4.082,4.0098,4.0098,3.9629,3.8769,3.8457,0.0,0.0,0.0,0.0,0.0,3.0447,2.8434,2.6502,2.5065,2.4516,2.4329,2.4235,2.3888,2.3447,0.0,0.0,0.0,0.0,0.0,0.0,0.0,4.6801,4.8416,4.9958,5.0435,5.1132,5.2601,5.0251,4.9142,5.0526,4.7643,0.0,0.0,0.0,0.0,0.0,0.0,0.0,0.0,4.4857,4.6109,4.8342,4.8139,4.8781,5.027,5.027,4.9695,4.8748,4.9221,0.0,0.0,0.0,0.0,0.0,0.0,0.0,4.3438,0.0,0.0,0.0,0.0,0.0,0.0,0.0,0.0,0.0,0.0,0.0,0.0,0.0,4.4885,4.9344,5.3234,5.6226,5.7932,5.6705,5.4401,5.1136,4.626,4.3176,4.015,3.5647,3.4726,3.4449,3.3545,3.3219,3.347,3.4726,3.5102,3.6006,3.8241,0.0,0.0,0.0,0.0,0.0,0.0,0.0,0.0,0.0,0.0,0.0,0.0,0.0,4.1172,4.1172,4.1172,4.1172,4.1172,4.1016,4.0586,3.9883,3.9551,3.9023,3.832,3.7891,0.0,0.0,0.0,0.0,0.0,3.1982,2.99,2.7346,2.6082,2.4925,2.4182,2.3955,2.3634,2.3313,0.0,0.0,0.0,0.0,0.0,0.0,0.0,4.5957,4.691,4.691,4.7609,4.893,5.1316,4.8857,4.8306,5.1536,0.0,0.0,0.0,0.0,0.0,0.0,0.0,0.0,4.4587,4.5331,4.6786,4.9018,4.9729,5.0845,5.23,5.23,5.1522,5.0101,5.0101,4.9695,0.0,0.0,0.0,0.0,0.0,0.0,0.0,0.0,0.0,0.0,0.0,0.0,0.0,0.0,0.0,0.0,0.0,0.0,0.0,0.0,0.0,0.0,0.0,5.2396,5.4401,5.4311,5.2456,4.939,4.4733,4.2119,0.0,3.5494,3.4675,3.45,3.3997,3.3445,3.3294,3.3922,3.4474,3.5579,0.0,0.0,0.0,0.0,0.0,0.0,0.0,0.0,0.0,0.0,0.0,0.0,0.0,0.0,4.1327,4.1172,4.1152,4.1133,4.1133,4.0723,4.0293,3.9844,3.8984,3.834,3.791,3.7461,0.0,0.0,0.0,0.0,0.0,3.3309,3.1051,2.7894,2.7244,2.5855,2.4246,2.3541,2.3313,2.3247,0.0,0.0,0.0,0.0,0.0,0.0,0.0,0.0,0.0,0.0,4.5443,4.5993,4.7205,4.6654,4.7241,0.0,0.0,0.0,0.0,0.0,0.0,0.0,0.0,0.0,4.4587,4.5331,4.6786,4.9018,4.9729,5.0845,5.23,5.23,5.1522,5.0101,5.0101,4.9695,0.0,0.0,0.0,0.0,0.0,0.0,0.0,0.0,0.0,0.0,4.3329,4.324,0.0,0.0,0.0,0.0,0.0,0.0,0.0,0.0,4.0217,4.1175,4.2551,0.0,4.6621,4.5633,4.5274,4.4275,0.0,3.9778,0.0,0.0,0.0,3.4048,3.3922,3.3445,3.3545,3.4926,3.5629,3.6458,3.7814,0.0,0.0,0.0,0.0,0.0,0.0,0.0,0.0,0.0,0.0,0.0,0.0,0.0,4.279,4.1172,4.084,4.0684,4.0684,4.0586,4.0137,3.9355,3.8828,3.834,3.791,3.7148,0.0,0.0,0.0,0.0,3.5158,3.3743,3.2595,3.158,2.8224,2.655,2.5877,2.3995,2.318,2.2966,0.0,0.0,0.0,0.0,0.0,0.0,0.0,0.0,0.0,0.0,0.0,4.5149,4.6324,4.6471,0.0,0.0,0.0,0.0,0.0,0.0,0.0,0.0,0.0,4.4587,4.4587,4.5635,4.7293,4.9492,5.0574,5.186,5.3348,5.301,5.2063,5.0574,4.9898,4.9187,0.0,0.0,0.0,0.0,4.6551,0.0,0.0,0.0,0.0,0.0,4.3488,4.294,0.0,4.2312,4.1474,4.0457,0.0,0.0,0.0,0.0,3.9679,3.9948,3.9948,4.1654,4.324,4.2521,4.2297,4.1499,3.9173,3.8194,0.0,0.0,0.0,3.3822,3.3571,3.3495,3.3822,3.4977,3.583,3.7287,0.0,0.0,0.0,0.0,0.0,0.0,0.0,0.0,0.0,0.0,0.0,0.0,0.0,0.0,4.3248,4.1877,4.0788,4.0332,4.0527,4.0117,3.957,3.8906,3.8281,3.7754,3.7324,3.668,3.6269,0.0,0.0,0.0,3.5296,3.4505,3.3632,3.2301,2.9968,2.8333,2.732,2.6057,2.4882,2.406,0.0,0.0,0.0,0.0,0.0,0.0,0.0,0.0,0.0,0.0,0.0,0.0,0.0,0.0,0.0,0.0,0.0,0.0,0.0,0.0,0.0,0.0,4.4654,4.4621,4.4756,4.6075,4.7834,4.9932,5.1522,5.301,5.4397,5.3923,5.2807,5.115,4.9796,4.8714,0.0,0.0,0.0,0.0,4.6766,0.0,0.0,0.0,0.0,0.0,0.0,0.0,0.0,4.2581,4.1414,3.9738,4.0756,0.0,0.0,0.0,0.0,0.0,3.9679,4.1085,4.2402,4.2013,4.1303,4.0285,3.8308,3.7121,0.0,0.0,0.0,0.0,0.0,0.0,0.0,0.0,0.0,0.0,0.0,0.0,0.0,0.0,0.0,0.0,0.0,0.0,0.0,0.0,0.0,0.0,0.0,0.0,4.3299,4.246,4.0652,3.9766,4.0117,3.9453,3.8867,3.8379,3.7578,3.6973,3.6562,3.6133,3.5684,0.0,0.0,0.0,3.4726,3.5137,3.4089,3.2229,3.1679,3.0443,2.8927,2.8031,2.6839,2.5517,0.0,0.0,0.0,0.0,0.0,0.0,0.0,0.0,0.0,0.0,0.0,0.0,0.0,0.0,0.0,0.0,0.0,0.0,0.0,0.0,0.0,4.5568,4.4925,4.4891,4.5534,4.6346,4.7564,4.9187,5.1285,5.2773,5.3687,5.4194,5.3281,5.1183,5.0304,4.9187,4.797,4.8714,4.8511,4.7767,4.7686,0.0,0.0,0.0,0.0,0.0,0.0,0.0,0.0,4.1145,4.0576,4.0187,3.9828,0.0,0.0,0.0,0.0,0.0,4.0786,4.2102,4.2641,4.0427,4.0129,3.9782,3.7102,3.6408,0.0,0.0,0.0,0.0,0.0,0.0,0.0,0.0,0.0,0.0,0.0,0.0,0.0,0.0,0.0,0.0,0.0,0.0,0.0,0.0,0.0,0.0,0.0,0.0,4.3905,4.2144,3.957,3.8262,3.832,3.8555,3.8281,3.748,3.7012,3.6543,3.6094,3.5684,3.5234,0.0,0.0,3.4824,3.4707,3.4766,3.4634,3.4104,3.2206,3.1253,3.054,2.7099,2.5771,2.5248,0.0,0.0,0.0,0.0,0.0,0.0,0.0,0.0,0.0,0.0,0.0,0.0,0.0,0.0,0.0,0.0,0.0,0.0,0.0,0.0,4.6819,4.6887,4.6177,4.5737,4.5703,4.6819,4.8511,5.0777,5.2638,5.4329,5.5852,5.46,5.2807,5.0574,4.983,4.8917,4.7936,4.8274,4.824,4.7902,0.0,0.0,0.0,0.0,0.0,0.0,0.0,0.0,0.0,0.0,4.0457,3.9888,3.9918,0.0,0.0,0.0,0.0,0.0,4.0157,4.1025,4.1534,4.0696,4.1092,4.0953,3.8308,0.0,0.0,0.0,0.0,0.0,0.0,0.0,0.0,0.0,0.0,0.0,0.0,0.0,0.0,0.0,0.0,0.0,0.0,0.0,0.0,0.0,0.0,0.0,0.0,0.0,4.4041,4.2805,3.9414,3.7363,3.6894,3.709,3.7109,3.6953,3.6523,3.6094,3.5664,3.5215,3.4785,3.4375,0.0,3.4434,3.4023,3.4258,3.4219,3.3856,3.2872,3.1857,3.0633,2.6886,2.5517,2.5248,0.0,0.0,0.0,0.0,0.0,0.0,0.0,0.0,0.0,0.0,0.0,0.0,0.0,0.0,0.0,0.0,0.0,0.0,0.0,4.7541,4.7056,4.7631,4.7259,4.6955,4.6752,4.8037,5.0067,5.2841,5.4702,5.6393,5.7814,5.5243,5.2706,5.0338,4.9593,4.8748,4.7936,4.8105,4.8071,4.7868,0.0,0.0,0.0,0.0,0.0,0.0,0.0,0.0,0.0,0.0,0.0,0.0,0.0,0.0,0.0,3.9409,3.9409,3.9499,3.9798,4.0367,4.0965,4.1474,4.1912,4.1753,4.0407,0.0,0.0,0.0,0.0,0.0,0.0,0.0,0.0,0.0,0.0,0.0,0.0,0.0,0.0,0.0,0.0,0.0,0.0,0.0,0.0,0.0,0.0,0.0,0.0,0.0,4.4207,4.3708,4.0045,3.7718,3.7031,3.6529,3.6265,3.6211,3.5879,3.5488,3.5078,3.4707,3.4316,3.3945,3.4258,3.4023,3.3437,3.3672,3.3633,3.3418,3.332,3.2016,2.9865,2.6706,2.5248,2.4723,0.0,0.0,0.0,0.0,0.0,0.0,0.0,0.0,0.0,0.0,0.0,0.0,0.0,0.0,0.0,0.0,0.0,0.0,0.0,4.7541,4.6819,4.6887,4.7496,4.8443,4.9729,5.0574,5.2097,5.4431,5.7306,5.8423,5.7848,5.6292,5.3991,5.1116,5.0338,4.9221,4.797,4.8646,4.8545,4.7868,4.709,0.0,0.0,0.0,0.0,0.0,0.0,0.0,0.0,0.0,0.0,0.0,0.0,0.0,3.9409,3.9409,3.9409,3.9679,4.0905,4.1713,4.2299,4.2359,4.1474,0.0,4.2878,4.2365,0.0,0.0,0.0,0.0,0.0,0.0,0.0,0.0,0.0,0.0,0.0,0.0,0.0,0.0,0.0,0.0,0.0,0.0,0.0,0.0,0.0,0.0,0.0,0.0,0.0,4.4507,4.1602,4.0024,3.9958,3.8018,3.633,3.4844,3.4805,3.457,3.416,3.4141,3.3887,3.3476,3.3496,3.3476,3.3398,3.3027,3.3105,3.3379,3.2988,3.0992,2.8163,2.6172,2.4452,2.3133,0.0,0.0,0.0,0.0,0.0,0.0,0.0,0.0,0.0,0.0,0.0,0.0,0.0,0.0,0.0,0.0,0.0,0.0,0.0,4.7159,4.7113,4.8105,4.8443,4.9289,5.0744,5.2909,5.5581,5.8761,6.0351,6.0013,5.7848,5.5919,5.3416,5.0473,4.9763,4.912,4.8578,4.8409,4.8443,4.8545,4.78,4.8105,0.0,0.0,0.0,0.0,0.0,0.0,0.0,0.0,3.9409,3.9409,3.9409,3.9409,3.9409,3.9409,3.9409,3.9529,4.0038,4.0935,4.1863,4.2252,4.1983,0.0,0.0,0.0,0.0,0.0,0.0,0.0,0.0,0.0,0.0,0.0,0.0,0.0,0.0,0.0,0.0,0.0,0.0,0.0,0.0,0.0,0.0,0.0,0.0,0.0,0.0,0.0,0.0,4.404,4.124,3.969,3.94,3.7609,3.6268,3.535,3.4675,3.4219,3.4062,3.3789,3.3437,3.3027,3.3027,3.3027,3.3027,3.2851,3.3047,3.3146,3.0901,2.9223,2.79,2.4993,2.3529,2.2859,0.0,0.0,0.0,0.0,0.0,0.0,0.0,0.0,0.0,0.0,0.0,0.0,0.0,0.0,0.0,0.0,0.0,0.0,4.7227,4.6656,4.6794,4.7902,4.8409,4.956,5.1522,5.4499,5.7543,6.0588,6.2042,6.096,5.7509,5.5513,5.3112,5.0405,4.9424,4.912,4.9289,4.8578,4.8545,4.8951,4.8206,4.8206,0.0,0.0,0.0,0.0,0.0,0.0,0.0,0.0,3.9409,3.9409,3.9409,3.9409,3.9409,3.9409,3.926,3.908,3.908,3.9738,4.0606,4.1265,0.0,0.0,4.5727,4.7102,4.7811,0.0,0.0,0.0,0.0,0.0,0.0,0.0,0.0,0.0,0.0,0.0,0.0,0.0,0.0,0.0,0.0,0.0,0.0,0.0,0.0,0.0,0.0,0.0,0.0,0.0,4.2084,4.0755,4.0429,3.8685,3.7349,3.6539,3.5148,3.4219,3.3848,3.3418,3.3066,3.2793,3.2656,3.2598,3.2598,3.2598,3.2584,3.2049,2.9309,2.7981,2.7146,2.4078,2.3006,2.3006,0.0,0.0,0.0,0.0,0.0,0.0,0.0,0.0,0.0,0.0,0.0,0.0,0.0,0.0,0.0,0.0,0.0,0.0,4.6365,4.5937,4.5703,4.5703,4.7124,4.9289,5.2198,5.5209,5.7509,5.9032,6.2009,6.1163,5.6731,5.5277,5.3348,5.115,4.9661,4.939,5.0033,4.9323,4.9018,4.8951,4.8206,4.7936,4.7834,0.0,0.0,0.0,0.0,0.0,0.0,0.0,3.9409,3.9409,3.9409,3.9409,3.9409,3.9409,3.8931,3.8392,3.8392,3.8422,0.0,0.0,0.0,0.0,0.0,5.0272,5.1001,5.3588,0.0,0.0,0.0,0.0,0.0,0.0,0.0,0.0,0.0,0.0,0.0,0.0,0.0,0.0,0.0,0.0,0.0,0.0,0.0,0.0,0.0,0.0,0.0,0.0,4.4392,4.379,4.379,4.1686,3.9756,3.8201,3.6187,3.4534,3.3398,3.2988,3.2793,3.2754,3.2344,3.2168,3.2168,3.2168,3.1399,3.0103,2.8685,2.7328,2.5736,2.3997,2.3327,2.3327,0.0,0.0,0.0,0.0,0.0,0.0,0.0,0.0,0.0,0.0,0.0,0.0,0.0,0.0,0.0,0.0,0.0,0.0,4.5815,4.5632,4.5617,4.5669,4.6616,4.753,4.8409,5.186,5.5919,6.0622,6.0452,5.8355,5.4465,5.345,5.1792,4.9661,4.9729,4.9593,4.9323,4.9086,4.9018,4.8984,4.8781,4.868,4.8612,0.0,0.0,0.0,0.0,0.0,0.0,0.0,0.0,0.0,3.9409,3.9409,3.9409,3.9409,3.926,3.911,3.911,3.9798,0.0,0.0,0.0,0.0,0.0,5.1259,0.0,0.0,0.0,0.0,0.0,0.0,0.0,0.0,0.0,0.0,0.0,0.0,0.0,0.0,0.0,0.0,0.0,0.0,0.0,0.0,0.0,0.0,0.0,0.0,0.0,0.0,4.3589,4.3212,4.3212,4.1128,3.9817,3.9335,3.6143,3.4083,3.2969,3.2539,3.2187,3.1894,3.1758,3.1719,3.1638,3.1076,2.9994,2.8669,2.6925,2.5981,2.5396,2.3667,2.3006,2.3006,0.0,0.0,0.0,0.0,0.0,0.0,0.0,0.0,0.0,0.0,5.1977,5.1683,0.0,0.0,0.0,0.0,0.0,0.0,0.0,4.5267,4.5166,4.5229,4.5669,4.6346,4.7225,5.027,5.3518,5.6833,5.7408,5.5953,5.2604,5.2739,5.1758,4.9932,5.0642,5.0574,4.9864,4.956,4.9255,4.9018,4.9018,4.8815,4.8511,0.0,0.0,0.0,0.0,0.0,0.0,0.0,0.0,0.0,3.9409,3.9409,3.9409,3.9409,3.905,3.8661,3.8931,0.0,0.0,0.0,0.0,0.0,0.0,0.0,0.0,0.0,0.0,0.0,0.0,0.0,0.0,0.0,0.0,0.0,0.0,0.0,0.0,0.0,0.0,0.0,0.0,0.0,0.0,0.0,0.0,0.0,0.0,0.0,0.0,0.0,4.2936,4.2559,4.2333,4.1053,4.0081,3.9386,3.6449,3.4433,3.3075,3.2253,3.1758,3.1523,3.0768,3.0604,3.0569,2.9547,2.8353,2.6972,2.5905,2.5202,2.4516,2.3447,2.3046,2.3046,0.0,0.0,0.0,0.0,0.0,0.0,0.0,0.0,0.0,0.0,5.1756,5.1463,0.0,0.0,0.0,0.0,0.0,0.0,0.0,4.4906,4.4587,4.4587,4.4654,4.5669,4.7767,4.9796,5.0473,4.9796,5.3416,5.3754,5.1048,5.257,5.2536,5.115,5.1961,5.186,5.1082,5.0304,4.9593,4.9018,4.9018,4.8612,4.8003,4.7868,0.0,0.0,0.0,0.0,0.0,0.0,0.0,0.0,3.9409,3.9409,3.9409,3.9409,3.8542,3.7734,3.8452,0.0,0.0,0.0,0.0,0.0,0.0,0.0,0.0,0.0,0.0,0.0,0.0,0.0,0.0,0.0,0.0,0.0,0.0,0.0,0.0,0.0,0.0,0.0,0.0,0.0,0.0,0.0,0.0,0.0,0.0,0.0,0.0,0.0,4.2333,4.1831,4.1354,4.1279,4.0449,0.0,3.6969,3.5172,3.3571,3.2135,3.1365,3.1146,2.9646,2.9011,2.8922,2.771,2.6493,2.5248,2.5248,2.4502,2.3287,2.3287,2.3287,2.3287,0.0,0.0,0.0,0.0,0.0,0.0,0.0,0.0,0.0,0.0,0.0,0.0,0.0,0.0,0.0,0.0,0.0,0.0,0.0,4.4665,4.4587,4.4587,4.5128,4.5974,4.7022,4.7496,4.7665,4.7496,5.0067,5.0676,4.9526,5.1014,5.1217,5.0371,5.1725,5.1555,5.027,4.956,4.9154,4.9018,4.9018,4.8917,4.8646,4.7462,4.6819,0.0,0.0,0.0,0.0,0.0,0.0,0.0,3.9409,3.9409,3.9409,3.9409,3.923,3.923,0.0,0.0,0.0,0.0,0.0,0.0,0.0,0.0,0.0,0.0,0.0,0.0,0.0,0.0,0.0,0.0,0.0,0.0,0.0,0.0,0.0,0.0,0.0,0.0,0.0,0.0,0.0,0.0,0.0,0.0,0.0,0.0,0.0,4.1706,4.158,4.1455,4.1329,4.0902,3.9907,0.0,3.6443,3.4668,3.3224,3.1676,3.0462,2.9386,2.9143,2.7912,2.5804,2.523,2.4466,2.3393,2.3393,2.3311,2.2966,2.2966,2.2966,2.2966,0.0,0.0,0.0,0.0,0.0,0.0,0.0,0.0,0.0,0.0,0.0,0.0,0.0,0.0,0.0,0.0,0.0,0.0,0.0,0.0,4.4756,4.5094,4.55,4.5872,4.6244,4.6278,4.6278,4.6278,4.7056,4.78,4.8511,4.9999,5.0473,5.0135,5.1623,5.1488,5.0067,4.9695,4.9323,4.9018,4.9018,4.9018,4.8917,4.8139,4.7631,4.7225,4.6447,0.0,0.0,0.0,0.0,0.0,0.0,0.0,3.9409,3.9409,3.92,3.92,0.0,0.0,0.0,0.0,0.0,0.0,0.0,0.0,0.0,0.0,0.0,0.0,0.0,0.0,0.0,0.0,0.0,0.0,0.0,0.0,0.0,0.0,0.0,0.0,0.0,0.0,0.0,0.0,0.0,0.0,0.0,4.1329,4.1229,4.0953,4.0953,4.0827,4.0551,4.0275,3.934,3.7881,3.6168,3.4202,3.1977,3.047,2.9287,2.8612,2.7204,2.5881,2.4446,2.3679,2.3153,2.2659,2.2806,2.2859,2.2859,2.2859,2.2859,2.2859,0.0,0.0,0.0,0.0,0.0,0.0,0.0,0.0,0.0,0.0,0.0,0.0,0.0,0.0,0.0,0.0,0.0,0.0,0.0,0.0,0.0,4.5669,4.5703,4.5771,4.5906,4.5771,4.5703,4.5703,4.4959,4.5737,4.7936,4.9289,4.9965,5.0135,5.1522,5.1352,5.0067,4.9965,4.956,4.9018,4.9018,4.8917,4.8815,4.8815,4.8274,4.7564,4.7665,4.5682,4.2943,4.3199,0.0,0.0,0.0,0.0,3.9589,3.9589,3.911,3.8871,0.0,0.0,0.0,0.0,0.0,0.0,0.0,0.0,0.0,0.0,0.0,0.0,0.0,0.0,0.0,0.0,0.0,0.0,0.0,0.0,0.0,0.0,0.0,0.0,0.0,0.0,0.0,0.0,0.0,0.0,4.1053,4.1053,4.0852,4.04,4.0375,4.0149,3.9697,3.9465,3.8582,3.7133,3.5398,3.3212,3.0879,2.892,2.7966,2.7917,2.5172,2.3843,2.3548,2.2654,2.2338,2.2378,2.2672,2.2752,2.2712,2.2712,2.2712,2.2726,0.0,0.0,0.0,0.0,0.0,0.0,0.0,0.0,0.0,0.0,4.8489,0.0,0.0,0.0,0.0,0.0,0.0,0.0,4.4609,0.0,0.0,4.5669,4.5703,4.6007,4.6616,4.6041,4.5703,4.5703,4.4959,4.5737,4.7936,4.8781,4.9492,5.0135,5.098,5.0879,5.0067,4.9424,4.9086,4.9018,4.9018,4.8612,4.8071,4.8071,4.7192,4.6075,4.6718,4.4859,4.2301,4.3549,4.2288,0.0,0.0,0.0,4.0277,4.0277,3.9798,3.9559,0.0,0.0,0.0,0.0,0.0,0.0,0.0,0.0,0.0,0.0,0.0,0.0,0.0,0.0,0.0,0.0,0.0,0.0,0.0,0.0,0.0,0.0,0.0,0.0,0.0,0.0,0.0,0.0,0.0,0.0,3.9923,3.9923,3.9873,3.9798,3.9798,3.9772,3.9697,3.8453,3.7026,3.5508,3.2758,3.1344,3.0762,2.7692,2.6394,2.657,2.489,2.3464,2.2318,2.2136,2.2044,2.2071,2.2365,2.2325,2.2098,2.2098,2.2098,2.2138,0.0,0.0,0.0,0.0,0.0,0.0,0.0,0.0,0.0,0.0,0.0,4.8153,0.0,0.0,0.0,4.5965,4.5648,4.5214,4.4609,4.4587,4.4925,4.5669,4.5297,4.5432,4.6177,4.5466,4.506,4.506,4.4756,4.5737,4.7936,4.824,4.9018,5.0101,4.9999,4.9796,4.9458,4.9154,4.9018,4.9018,4.9018,4.8308,4.7361,4.8206,4.7597,4.6481,4.7631,4.6182,4.384,4.4096,4.2482,4.0397,4.0307,0.0,0.0,0.0,3.9379,0.0,0.0,0.0,0.0,0.0,0.0,0.0,0.0,0.0,0.0,0.0,0.0,0.0,0.0,0.0,0.0,0.0,0.0,0.0,0.0,0.0,0.0,0.0,0.0,0.0,0.0,0.0,0.0,0.0,0.0,3.9697,3.9697,3.9697,3.9697,3.9697,3.9697,3.9697,3.9697,3.8243,3.6379,3.4069,3.1883,3.0898,3.0762,2.7452,2.6067,2.6093,2.3518,2.2129,2.151,2.167,2.175,2.1777,2.2058,2.2098,2.1991,2.1991,2.2084,2.2245,0.0,0.0,0.0,0.0,0.0,0.0,0.0,0.0,0.0,0.0,0.0,0.0,0.0,0.0,0.0,0.0,4.585,4.5425,4.4609,4.4587,4.4823,4.5399,4.4891,4.4857,4.5399,4.4857,4.4587,4.4587,4.4587,4.5805,4.8206,4.8003,4.8917,5.0608,4.9695,4.9187,4.9018,4.9018,4.9018,4.8984,4.8578,4.7665,4.6616,4.753,4.6955,4.5872,4.7564,4.638,4.4129,4.4161,4.2482,4.0337,4.0008,3.9798,0.0,0.0,0.0,0.0,0.0,0.0,0.0,0.0,0.0,0.0,0.0,0.0,0.0,0.0,0.0,0.0,0.0,0.0,0.0,0.0,0.0,0.0,0.0,0.0,0.0,0.0,0.0,0.0,0.0,0.0,0.0,0.0,0.0,3.9697,3.9697,3.9572,3.9546,3.9697,3.9546,3.934,3.9129,3.737,3.5046,3.253,3.1441,3.0898,3.0762,2.7931,2.6349,2.5863,2.2577,2.1109,2.1136,2.143,2.151,2.147,2.1764,2.183,2.1764,2.1764,2.1897,2.2111,0.0,0.0,0.0,0.0,0.0,0.0,0.0,0.0,0.0,0.0,0.0,0.0,4.8267,4.8267,4.7995,4.7342,4.6728,4.5865,4.4665,4.4587,4.4587,4.4654,4.4587,0.0,4.4654,4.4587,4.4587,4.4587,4.4587,4.6075,4.8951,4.824,4.9458,5.2131,5.0676,4.9661,4.9018,4.9018,4.9018,4.8883,4.7462,4.6447,4.5703,4.506,4.3842,4.2828,4.506,0.0,0.0,0.0,4.2412,4.0487,4.1085,4.0846,4.0337,0.0,0.0,0.0,0.0,0.0,0.0,0.0,0.0,0.0,0.0,0.0,0.0,0.0,0.0,0.0,0.0,0.0,0.0,0.0,0.0,0.0,0.0,0.0,0.0,0.0,0.0,0.0,0.0,0.0,0.0,0.0,0.0,3.9697,3.9697,3.9195,3.9145,3.9672,3.9195,3.8506,3.7583,3.4714,3.253,3.0995,3.0879,3.0898,3.0898,2.9039,2.7434,2.5863,2.2577,2.1109,2.1136,2.143,2.139,2.1162,2.1456,2.1403,2.1149,2.1149,2.1162,2.1256,0.0,0.0,0.0,0.0,0.0,0.0,0.0,0.0,0.0,0.0,0.0,0.0,0.0,4.8306,4.8075,4.7428,4.6448,4.5442,4.4665,4.4587,4.4587,4.4587,4.4587,4.4587,4.4587,4.4587,4.4587,4.4587,4.4587,4.5602,4.7597,4.78,4.8984,5.0845,5.0338,4.9932,4.9661,4.9187,4.9018,4.8917,4.7902,4.6515,4.5026,4.5229,4.435,0.0,0.0,0.0,0.0,0.0,0.0,4.1107,4.0377,3.9948,3.9679,3.923,3.8068,0.0,0.0,0.0,0.0,0.0,0.0,0.0,0.0,0.0,0.0,0.0,0.0,0.0,0.0,0.0,0.0,0.0,0.0,0.0,0.0,0.0,0.0,0.0,0.0,0.0,0.0,0.0,0.0,0.0,0.0,0.0,3.9697,3.917,3.8969,3.917,3.8617,3.7234,3.5198,3.3442,3.184,3.0059,3.0625,3.0742,3.0449,2.9028,2.8051,2.7434,2.5253,2.3062,2.1122,2.1229,2.1203,2.1122,2.1229,2.1203,2.1109,2.1109,2.1229,2.1456,0.0,0.0,0.0,0.0,0.0,0.0,0.0,0.0,0.0,4.8746,0.0,0.0,0.0,0.0,4.8287,4.7168,4.6305,4.5477,4.4665,4.4587,4.4587,4.4587,4.4587,4.4587,4.4587,4.4587,4.4587,4.4587,4.4587,4.5331,4.6819,4.7293,4.8443,5.0067,4.983,4.9864,5.0067,4.956,0.0,4.8883,4.7665,4.6447,4.5297,0.0,0.0,0.0,0.0,0.0,0.0,0.0,0.0,4.0824,3.9757,3.926,3.8901,3.8003,3.6752,3.5754,3.6216,0.0,0.0,0.0,0.0,0.0,0.0,0.0,0.0,0.0,0.0,0.0,0.0,0.0,0.0,0.0,0.0,0.0,0.0,0.0,0.0,0.0,0.0,0.0,0.0,0.0,0.0,0.0,0.0,0.0,3.912,3.8592,3.8316,3.8316,3.7167,3.5703,3.381,3.2205,3.0812,2.957,3.0176,3.0293,3.0,2.92,2.8572,2.811,2.7021,2.514,2.2702,2.2215,2.1978,2.1853,2.1362,2.1109,2.1109,2.1109,2.1229,2.1456,0.0,0.0,0.0,0.0,0.0,0.0,0.0,0.0,4.9627,4.9627,0.0,0.0,0.0,0.0,0.0,4.6649,4.6448,4.59,4.4665,4.4587,4.4587,4.4587,4.4587,4.4587,4.4587,4.4587,4.4587,4.4587,4.4587,4.5297,4.6718,4.6752,4.7902,4.9965,4.9289,4.9357,5.0033,5.0067,4.9661,4.8815,0.0,4.6177,4.6515,0.0,0.0,0.0,4.4587,4.4097,0.0,0.0,0.0,3.972,3.9485,3.896,3.8153,3.6896,3.5839,3.5033,0.0,0.0,0.0,0.0,0.0,0.0,0.0,0.0,0.0,0.0,0.0,0.0,0.0,0.0,0.0,0.0,0.0,0.0,0.0,0.0,0.0,0.0,0.0,0.0,0.0,0.0,0.0,0.0,0.0,3.8015,3.8015,3.7487,3.7161,3.7161,3.4862,3.3659,3.3659,3.0929,2.9551,2.9531,2.9551,2.957,2.9551,2.957,2.8975,2.7813,2.7813,2.7204,2.5968,2.4286,2.3698,2.345,2.1853,2.1109,2.1109,2.1109,2.1122,2.1203,0.0,0.0,0.0,0.0,0.0,0.0,5.1573,5.0986,5.0472,0.0,0.0,0.0,5.0472,5.0472,4.9622,4.7512,4.7346,4.6545,4.4699,4.4587,4.4587,4.4587,4.4587,4.4587,4.4587,4.4587,4.4587,4.4587,4.4587,4.479,4.5196,4.5737,4.6616,4.7733,4.8071,4.8342,4.8545,4.9086,0.0,4.8917,4.7767,4.6786,0.0,0.0,0.0,0.0,0.0,4.5149,0.0,0.0,4.3493,4.1873,0.0,3.896,3.8332,3.7973,3.6516,3.5033,3.5033,0.0,0.0,0.0,0.0,0.0,0.0,0.0,0.0,0.0,0.0,0.0,0.0,0.0,0.0,0.0,0.0,0.0,0.0,0.0,0.0,0.0,0.0,0.0,0.0,0.0,0.0,0.0,3.809,3.8015,3.8015,3.6554,3.5574,3.5211,3.2667,3.1313,3.1313,2.9776,2.8945,2.8652,2.9277,2.9394,2.9101,2.9434,2.9405,2.905,2.905,2.9032,2.8849,2.6352,2.4655,2.3574,2.3076,2.2215,2.1109,2.1109,2.1243,2.1483,0.0,0.0,0.0,0.0,0.0,5.1867,5.1977,5.1903,5.1683,0.0,0.0,0.0,5.1353,5.161,5.0946,4.8744,4.8306,4.7538,4.5994,4.5422,4.506,4.506,4.4756,4.4587,4.4587,4.4587,4.4587,4.4587,4.4587,4.4587,4.4587,4.5026,4.5635,4.6346,4.6786,4.7158,4.7462,4.7902,0.0,0.0,4.7733,0.0,0.0,4.6244,4.6177,0.0,0.0,0.0,4.7038,4.5512,4.375,0.0,0.0,0.0,0.0,3.7734,3.6369,3.4905,3.4646,3.4212,3.3521,0.0,0.0,0.0,3.3503,3.4535,0.0,0.0,0.0,0.0,0.0,0.0,0.0,0.0,0.0,0.0,0.0,0.0,0.0,0.0,0.0,0.0,0.0,0.0,0.0,3.7663,3.7437,3.7211,3.6985,3.5235,3.4125,3.3743,3.113,2.9845,3.0034,2.8986,2.8359,2.8301,2.8789,2.8906,2.8672,2.8926,2.9141,2.9297,2.9297,2.9531,2.9848,2.8363,2.6936,2.5513,2.4901,2.4039,2.3186,2.3186,2.3392,2.373,0.0,0.0,5.3497,5.2426,5.2858,5.3115,5.2491,5.2931,5.3115,0.0,5.3004,5.3188,5.2491,5.2968,5.2462,5.0254,4.9353,4.8604,4.7889,4.6567,4.5838,4.5838,4.5196,4.479,4.4688,4.4688,4.4654,4.4587,4.4587,4.4587,4.4587,4.4587,4.4925,4.5568,4.5568,4.594,4.6549,0.0,0.0,4.7631,4.7124,4.7699,0.0,0.0,4.8308,0.0,4.8173,4.797,4.768,4.5156,4.288,0.0,0.0,0.0,0.0,0.0,3.5937,3.5056,3.4351,3.4109,3.3716,0.0,0.0,0.0,3.1731,3.2802,3.3846,0.0,0.0,0.0,0.0,0.0,0.0,0.0,0.0,0.0,0.0,0.0,0.0,0.0,0.0,0.0,0.0,3.7236,3.691,3.691,3.6458,3.5956,3.5479,3.3639,3.2723,3.2723,3.01,2.8953,2.937,2.8241,2.7851,2.8223,2.8262,2.8301,2.8301,2.8301,2.8496,2.8848,2.8848,2.9101,2.9531,2.9941,2.9429,2.8235,2.6815,2.6106,2.5984,2.5984,2.6215,2.6579,0.0,5.3521,5.3831,5.3897,5.4069,5.4326,5.4803,5.4473,5.4326,5.4803,5.5023,5.506,5.4913,5.4473,5.3522,5.1891,5.0544,4.9203,4.7923,4.7045,4.6583,4.6583,4.6447,4.6075,4.55,4.55,4.5196,4.4587,4.4587,4.4587,4.4587,4.4587,4.4654,4.479,4.479,4.4857,4.4993,0.0,0.0,4.6244,4.7293,0.0,4.8105,4.797,4.8003,4.8105,4.797,4.8308,4.836,0.0,4.3522,4.2224,0.0,0.0,0.0,0.0,0.0,0.0,0.0,0.0,0.0,0.0,0.0,0.0,3.1307,3.0957,3.0931,0.0,0.0,0.0,0.0,0.0,0.0,0.0,0.0,0.0,0.0,0.0,0.0,0.0,0.0,0.0,0.0,3.5529,3.5203,3.5203,3.5102,3.5002,3.4876,3.2559,3.1281,3.1281,2.8765,2.7439,2.7538,2.7688,2.7715,2.7793,2.8125,2.8301,2.8301,2.8301,2.834,2.8418,2.8418,2.8652,2.9082,2.9512,2.9013,2.7858,2.7926,2.7194,2.5984,2.5984,2.6215,2.6405,5.367,5.3849,5.4239,5.464,5.504,5.5401,5.5544,5.5797,5.6029,5.6169,5.6528,5.6492,5.5684,5.5244,5.4386,5.2834,5.137,5.024,4.9486,4.8106,4.7361,4.7361,4.665,4.6075,4.5703,4.5331,4.4959,4.4587,4.4587,4.4587,4.4587,4.4587,4.4384,4.4012,4.4418,4.435,0.0,0.0,4.5026,4.5805,4.6921,0.0,4.797,4.8308,4.8477,4.8477,4.8477,4.8477,4.8091,4.5666,4.4334,0.0,0.0,3.9573,3.8835,0.0,3.6956,3.6327,0.0,0.0,0.0,3.4109,0.0,0.0,0.0,3.0495,2.9955,0.0,0.0,0.0,0.0,0.0,0.0,0.0,0.0,0.0,0.0,0.0,0.0,0.0,0.0,0.0,0.0,3.4625,3.4299,3.4299,3.4048,3.3897,3.3897,3.186,3.0331,2.9777,2.8145,2.7162,2.6699,2.7129,2.7461,2.7676,2.8086,2.8301,2.8301,2.8301,2.8301,2.8301,2.8301,2.8418,2.8633,2.9062,2.9026,2.8784,2.9404,2.9157,2.8426,2.8426,2.8679,2.8882,5.4244,5.4363,5.4716,5.5098,5.5847,5.6329,5.5981,5.6829,5.732,5.6875,5.7483,5.7519,5.6198,5.5794,5.5244,5.4436,5.2342,5.1276,5.1776,4.9504,4.8022,4.7936,4.6921,4.6143,4.5703,4.5263,4.4857,4.4587,4.4587,4.4654,4.479,4.4654,4.4316,4.3876,4.4215,4.4079,0.0,0.0,0.0,4.5568,0.0,4.7158,4.7767,4.8511,4.8781,4.8815,4.8951,4.8545,4.7646,4.6072,0.0,4.3768,4.1494,4.0275,0.0,0.0,0.0,0.0,0.0,0.0,0.0,0.0,0.0,3.2803,0.0,0.0,0.0,2.9856,0.0,0.0,0.0,0.0,0.0,0.0,0.0,0.0,0.0,0.0,0.0,0.0,0.0,0.0,0.0,3.3796,3.342,3.342,3.2993,3.2792,3.2893,3.121,2.9846,2.9171,2.8212,2.7398,2.6646,2.7141,2.7373,2.7539,2.8047,2.8301,2.8301,2.8301,2.8301,2.8301,2.8301,2.8301,2.832,2.875,2.918,2.9648,3.0449,3.082,3.0898,3.0898,3.1113,3.1406,5.5071,5.5004,5.5142,5.5578,5.6271,5.6922,5.7183,5.737,5.732,5.6875,5.7483,5.7923,5.774,5.6455,5.6381,5.8364,0.0,0.0,5.4117,0.0,4.8449,4.7902,4.8376,4.7733,4.5737,4.6244,4.5906,4.4587,4.4587,4.4925,4.5568,4.4891,4.4891,4.5399,4.4113,0.0,0.0,0.0,4.4012,0.0,4.6244,4.6853,0.0,4.7767,4.8037,4.8139,4.8781,4.8545,4.7646,0.0,4.4603,4.3108,0.0,4.0356,3.9501,0.0,0.0,0.0,0.0,0.0,0.0,0.0,3.5049,0.0,0.0,0.0,3.082,3.0011,0.0,0.0,0.0,0.0,0.0,0.0,0.0,0.0,0.0,0.0,0.0,0.0,0.0,0.0,0.0,0.0,3.1662,3.1662,3.1612,3.1788,3.229,3.0652,3.0091,3.0927,2.9307,2.8196,2.7473,2.8229,2.8106,2.709,2.791,2.8301,2.8301,2.8301,2.8301,2.8301,2.8301,2.8301,2.832,2.875,2.918,2.9609,3.0098,3.0527,3.0898,3.0898,3.0918,3.0957,5.547,5.4855,5.471,5.5873,5.592,5.6198,5.7264,5.8789,5.9448,5.8327,5.9318,5.9905,0.0,0.0,0.0,0.0,0.0,5.3598,0.0,0.0,4.9722,4.8578,4.8443,4.7936,4.7022,4.6447,4.5872,4.5229,4.5229,4.5162,4.506,4.5162,4.4925,4.4384,4.4181,0.0,4.391,0.0,0.0,0.0,0.0,0.0,0.0,4.7767,4.8274,4.797,4.8274,4.7902,4.7098,0.0,4.4934,0.0,0.0,0.0,0.0,0.0,0.0,0.0,0.0,0.0,0.0,0.0,0.0,0.0,0.0,0.0,3.1119,0.0,0.0,0.0,0.0,0.0,0.0,0.0,3.0733,0.0,0.0,0.0,0.0,0.0,0.0,0.0,0.0,0.0,0.0,0.0,0.0,3.1035,3.126,3.0844,3.0566,3.0295,3.015,2.9647,2.868,2.9524,2.971,2.9261,3.0172,3.0224,2.9513,2.9513,2.9513,2.9513,2.9513,2.9911,3.0639,3.083,3.1339,3.2038,3.2229,3.1687,3.0898,3.0898,3.0898,3.0898,5.5703,5.4795,5.4434,5.5887,5.5467,5.5455,5.7042,5.9091,6.0167,5.9318,0.0,0.0,6.1043,6.0015,0.0,0.0,0.0,5.6241,0.0,0.0,5.0587,0.0,0.0,0.0,0.0,4.665,4.6109,4.5703,4.5906,4.5737,4.5196,4.5534,4.5229,4.435,0.0,4.4282,4.3775,0.0,0.0,4.4654,4.5602,4.5906,4.594,4.7496,4.7902,4.7597,4.7597,4.7259,4.6684,4.594,4.5196,0.0,4.2756,0.0,0.0,0.0,0.0,0.0,3.5842,0.0,0.0,0.0,0.0,0.0,0.0,0.0,0.0,0.0,0.0,0.0,0.0,0.0,0.0,0.0,0.0,2.9902,0.0,0.0,0.0,0.0,0.0,0.0,0.0,0.0,0.0,0.0,0.0,3.0457,3.0608,3.0984,3.0877,3.0314,3.1062,3.0992,2.9852,3.0717,3.1027,3.0897,3.1726,3.1592,3.0824,3.0824,3.0824,3.0824,3.0824,3.1418,3.2331,3.2331,3.2913,3.381,3.381,3.3138,3.2113,3.2113,3.2113,3.2113,5.5703,5.5049,0.0,0.0,5.5028,5.503,5.67,5.7267,0.0,0.0,0.0,0.0,0.0,0.0,0.0,0.0,0.0,5.9943,5.9237,0.0,5.0594,0.0,0.0,0.0,0.0,0.0,4.7158,4.5703,4.6413,4.6752,4.6718,4.6007,4.6041,4.6616,4.5196,4.4553,4.4553,4.4553,4.4587,4.4722,4.6177,4.7597,4.8646,0.0,4.6244,4.6819,4.6819,0.0,0.0,4.594,4.5196,0.0,0.0,0.0,0.0,0.0,0.0,0.0,0.0,0.0,0.0,3.5818,0.0,0.0,0.0,0.0,3.2946,0.0,0.0,0.0,0.0,0.0,2.998,3.0532,3.0156,0.0,0.0,0.0,0.0,0.0,0.0,0.0,0.0,0.0,0.0,0.0,0.0,0.0,3.0583,3.0633,3.111,3.2081,3.2131,3.1871,3.1134,3.1565,3.153,3.0897,3.1292,3.1783,3.223,3.223,3.223,3.223,3.223,3.223,3.2331,3.2331,3.2913,3.381,3.381,3.4307,3.5178,3.5178,3.5178,3.5178,0.0,5.5049,0.0,0.0,0.0,0.0,0.0,5.8314,0.0,0.0,0.0,0.0,0.0,0.0,6.8091,0.0,0.0,6.4014,6.1172,5.8519,0.0,0.0,0.0,5.0135,0.0,0.0,4.7665,4.7158,4.6921,4.6786,4.6786,4.6041,4.5838,4.6041,0.0,4.4587,0.0,0.0,0.0,0.0,0.0,4.6955,4.824,0.0,0.0,4.6786,4.6786,4.6143,0.0,4.506,4.4451,4.3707,4.32,4.2185,4.0875,3.9023,3.8654,0.0,0.0,0.0,3.8332,3.6596,0.0,0.0,0.0,0.0,0.0,0.0,0.0,0.0,0.0,0.0,2.9854,3.003,2.9905,2.9699,0.0,2.8706,2.8155,0.0,0.0,0.0,0.0,0.0,0.0,0.0,0.0,0.0,0.0,2.9634,3.0523,3.1662,3.239,3.2696,3.2413,3.298,3.3146,3.2865,3.3736,3.3768,3.3161,3.3511,3.3674,3.3674,3.3674,3.4166,3.5041,3.5041,3.5672,3.6541,3.6541,3.7194,3.7926,3.6054,3.5288,3.5288,5.5742,0.0,0.0,0.0,0.0,0.0,0.0,0.0,0.0,0.0,6.6864,0.0,7.1835,0.0,7.1505,0.0,7.0587,6.7744,6.2947,6.1661,0.0,5.4025,5.2734,0.0,0.0,0.0,0.0,0.0,0.0,4.7056,4.6786,4.6041,4.5703,4.5703,0.0,4.4823,4.4587,0.0,4.4823,0.0,0.0,4.6447,0.0,0.0,4.7631,4.6718,0.0,4.5399,4.4587,4.4587,4.4248,4.3775,4.3504,4.276,4.158,3.9502,3.9198,3.909,3.7031,3.7734,0.0,3.7195,3.7614,0.0,3.6237,0.0,0.0,0.0,0.0,0.0,0.0,0.0,2.9804,2.9804,2.9804,2.9624,0.0,2.8585,2.8084,0.0,0.0,0.0,0.0,0.0,0.0,0.0,0.0,0.0,0.0,0.0,3.0288,3.1386,3.2491,3.3068,3.3068,3.342,3.3796,3.4198,3.4926,3.4966,3.4556,3.492,3.5066,3.5066,3.5066,3.5571,3.6358,3.6358,3.701,3.8015,3.8015,3.8693,3.9465,3.7607,3.6834,3.6834,0.0,0.0,0.0,0.0,5.6357,0.0,0.0,0.0,6.541,0.0,6.9276,7.2099,7.3881,7.4059,7.4294,7.4955,7.4294,0.0,6.4897,6.4439,0.0,0.0,5.3616,5.2892,5.0515,4.9573,0.0,0.0,0.0,0.0,4.6887,4.6075,4.5737,4.5771,4.5669,0.0,4.4621,4.5365,4.5229,4.4654,4.5456,4.6201,4.6844,4.6811,0.0,4.6641,4.5162,4.4621,4.4587,4.4587,4.4587,4.4451,4.3707,4.3436,4.2824,3.9917,3.9962,4.0325,3.74,3.7563,3.8272,3.7614,0.0,0.0,0.0,0.0,3.6562,0.0,0.0,0.0,0.0,0.0,0.0,2.9804,2.9804,2.9443,2.8347,2.8164,0.0,0.0,0.0,0.0,0.0,0.0,0.0,0.0,0.0,0.0,0.0,0.0,3.0181,3.1386,3.2491,3.3068,3.3068,3.3068,3.3596,3.465,3.47,3.5278,3.6282,3.6332,3.6358,3.6358,3.6358,3.6358,3.6358,3.6383,3.7036,3.8015,3.804,3.8718,3.9697,3.9722,3.9747,3.9515,5.5857,5.6049,5.6395,0.0,5.5818,5.5951,0.0,0.0,0.0,0.0,7.3596,7.6409,7.8722,7.8514,7.7818,7.679,7.5946,0.0,0.0,0.0,0.0,6.2128,5.9401,5.7061,5.5292,5.2834,0.0,4.9526,0.0,0.0,4.8409,4.6549,4.6007,4.6481,0.0,0.0,4.4587,4.479,4.4756,4.4677,4.5912,4.6797,0.0,0.0,4.6969,4.7292,4.5875,4.506,4.4587,4.4587,4.4587,4.4553,4.435,4.3876,4.317,4.1799,4.116,4.0579,3.9265,3.9039,3.899,3.8302,3.8272,3.8182,0.0,0.0,0.0,0.0,0.0,0.0,0.0,0.0,0.0,3.0009,2.9804,2.9702,0.0,0.0,0.0,2.8164,0.0,0.0,0.0,0.0,0.0,0.0,0.0,0.0,0.0,0.0,0.0,3.1304,3.2491,3.3068,3.3068,3.3068,3.3219,3.352,3.4324,3.4876,3.5177,3.5981,3.6358,3.6358,3.6358,3.6358,3.6383,3.681,3.7387,3.804,3.8492,3.9069,3.9747,4.0149,4.03,4.0245,5.6357,0.0,0.0,5.8165,0.0,0.0,6.205,0.0,0.0,7.1893,7.5085,0.0,7.792,7.8721,7.8736,7.7451,7.69,0.0,0.0,0.0,0.0,6.4971,6.2311,5.9744,5.7064,5.3742,0.0,5.0101,0.0,0.0,4.8003,4.6109,4.5432,4.5771,0.0,4.4587,4.4587,4.4587,4.4587,4.4699,4.575,0.0,0.0,4.6291,4.6395,4.6635,4.558,4.4925,4.4587,4.4587,4.4587,4.4587,4.4587,4.4282,4.3732,4.2593,4.1634,4.0705,3.9557,3.9086,3.8871,3.8482,3.8841,3.902,3.8063,3.8362,3.8489,0.0,0.0,0.0,0.0,0.0,0.0,0.0,2.9804,0.0,0.0,0.0,0.0,0.0,0.0,0.0,0.0,0.0,0.0,0.0,0.0,0.0,0.0,0.0,0.0,3.0621,3.2461,3.3319,3.3068,3.3319,3.3545,3.3796,3.4424,3.4977,3.5454,3.6081,3.6358,3.6358,3.6358,3.6358,3.6408,3.696,3.7513,3.809,3.8919,3.9421,3.9747,4.03,4.0526,4.0551,0.0,0.0,0.0,0.0,0.0,0.0,0.0,6.7859,0.0,7.3025,0.0,7.6968,7.5529,7.7361,7.8345,7.7378,0.0,7.5763,7.2018,7.2899,7.0954,6.5118,6.373,6.1328,5.7561,5.3777,0.0,0.0,0.0,4.6312,4.6921,4.5432,4.4722,4.4722,0.0,0.0,0.0,4.4553,4.4519,4.4473,4.5233,4.5494,4.5494,4.5597,4.5545,4.5425,4.4906,4.4665,4.4587,4.4587,4.4587,4.4587,4.4587,4.4519,4.4204,4.2998,4.188,4.0798,3.9375,3.8769,3.8502,3.8462,3.926,3.9828,3.8661,3.8841,3.911,3.8512,3.681,3.5607,0.0,0.0,0.0,0.0,0.0,0.0,0.0,0.0,0.0,0.0,0.0,0.0,0.0,0.0,0.0,0.0,0.0,0.0,0.0,0.0,0.0,2.9761,3.2426,3.3596,3.3194,0.0,3.4098,3.4726,3.4726,3.5253,3.6257,3.6332,3.6358,3.6358,3.6358,3.6408,3.6508,3.7061,3.7663,3.8316,3.9295,3.9697,3.9747,4.0015,4.0159,4.0283,0.0,0.0,0.0,0.0,0.0,6.8244,7.1668,7.463,7.6985,7.8315,8.0888,0.0,8.0575,7.9807,7.8792,7.7439,7.7304,0.0,0.0,0.0,0.0,6.9155,6.5674,6.2637,6.0036,5.616,5.3122,0.0,4.868,4.7597,4.7699,4.621,4.55,4.5466,0.0,0.0,4.3673,4.4316,0.0,4.3728,4.5026,4.5494,4.5545,4.6063,4.5915,4.5494,4.5372,4.5035,4.4587,4.4587,4.4587,4.4587,4.4587,4.4147,4.3652,4.4103,4.3165,4.1814,4.086,4.0034,3.9296,3.8572,3.8571,3.8691,3.8452,3.8482,3.8542,3.8422,3.8042,3.7612,3.6939,0.0,0.0,0.0,0.0,0.0,0.0,0.0,0.0,0.0,0.0,0.0,0.0,0.0,0.0,0.0,0.0,0.0,0.0,0.0,0.0,0.0,3.2055,0.0,0.0,0.0,3.3721,3.4726,3.4726,3.5077,3.5705,3.6157,3.6358,3.6358,3.6358,3.6609,3.7086,3.7638,3.8467,3.9421,3.9622,3.9697,3.9594,3.8445,3.8491,3.9283,0.0,0.0,0.0,0.0,0.0,0.0,0.0,7.9361,0.0,7.9361,7.9963,7.9847,7.7961,7.8789,7.8869,7.7439,7.6937,7.6166,7.4992,7.3413,7.1615,6.9559,6.6365,0.0,6.0047,5.616,5.3191,5.1217,4.8612,4.7327,4.7327,4.621,4.55,4.5094,0.0,4.3978,0.0,0.0,0.0,4.4135,4.5543,4.6047,4.6,4.637,4.6265,4.5865,4.5267,4.4852,4.4587,4.4587,4.4587,4.4519,4.4113,4.3707,4.3403,4.3403,4.2334,4.0968,4.0172,3.9282,3.8419,3.7579,3.7644,3.7883,3.7883,3.8153,3.8302,3.7943,3.7883,3.7486,3.6186,3.4754,0.0,0.0,0.0,0.0,0.0,0.0,0.0,0.0,0.0,0.0,0.0,0.0,0.0,0.0,0.0,0.0,0.0,0.0,0.0,0.0,0.0,0.0,0.0,0.0,0.0,3.5152,3.5152,3.5429,3.5981,3.6232,3.6358,3.6358,3.6358,3.6508,3.6835,3.7663,3.8668,3.9697,3.9697,3.9233,3.8477,3.7796,3.7113,3.6767,0.0,6.5474,0.0,0.0,7.2552,0.0,0.0,8.1862,8.3478,8.0285,7.9076,7.7799,7.5863,7.7903,7.8851,7.7349,7.6581,7.5616,7.4478,7.3046,7.1174,6.8752,6.6256,6.3213,5.9479,5.5889,5.3156,0.0,4.8545,4.709,4.6786,4.6041,4.5229,0.0,0.0,0.0,0.0,0.0,4.391,4.4439,4.5692,4.6118,4.6035,4.6308,4.6186,4.5915,4.5089,4.472,4.4587,4.4587,4.4485,4.4215,4.3606,4.32,4.2895,4.2625,4.1473,4.0139,3.9372,3.8515,3.7685,3.6945,3.697,3.7225,3.7225,3.7614,3.7853,3.7315,3.7315,3.699,3.5594,3.4951,0.0,0.0,0.0,0.0,0.0,0.0,0.0,0.0,0.0,0.0,0.0,0.0,0.0,0.0,0.0,2.3144,2.3144,2.6281,2.8113,0.0,0.0,3.3847,3.4073,0.0,3.4951,3.573,3.5604,3.583,3.6358,3.6358,3.6358,3.6358,3.6358,3.6483,3.6784,3.7914,3.8894,3.9697,3.9697,3.9025,3.7902,3.724,3.6117,3.4912,0.0,0.0,0.0,0.0,0.0,0.0,0.0,8.0977,8.3862,8.4247,8.2869,8.1555,8.0811,7.981,7.8677,7.7266,7.647,7.5139,7.2863,7.1908,7.033,6.7907,6.5456,6.2615,5.9479,5.6939,5.4126,0.0,0.0,4.8105,0.0,4.6041,4.4925,0.0,0.0,0.0,0.0,4.391,4.4113,4.3606,4.4461,4.4788,4.4831,4.5389,4.523,4.4831,4.5267,4.5035,4.4587,4.4587,4.4113,4.3504,4.3436,4.2489,4.1677,4.2929,4.2267,4.0908,4.0194,3.9372,3.8607,3.7685,3.704,3.6567,3.6567,3.6626,3.6656,3.6596,3.7015,3.7225,3.6529,3.673,3.6259,0.0,0.0,0.0,0.0,0.0,0.0,0.0,0.0,0.0,0.0,2.375,0.0,0.0,2.3144,2.3144,2.3144,2.6281,2.8113,2.8113,0.0,3.3646,3.4625,3.4198,3.4751,3.6282,3.578,3.583,3.6358,3.6358,3.6358,3.6358,3.6358,3.6935,3.7939,3.9069,3.9597,3.9697,3.9697,3.9594,3.9129,3.6511,3.5916,3.6077,0.0,0.0,0.0,0.0,0.0,0.0,0.0,8.1708,8.2939,8.3285,8.2747,8.1853,8.0736,8.0078,7.904,7.7222,7.6419,7.4996,7.2663,7.1284,6.9486,6.71,6.5093,6.2328,5.8745,5.6772,5.4264,0.0,0.0,0.0,0.0,0.0,0.0,0.0,0.0,4.3809,4.3673,4.3809,4.3978,4.4181,4.4959,4.5205,4.5177,4.5494,4.5446,4.5142,4.4981,4.4797,4.4519,4.4045,4.3673,4.3403,4.3403,4.2692,4.188,4.2049,4.1677,4.0912,3.9719,3.8837,3.803,3.7187,3.6466,3.5908,3.5908,3.6207,3.6387,3.5968,3.6088,3.6297,3.6447,3.6357,3.5781,0.0,0.0,0.0,0.0,0.0,0.0,0.0,0.0,0.0,0.0,0.0,0.0,0.0,0.0,2.3573,2.4512,2.6867,2.8733,3.0056,0.0,3.4098,3.5203,3.5002,3.5378,3.6358,3.6132,3.6157,3.6358,3.6358,3.6358,3.6383,3.6709,3.7287,3.8065,3.8868,3.9396,3.9697,3.9697,3.8582,3.6942,3.5727,3.4674,3.3772,7.5668,0.0,7.5438,0.0,7.84,7.9208,8.1593,8.1939,8.1939,8.1939,8.1708,8.1272,8.0501,8.0011,7.9001,7.7205,7.6117,7.4471,7.1965,7.0734,6.8935,6.6256,6.5004,0.0,5.8631,5.7412,5.5061,5.1532,5.0271,0.0,0.0,0.0,0.0,0.0,4.3673,4.3944,4.4215,4.4062,4.434,4.492,4.5431,4.5569,4.5459,4.5171,4.4988,4.4818,4.4164,4.4045,4.4147,4.3606,4.3403,4.3369,4.3166,4.2591,4.188,4.1339,4.1035,4.0627,3.9587,3.8525,3.7648,3.7084,3.6228,3.5519,3.5519,3.5878,3.6058,3.5609,3.5519,3.5639,3.6118,3.5968,3.5369,3.4046,0.0,0.0,0.0,0.0,0.0,0.0,2.8774,2.7565,2.5036,0.0,0.0,0.0,0.0,0.0,2.5756,2.7217,0.0,0.0,0.0,0.0,0.0,3.5554,3.5805,3.6358,3.6358,3.6358,3.6358,3.6358,3.6358,3.6408,3.7111,3.7638,3.8065,3.8818,3.9346,3.9697,3.9697,3.8477,3.6511,3.5617,3.4474,3.3133,7.7938,7.7784,7.8054,8.0592,8.1054,8.1054,8.1093,8.1093,8.1093,8.1093,8.0362,8.0169,8.1016,7.9772,7.8328,7.691,7.5469,7.3342,7.0349,7.011,6.8678,0.0,0.0,6.3414,5.9348,5.9275,5.6989,5.2379,0.0,0.0,4.6752,0.0,4.4181,4.3436,4.4215,4.4147,4.3525,4.487,4.5494,4.5494,4.5528,4.5528,4.5321,4.3946,4.3436,4.3335,4.2591,4.2794,4.3436,4.3403,4.3403,4.3301,4.2523,4.1813,4.1204,4.1204,4.0663,4.0087,4.0087,3.8941,3.7822,3.7822,3.6662,3.5519,3.5519,3.5519,3.5519,3.5519,3.5519,3.5519,3.5519,3.6058,3.5672,3.3016,0.0,0.0,0.0,0.0,0.0,0.0,2.9761,2.9127,2.7437,0.0,0.0,0.0,0.0,0.0,0.0,0.0,0.0,3.1288,3.3044,0.0,3.5437,3.5554,3.5805,3.6358,3.6358,3.6358,3.6358,3.6358,3.6358,3.6408,3.7513,3.799,3.809,3.922,3.9697,3.9697,3.9697,3.9697,3.9258,3.6379,3.5491,3.553,8.0131,8.0054,8.0131,8.0977,8.1093,8.1093,8.1093,8.1093,8.09,8.0285,7.9977,7.9669,7.9361,7.8891,7.8084,0.0,7.521,7.3382,0.0,6.9278,6.7504,6.5411,6.4787,6.2829,5.9348,5.9311,5.7239,5.3177,0.0,0.0,0.0,4.5568,4.4959,4.4215,4.4485,4.4661,4.487,4.5321,4.5749,4.6112,4.6112,4.5865,4.5373,4.4458,4.3799,4.3301,4.2557,4.276,4.3403,4.3403,4.3775,4.4079,4.3301,4.2557,4.1847,4.1339,4.1035,4.073,4.0223,3.9768,3.9219,3.8643,3.8121,3.7418,3.64,3.5818,3.5519,3.5519,3.5519,3.5519,3.5519,3.5669,3.5304,3.3768,3.3645,0.0,0.0,0.0,0.0,0.0,2.9761,2.9409,0.0,2.8203,0.0,0.0,0.0,0.0,0.0,0.0,0.0,0.0,3.4545,0.0,3.6107,3.6107,3.6182,3.6358,3.6358,3.6358,3.6358,3.6358,3.6558,3.696,3.7688,3.8241,3.8642,3.9396,3.9697,3.9697,3.9697,3.9129,3.7902,3.6054,3.5131,3.4604,8.1131,8.1093,8.1093,8.1093,8.1093,8.0977,8.0669,8.0592,8.0285,7.9438,7.9054,7.8631,7.8092,7.7438,0.0,7.5966,7.4326,7.2529,7.0646,6.8772,6.699,6.5375,6.453,6.2727,5.975,0.0,0.0,5.3906,5.1543,4.8949,4.6109,4.6109,4.5875,4.5371,4.5371,4.5543,4.5865,4.6112,4.6448,4.6774,4.6774,4.6542,4.6055,4.4773,4.3885,4.3253,4.2142,4.2124,4.2625,4.2895,4.3504,4.4045,4.3572,4.3098,4.2557,4.1847,4.161,4.1508,4.1035,4.0729,4.0367,3.9852,3.9428,3.8842,3.7681,3.7123,3.6597,3.6067,3.5879,3.5846,3.5554,3.5519,3.5133,3.4177,3.3494,3.2818,3.2087,0.0,0.0,0.0,0.0,0.0,0.0,3.0531,3.0767,0.0,0.0,0.0,0.0,0.0,0.0,3.4585,3.5253,0.0,3.6358,3.6358,3.6358,3.6358,3.6584,3.6558,3.6383,3.6784,3.7061,3.7236,3.799,3.8542,3.8919,3.9471,3.9697,3.9697,3.9697,3.9129,3.8137,3.6054,3.4999,3.4444,8.1131,8.1093,0.0,0.0,8.1054,0.0,7.9939,7.9746,7.94,7.8515,7.7746,7.7284,7.7207,7.5707,7.4758,7.4898,0.0,0.0,0.0,6.8365,6.688,6.5375,6.442,6.2805,6.0456,6.0346,5.8442,5.4504,5.0986,4.8436,4.6955,4.6878,4.6806,4.6672,4.6621,4.6529,4.6507,4.7168,4.7428,4.747,4.747,4.7428,4.7162,4.5009,4.3851,4.3152,4.1497,4.1062,4.1373,4.2049,4.2794,4.3436,4.347,4.3504,4.3335,4.2523,4.2286,4.2286,4.2286,4.1854,4.1328,4.1271,4.0684,3.9895,3.9193,3.9001,3.8539,3.7001,3.6693,3.6445,3.5619,3.5519,3.5198,3.4245,3.3255,3.2427,3.2106,0.0,0.0,0.0,0.0,0.0,0.0,3.4123,3.4525,0.0,0.0,0.0,0.0,0.0,3.256,3.466,3.5328,3.5855,3.6358,3.6358,3.6358,3.6358,3.691,3.691,3.6458,3.7513,3.7739,3.7362,3.8417,3.8894,3.8969,3.9471,3.9697,3.9697,3.9697,3.9697,3.9362,3.6379,3.5311,3.5046,0.0,0.0,8.1093,8.1093,8.0554,8.0054,7.9823,7.9246,7.8515,7.7669,7.74,7.7053,7.6361,7.5361,7.429,7.3292,7.1749,7.0743,7.0428,6.7555,6.5705,6.5338,6.3282,6.163,6.0419,5.9795,5.7606,5.3779,5.2335,5.054,4.8443,4.7809,4.7458,4.738,4.6735,4.6684,4.7176,4.7342,4.7674,4.8075,4.8075,4.7797,4.7234,4.5624,4.4624,4.39,4.1868,4.1528,4.2049,4.2219,4.2794,4.3538,4.4113,4.4316,4.4045,4.2692,4.2286,4.2286,4.2286,4.2584,4.2747,4.2146,4.1374,4.07,4.0539,4.0151,3.9301,3.7779,3.7468,3.7062,3.5709,3.5519,3.5424,3.5198,3.3671,3.2577,3.2499,3.1055,0.0,0.0,3.1989,3.2918,3.4198,3.4575,3.4851,0.0,0.0,0.0,0.0,3.3881,3.4354,3.5236,3.5881,3.6232,3.6358,3.6358,3.6358,3.6358,3.691,3.7111,3.701,3.7688,3.8165,3.8492,3.8743,3.912,3.9521,3.9647,3.9697,3.9697,3.9697,3.9697,3.9362,3.6379,3.5535,3.5376,8.117,8.1093,8.0977,8.0592,8.0131,7.9554,7.8784,7.8246,7.763,7.6823,7.6707,7.6515,7.6053,7.5207,7.4136,7.272,7.137,7.0324,6.9691,6.6938,6.5301,6.5301,6.2915,6.1227,6.0419,5.9612,5.7449,5.4041,5.2551,5.1038,4.94,4.8571,4.8154,4.807,4.7571,4.7535,4.7797,4.7434,4.7448,4.7719,4.7352,4.7197,4.7139,4.5688,4.5007,4.4572,4.2771,4.1971,4.1847,4.2185,4.2557,4.3031,4.3809,4.4282,4.4418,4.3572,4.3335,4.3335,4.3335,4.3639,4.3833,4.3404,4.2965,4.2538,4.2209,4.1815,4.1114,3.9574,3.8962,3.8372,3.7174,3.6381,3.5968,3.5968,3.4106,3.2593,3.2593,3.1206,0.0,3.1637,3.2491,3.3545,3.4951,3.5328,3.5504,3.5529,3.4751,0.0,3.465,3.47,3.4851,3.5152,3.5956,3.6358,3.6358,3.6358,3.6358,3.6358,3.7186,3.7437,3.7211,3.8291,3.8818,3.8894,3.9145,3.9421,3.9697,3.9697,3.9697,3.9697,3.9697,3.9697,3.9362,3.6379,3.5468,3.5334,8.117,8.0977,8.0669,7.9939,7.9592,7.8938,7.7515,7.7169,7.6823,7.6092,7.6015,7.6015,7.6015,7.5207,7.4136,7.272,7.137,7.0009,6.8595,6.6468,6.5301,6.5301,6.2805,6.108,6.0419,5.9391,5.746,5.4616,5.2571,5.0939,4.9902,4.924,4.8761,4.8487,4.8511,4.8411,4.8269,4.7462,4.7131,4.7058,4.6214,4.636,4.6832,4.5554,4.5142,4.5164,4.3707,4.2484,4.1644,4.2252,4.2455,4.2591,4.3369,4.4045,4.4587,4.4587,4.4587,4.4587,4.4587,4.4587,4.4587,4.4587,4.4587,4.4418,4.3741,4.3606,4.3149,4.1674,4.0664,3.9752,3.8869,3.7593,3.6596,3.6507,3.4393,3.2731,3.2731,0.0,3.1135,3.2215,3.3345,3.4424,3.5454,3.6031,3.6182,3.5705,3.5152,3.5052,3.5529,3.5102,3.4851,3.4851,3.583,3.6358,3.6358,3.6358,3.6358,3.6383,3.7487,3.7764,3.7362,3.8969,3.9446,3.9019,3.9496,3.9697,3.9697,3.9697,3.9697,3.9697,3.9697,3.9697,3.9362,3.6619,3.5663,3.5424,8.1131,8.0516,7.9977,7.9823,7.8631,7.7592,7.7323,7.6669,7.613,7.6015,7.6015,7.6015,7.6015,7.5207,7.4136,7.272,7.137,7.0009,6.8595,6.6468,6.5301,6.5301,6.2291,6.0529,6.0419,5.829,5.6364,5.4616,5.3504,5.1901,4.9902,4.9638,4.918,4.8496,4.8389,4.8339,4.8269,4.7462,4.7131,4.7058,4.6214,4.6097,4.6236,4.5454,4.5281,4.5268,4.3902,4.322,4.3098,4.32,4.3234,4.3369,4.4147,4.4485,4.4587,4.4587,4.4587,4.4587,4.4587,4.4587,4.4587,4.4587,4.4587,4.4553,4.4418,4.4384,4.3979,4.2435,4.1471,4.0419,3.8932,3.7892,3.7105,3.6567,3.4765,3.3439,3.3294,0.0,3.1687,3.2817,3.3922,3.4851,3.5479,3.6031,3.6332,3.6232,3.573,3.5454,3.5529,3.5454,3.5429,3.5429,3.6031,3.6358,3.6358,3.6358,3.6358,3.6383,3.7487,3.7965,3.7914,3.9145,3.9647,3.9572,3.9647,3.9697,3.9697,3.9697,3.9697,3.9697,3.9697,3.9697,3.9465,3.7796,3.7416,3.7426,8.1131,8.04,7.9669,7.9169,7.8092,7.6976,7.6053,7.5553,7.5284,7.5284,7.5284,7.5284,7.5284,7.4938,7.3983,7.2109,7.1405,7.0151,6.7961,6.621,6.5301,6.5301,6.2144,5.9979,5.9134,5.7152,5.5806,5.513,5.3458,5.186,5.0389,4.9911,4.9249,4.8384,4.8336,4.8306,4.8233,4.6985,4.6728,4.7021,4.5773,4.5619,4.6146,4.5462,4.5313,4.5356,4.4422,4.3775,4.3403,4.3403,4.3403,4.347,4.3842,4.4248,4.4654,4.506,4.4891,4.4587,4.4587,4.4587,4.4587,4.4587,4.4587,4.4587,4.4587,4.4587,4.4395,4.3685,4.2463,4.1342,4.0577,3.9082,3.7685,3.6799,3.4967,0.0,0.0,3.2406,3.2265,3.3395,3.45,3.5378,3.5931,3.6207,3.6358,3.6358,3.5855,3.568,3.5981,3.5705,3.568,3.5981,3.6232,3.6358,3.6358,3.6358,3.6508,3.681,3.7613,3.8165,3.8492,3.932,3.9697,3.9697,3.9697,3.9697,3.9697,3.9697,3.9697,3.9697,3.9697,3.9873,3.9915,3.8441,3.8323,3.8516,8.1131,8.0246,7.9285,7.8631,7.7476,7.6245,7.4899,7.4553,7.4437,7.4437,7.4437,7.4437,7.4437,7.4245,7.3437,7.1746,7.1116,6.9853,6.7635,6.6049,6.5124,6.5044,6.2071,5.9648,5.8033,5.6418,5.5574,5.5574,5.3226,5.1661,5.0802,5.0016,4.9143,4.8306,4.8306,4.8306,4.8233,4.6801,4.6544,4.6947,4.5407,4.5282,4.5896,4.5234,4.5102,4.5214,4.4776,4.4181,4.3673,4.3673,4.3673,4.3707,4.391,4.435,4.4993,4.5737,4.5534,4.5094,4.5094,4.4823,4.4677,4.498,4.4933,4.4865,4.5035,4.5069,4.5082,4.5117,4.3723,4.2493,4.2493,4.0492,3.8567,3.7565,0.0,0.0,0.0,3.3044,3.3018,3.4148,3.5152,3.5906,3.6332,3.6358,3.6358,3.6358,3.5981,3.5906,3.6332,3.5956,3.5931,3.6358,3.6358,3.6358,3.6358,3.6358,3.6634,3.7186,3.7739,3.8316,3.8894,3.9446,3.9697,3.9697,3.9697,3.9697,3.9697,3.9697,3.9697,3.9697,3.9848,4.0149,4.042,3.9404,3.9334,3.9618,8.1131,7.9746,7.8592,7.8515,7.6515,7.4861,7.4707,7.4091,7.3591,7.3591,7.3591,7.3591,7.3591,7.286,7.2322,7.2178,7.0209,6.8707,6.8067,6.602,6.4651,6.4214,6.1777,5.9648,5.8033,5.6418,5.5574,5.5574,5.3182,5.1568,5.0802,4.9955,4.9148,4.8306,4.8306,4.8306,4.8233,4.7388,4.7058,4.6946,4.5533,4.5107,4.5198,4.46,4.449,4.4665,4.4643,4.4553,4.4485,4.4485,4.4485,4.4621,4.5331,4.5568,4.5771,4.6481,4.6684,4.6616,4.6616,4.5635,4.489,4.6129,4.5909,4.5598,4.6289,4.6427,4.6507,4.6622,4.5236,4.3965,4.3965,4.1913,4.0038,3.9294,0.0,0.0,3.5782,3.4627,3.4173,3.5278,3.5931,3.6307,3.6358,3.6358,3.6358,3.6358,3.6332,3.6307,3.6358,3.6332,3.6307,3.6358,3.6358,3.6358,3.6358,3.6358,3.6634,3.7186,3.7739,3.8316,3.8894,3.9446,3.9697,3.9697,3.9697,3.9697,3.9697,3.9697,3.9697,3.9747,4.0249,4.0475,4.0576,4.0971,4.1497,4.1753,8.1285,7.9785,7.8477,7.8477,7.6823,7.5168,7.413,7.3707,7.3322,7.2745,7.2706,7.2706,7.2706,7.2399,7.1975,7.1437,7.0604,6.9444,6.7908,6.6748,6.4849,6.1936,6.0419,5.9134,5.8033,5.6418,5.5574,5.5574,5.3665,5.2344,5.1536,5.0729,5.0178,4.9811,4.8783,4.86,4.9003,4.7682,4.7161,4.7207,4.6168,4.5588,4.5381,4.5649,4.5534,4.5263,4.5263,4.5263,4.5196,4.4722,4.4587,4.4722,4.5466,4.5703,4.594,4.7124,4.7496,4.7597,4.8037,4.709,4.6146,4.7099,4.7122,4.6984,4.7261,4.733,4.7217,4.6893,4.5368,4.4125,4.4125,4.2407,4.068,3.9777,0.0,3.7316,3.6466,3.5831,3.5517,3.5546,3.6031,3.6358,3.6358,3.6358,3.6358,3.6358,3.6358,3.6358,3.6358,3.6358,3.6358,3.6358,3.6358,3.6358,3.6358,3.6358,3.681,3.7688,3.7914,3.8492,3.9396,3.9597,3.9697,3.9697,3.9697,3.9697,3.9697,3.9697,3.9697,3.9747,4.03,4.0727,4.1103,4.1656,4.2409,4.2937,8.1,7.9438,7.813,7.813,7.6707,7.5207,7.4053,7.3437,7.2899,7.2283,7.1937,7.1783,7.1783,7.1783,7.1552,7.0937,7.0667,6.9683,6.7725,6.603,6.3696,6.054,5.9648,5.8841,5.8033,5.6418,5.5574,5.5574,5.3739,5.2527,5.1977,5.1169,5.0655,5.0362,4.9224,4.8893,4.9114,4.7976,4.7591,4.763,4.6665,4.6224,4.6203,4.6301,4.6225,4.6041,4.6041,4.5906,4.5635,4.5128,4.479,4.4756,4.5737,4.638,4.6921,4.797,4.8274,4.8376,4.8883,4.8274,4.7573,4.8031,4.8082,4.8137,4.8112,4.8255,4.8251,4.7631,4.6059,4.4829,4.5053,4.3395,4.1751,4.1067,4.0197,3.9093,3.7682,3.7183,3.6791,3.6301,3.6483,3.6609,3.6609,3.6458,3.6358,3.6358,3.6358,3.6358,3.6358,3.6358,3.6358,3.6358,3.6358,3.6358,3.6358,3.6533,3.7086,3.8015,3.8191,3.8768,3.9697,3.9697,3.9697,3.9697,3.9697,3.9697,3.9697,3.9697,3.9798,3.9998,4.0551,4.1103,4.1656,4.2208,4.2637,4.2577,8.0155,7.8592,7.7284,7.7284,7.5861,7.4707,7.4707,7.3283,7.2206,7.2206,7.1437,7.0898,7.0898,7.0898,7.0898,7.0898,7.0167,6.9107,6.7649,6.3577,6.0995,6.043,5.9612,5.8804,5.7997,5.6418,5.5574,5.5574,5.3188,5.2013,5.1977,5.1169,5.0362,4.9591,4.9591,4.9114,4.8306,4.8306,4.8352,4.8371,4.7002,4.6926,4.7548,4.6226,4.6177,4.6819,4.6819,4.6346,4.5737,4.5703,4.5196,4.4857,4.6346,4.78,4.8984,4.8984,4.8984,4.8984,4.8984,4.8984,4.8965,4.8816,4.8785,4.8796,4.8826,4.938,4.9732,4.912,4.7539,4.6429,4.7061,4.5094,4.3359,4.3359,4.1938,4.0539,3.9775,3.8827,3.8121,3.7962,3.7513,3.7186,3.7186,3.6684,3.6383,3.6383,3.6358,3.6358,3.6358,3.6358,3.6358,3.6358,3.6358,3.6358,3.6358,3.691,3.7462,3.8015,3.8592,3.917,3.9697,3.9697,3.9697,3.9697,3.9697,3.9697,3.9697,3.9697,4.0023,4.0576,4.1128,4.1681,4.2208,4.276,4.2012,4.0592,8.0327,7.869,7.7284,7.7284,7.6361,7.5399,7.4784,7.4284,7.3514,7.236,7.1975,7.1591,7.0975,7.0898,7.0898,7.0898,7.0167,6.8608,6.6008,6.3541,6.1543,6.0098,5.896,5.7997,5.7189,5.6124,5.5317,5.4766,5.3482,5.2858,5.2821,5.1463,5.0986,5.1206,4.9444,4.8893,4.915,4.8093,4.7767,4.7808,4.6926,4.6719,4.7077,4.7183,4.7394,4.7597,4.7597,4.7428,4.709,4.6075,4.5906,4.621,4.665,4.7462,4.8139,4.7597,4.7462,4.7462,4.7462,4.7462,4.781,4.9286,4.9625,4.9632,4.9617,5.0215,5.0587,4.9943,4.8658,4.7709,4.7933,4.6175,4.4706,4.4706,4.4281,4.3332,4.1396,4.0795,4.0014,3.8235,3.7864,3.7764,3.7764,3.7613,3.7513,3.7513,3.7161,3.6935,3.6935,3.6584,3.6358,3.6358,3.6358,3.6558,3.6935,3.7111,3.7462,3.8015,3.8592,3.917,3.9697,3.9697,3.9697,3.9697,3.9697,3.9697,3.9722,4.0124,4.0375,4.0601,4.1555,4.2007,4.2098,4.159,4.1293,4.0646,7.993,7.8228,7.6784,7.6784,7.6361,7.5822,7.5284,7.4668,7.386,7.286,7.2091,7.1475,7.0975,7.0898,7.0898,7.0898,6.986,6.8125,6.56,6.3626,6.1945,6.0528,5.9244,5.8005,5.6822,5.6014,5.5207,5.4399,5.3592,5.3225,5.3188,5.1867,5.1353,5.1463,4.9627,4.9114,4.9554,4.8363,4.8064,4.8438,4.7457,4.7283,4.7699,4.7868,4.8105,4.8342,4.8342,4.8173,4.7733,4.6549,4.6244,4.6413,4.6718,4.709,4.7394,4.6921,4.6786,4.6786,4.6786,4.7022,4.7547,4.8871,4.939,4.9642,4.9973,5.0631,5.108,5.0663,4.9381,4.8381,4.8669,4.704,4.5693,4.5693,4.5693,4.4787,4.2314,4.2067,4.1221,3.8918,3.8492,3.8341,3.8341,3.814,3.8015,3.8015,3.7688,3.7513,3.7513,3.7186,3.701,3.701,3.7559,3.7972,3.8236,3.9016,3.9013,3.8341,3.8718,3.917,3.9697,3.9697,3.9697,3.9697,3.9697,3.9697,3.9747,4.03,4.0651,4.0927,4.1806,4.1928,4.1433,4.0602,3.9382,3.767,7.9092,7.7391,7.6015,7.6015,7.6015,7.5976,7.5899,7.4591,7.3553,7.3399,7.2014,7.0975,7.0898,7.0821,7.0783,7.0783,6.9244,6.759,6.5897,6.38,6.2298,6.1429,6.0151,5.8578,5.6875,5.6066,5.5214,5.4399,5.3592,5.3225,5.3188,5.2307,5.1536,5.0875,4.9994,4.9627,4.9661,4.8851,4.9091,4.978,4.829,4.822,4.8951,4.8274,4.8443,4.9018,4.9018,4.8578,4.7902,4.7158,4.6346,4.5838,4.6481,4.6684,4.6684,4.6616,4.6583,4.6583,4.6583,4.7158,4.7733,4.78,4.8299,4.9022,4.9916,5.0659,5.1202,5.1278,4.9842,4.8669,4.9309,4.7781,4.6411,4.6411,4.6326,4.5376,4.2953,4.2488,4.1758,3.993,3.9245,3.8944,3.8944,3.8467,3.8165,3.8338,3.8214,3.8189,3.8263,3.8139,3.8015,3.8187,3.9206,3.9849,4.0186,4.1704,4.134,3.907,3.9121,3.9297,3.9697,3.9697,3.9697,3.9697,3.9697,3.9722,3.9798,4.035,4.0902,4.1455,4.1848,4.1408,4.0473,3.9722,3.6794,3.2961,7.8177,7.7006,7.6015,7.6015,7.6015,7.5784,7.5091,7.4668,7.3976,7.2629,7.2129,7.1668,7.0975,7.036,6.9975,6.9975,6.8398,6.6667,6.4974,6.3783,6.2629,6.1429,6.0151,5.8764,5.736,5.6543,5.5562,5.4399,5.3592,5.3225,5.3188,5.172,5.1316,5.1683,5.0215,4.9958,5.0428,4.9241,4.9167,4.9799,4.8392,4.8293,4.8984,4.8815,4.8849,4.9018,4.9018,4.8917,4.8646,4.7936,4.6786,4.5737,4.5906,4.594,4.5838,4.5229,4.506,4.506,4.506,4.5602,4.6312,4.6887,4.7581,4.8455,4.9825,5.0667,5.1342,5.1894,5.0889,4.9981,5.0141,4.8491,4.71,4.71,4.6226,4.5006,4.3499,4.2452,4.1261,3.9878,3.9597,3.9521,3.9521,3.9396,3.9702,4.0754,3.9497,3.9143,4.0174,3.8809,3.8456,3.9468,3.882,3.9607,4.212,4.1019,4.0463,4.0383,4.0827,4.0514,3.9697,3.9697,3.9697,3.9697,3.9697,3.9948,4.0375,4.0927,4.148,4.1873,4.0842,4.0355,3.9812,3.6733,3.4419,3.2095,7.7907,7.689,7.6015,7.6015,7.6015,7.5707,7.4822,7.4361,7.3668,7.236,7.1514,7.0821,7.0398,6.959,6.8898,6.8513,6.7628,6.6205,6.4128,6.3551,6.2669,6.1184,6.0418,5.9381,5.7865,5.7076,5.5883,5.4399,5.3592,5.3225,5.3188,5.1573,5.1022,5.1353,5.0141,5.0031,5.0721,4.9746,4.9776,5.0329,4.8998,4.8477,4.8477,4.8477,4.8477,4.8477,4.8477,4.824,4.7902,4.753,4.6413,4.5229,4.5602,4.5466,4.5094,4.4688,4.4587,4.4654,4.5026,4.5669,4.6481,4.7564,4.8409,4.9255,5.0371,5.0913,5.1522,5.2638,5.1514,5.0397,5.0397,4.8708,4.7309,4.7309,4.6255,4.4932,4.3693,4.235,4.1119,3.9878,3.9697,3.9981,4.0541,4.0642,4.1119,4.2447,4.1595,4.1435,4.2085,4.1116,4.0667,4.0667,4.0667,4.1379,4.3034,4.2703,4.2422,4.2085,4.1462,4.0958,4.0541,3.9981,3.9697,3.9697,3.9973,4.0249,4.0576,4.1379,4.127,4.0612,4.021,3.8984,3.7103,3.5211,3.3236,3.0788,7.7703,7.6813,7.5976,7.5822,7.5784,7.5438,7.4437,7.3707,7.2937,7.1898,7.0667,6.9821,6.9513,6.8706,6.7821,6.6974,6.6898,6.5936,6.3666,6.3397,6.2627,6.1089,6.081,5.9955,5.8316,5.7352,5.607,5.4399,5.3592,5.3225,5.3188,5.1683,5.1022,5.0986,5.0288,5.0248,5.0597,5.0127,5.0134,5.0436,4.9145,4.8274,4.7733,4.7868,4.7834,4.7733,4.7868,4.7361,4.6616,4.6616,4.5703,4.4688,4.5331,4.5094,4.4587,4.4587,4.4688,4.4891,4.5534,4.6346,4.7293,4.8646,4.956,5.0338,5.1217,5.1386,5.1826,5.3382,5.2046,5.0621,5.0749,4.8955,4.7489,4.7489,4.6135,4.472,4.3693,4.2279,4.0844,3.9775,3.9697,4.016,4.1518,4.1591,4.2279,4.3693,4.3598,4.3504,4.3504,4.3313,4.2641,4.1591,4.2447,4.3026,4.3504,4.4349,4.4349,4.3504,4.1769,4.1044,4.1219,4.016,3.9697,3.9722,4.0275,4.0526,4.0601,4.1364,4.0697,3.907,3.8953,3.7106,3.4316,3.3788,3.2163,2.974,7.6791,7.6506,7.5976,7.5053,7.4899,7.4361,7.2783,7.2437,7.1822,7.0244,7.0437,7.0206,6.8744,6.7782,6.6936,6.6128,6.6051,6.559,6.4512,6.3743,6.2897,6.1935,6.0813,5.9712,5.872,5.7181,5.5726,5.4399,5.3592,5.3225,5.3188,5.227,5.183,5.183,5.172,5.103,4.9973,4.9982,4.9292,4.8167,4.7374,4.7022,4.7022,4.7665,4.7496,4.7022,4.7665,4.7022,4.5838,4.5838,4.5297,4.4587,4.4688,4.4654,4.4587,4.4587,4.5026,4.5568,4.5669,4.6718,4.797,4.8781,4.956,5.0439,5.1826,5.2164,5.2604,5.4126,5.2729,5.1485,5.2093,4.9974,4.8147,4.8147,4.5671,4.3693,4.3504,4.1419,3.9878,3.9697,3.9697,4.016,4.1518,4.1591,4.2544,4.4932,4.4163,4.3504,4.3504,4.2447,4.1789,4.1591,4.0743,4.1319,4.3504,4.2544,4.2544,4.3504,4.2101,4.0967,3.9981,3.98,3.9697,3.9722,4.0275,4.0526,4.0445,3.9807,3.9316,3.8753,3.5887,3.4474,3.3663,3.115,3.0208,2.9994,7.6153,7.5869,7.5438,7.4486,7.4245,7.3581,7.1898,7.1552,7.086,6.9206,6.8859,6.8513,6.7744,6.6474,6.5743,6.5897,6.5013,6.4282,6.3897,6.3089,6.2243,6.1396,6.0328,5.9255,5.8158,5.6285,5.465,5.3378,5.324,5.2747,5.1867,5.1499,5.1096,5.0655,5.0295,4.9742,4.9109,4.8862,4.8381,4.7726,4.7101,4.6549,4.621,4.6549,4.6718,4.6819,4.7158,4.6839,4.6152,4.574,4.5363,4.5089,4.5089,4.5158,4.5196,4.5196,4.5737,4.6481,4.7327,4.7603,4.8222,5.0312,5.0226,5.0072,5.1722,5.19,5.2145,5.3418,5.2288,5.1152,5.1517,5.0069,4.8835,4.8835,4.644,4.4498,4.4498,4.2262,4.079,4.1158,4.1208,4.186,4.3531,4.3693,4.4163,4.5298,4.4932,4.4256,4.3504,4.293,4.235,4.1591,4.1019,4.1319,4.2447,4.1887,4.1887,4.2447,4.1887,4.1319,4.0743,3.9981,3.9697,3.9722,4.0275,4.0053,3.9306,3.9163,3.7943,3.607,3.4525,3.3306,3.2451,3.1328,3.1275,3.1421]},{"header":{"parameterUnit":"m.s-1","parameterCategory":1,"la1":30.6,"la2":28.766,"lo1":-90.7593,"lo2":-88.6598,"dy":0.0162,"dx":0.0183,"nx":116,"ny":114,"refTime":"2023-04-15T06:00:00:Z","depth":0,"parameterNumber":3,"parameterNumberName":"V-component_of_WINDS"},"data":[0.0,0.0,0.0,0.0,0.0,0.0,0.0,0.0,0.0,0.0,0.0,0.0,0.0,0.0,0.0,0.0,0.0,0.0,0.0,0.0,0.0,0.0,0.0,0.0,0.0,0.0,0.0,0.0,0.0,0.0,0.0,0.0,0.0,0.0,0.0,0.0,0.0,0.0,0.0,0.0,0.0,0.0,0.0,0.0,0.0,0.0,0.0,0.0,0.0,0.0,0.0,0.0,0.0,0.0,0.0,0.0,0.0,0.0,0.0,0.0,0.0,0.0,0.0,0.0,0.0,0.0,0.0,0.0,0.0,0.0,0.0,0.0,0.0,0.0,0.0,0.0,0.0,0.0,0.0,0.0,0.0,0.0,0.0,0.0,0.0,0.0,0.0,0.0,0.0,0.0,0.0,0.0,0.0,0.0,0.0,0.0,0.0,0.0,0.0,0.0,0.0,0.0,0.0,0.0,0.0,0.0,0.0,0.0,0.0,0.0,0.0,0.0,0.0,0.0,0.0,0.0,0.0,0.0,0.0,0.0,0.0,0.0,0.0,0.0,0.0,0.0,0.0,0.0,0.0,0.0,0.0,0.0,0.0,0.0,0.0,0.0,0.0,0.0,0.0,0.0,0.0,0.0,0.0,0.0,0.0,0.0,0.0,0.0,0.0,0.0,0.0,0.0,0.0,0.0,0.0,0.0,0.0,0.0,0.0,0.0,0.0,0.0,0.0,0.0,0.0,0.0,0.0,0.0,0.0,0.0,0.0,0.0,0.0,0.0,0.0,0.0,0.0,0.0,0.0,0.0,0.0,0.0,0.0,0.0,0.0,0.0,0.0,0.0,0.0,0.0,0.0,0.0,0.0,0.0,0.0,0.0,0.0,0.0,0.0,0.0,0.0,0.0,0.0,0.0,0.0,0.0,0.0,0.0,0.0,0.0,0.0,0.0,0.0,0.0,0.0,0.0,0.0,0.0,0.0,0.0,0.0,0.0,0.0,0.0,0.0,0.0,0.0,0.0,0.0,0.0,0.0,0.0,0.0,0.0,0.0,0.0,0.0,0.0,0.0,0.0,0.0,0.0,0.0,0.0,0.0,0.0,0.0,0.0,0.0,0.0,0.0,0.0,0.0,0.0,0.0,0.0,0.0,0.0,0.0,0.0,0.0,0.0,0.0,0.0,0.0,0.0,0.0,0.0,0.0,0.0,0.0,0.0,0.0,0.0,0.0,0.0,0.0,0.0,0.0,0.0,0.0,0.0,0.0,0.0,0.0,0.0,0.0,0.0,0.0,0.0,0.0,0.0,0.0,0.0,0.0,0.0,0.0,0.0,0.0,0.0,0.0,0.0,0.0,0.0,0.0,0.0,0.0,0.0,0.0,0.0,0.0,0.0,0.0,0.0,0.0,0.0,0.0,0.0,0.0,0.0,0.0,0.0,0.0,0.0,0.0,0.0,0.0,0.0,0.0,0.0,0.0,0.0,0.0,0.0,0.0,0.0,0.0,0.0,0.0,0.0,0.0,0.0,0.0,0.0,0.0,0.0,0.0,0.0,0.0,0.0,0.0,0.0,0.0,0.0,0.0,0.0,0.0,0.0,0.0,0.0,0.0,0.0,0.0,0.0,0.0,0.0,0.0,0.0,0.0,0.0,0.0,0.0,0.0,0.0,0.0,0.0,0.0,0.0,0.0,0.0,0.0,0.0,0.0,0.0,0.0,0.0,0.0,0.0,0.0,0.0,0.0,0.0,0.0,0.0,0.0,0.0,0.0,0.0,0.0,0.0,0.0,0.0,0.0,0.0,0.0,0.0,0.0,0.0,0.0,0.0,0.0,0.0,0.0,0.0,0.0,0.0,0.0,0.0,0.0,0.0,0.0,0.0,0.0,0.0,0.0,0.0,0.0,0.0,0.0,0.0,0.0,0.0,0.0,0.0,0.0,0.0,0.0,0.0,0.0,0.0,0.0,0.0,0.0,0.0,0.0,0.0,0.0,0.0,0.0,0.0,0.0,0.0,0.0,0.0,0.0,0.0,0.0,0.0,0.0,0.0,0.0,0.0,0.0,0.0,0.0,0.0,0.0,0.0,0.0,0.0,0.0,0.0,0.0,0.0,0.0,0.0,0.0,0.0,0.0,0.0,0.0,0.0,0.0,0.0,0.0,0.0,0.0,0.0,0.0,0.0,0.0,0.0,0.0,0.0,0.0,0.0,0.0,0.0,0.0,0.0,0.0,0.0,0.0,0.0,0.0,0.0,0.0,0.0,0.0,0.0,0.0,0.0,0.0,0.0,0.0,0.0,0.0,0.0,0.0,0.0,0.0,0.0,0.0,0.0,0.0,0.0,0.0,0.0,0.0,0.0,0.0,0.0,0.0,0.0,0.0,0.0,0.0,0.0,0.0,0.0,0.0,0.0,0.0,0.0,0.0,0.0,0.0,0.0,0.0,0.0,0.0,0.0,0.0,0.0,0.0,0.0,0.0,0.0,0.0,0.0,0.0,0.0,0.0,0.0,0.0,0.0,0.0,0.0,0.0,0.0,0.0,0.0,0.0,0.0,0.0,0.0,0.0,0.0,0.0,0.0,0.0,0.0,0.0,0.0,0.0,0.0,0.0,0.0,0.0,0.0,0.0,0.0,0.0,0.0,0.0,0.0,0.0,0.0,0.0,0.0,0.0,0.0,0.0,0.0,0.0,0.0,0.0,0.0,0.0,0.0,0.0,0.0,0.0,0.0,0.0,0.0,0.0,0.0,0.0,0.0,0.0,0.0,0.0,0.0,0.0,0.0,0.0,0.0,0.0,0.0,0.0,0.0,0.0,0.0,0.0,0.0,0.0,0.0,0.0,0.0,0.0,0.0,0.0,0.0,0.0,0.0,0.0,0.0,0.0,0.0,0.0,0.0,0.0,0.0,0.0,0.0,0.0,0.0,0.0,0.0,0.0,0.0,0.0,0.0,0.0,0.0,0.0,0.0,0.0,0.0,0.0,0.0,0.0,0.0,0.0,0.0,0.0,0.0,0.0,0.0,0.0,0.0,0.0,0.0,0.0,0.0,0.0,0.0,0.0,0.0,0.0,0.0,0.0,0.0,0.0,0.0,0.0,0.0,0.0,0.0,0.0,0.0,0.0,0.0,0.0,0.0,0.0,0.0,0.0,0.0,0.0,0.0,0.0,0.0,0.0,0.0,0.0,0.0,0.0,0.0,0.0,0.0,0.0,0.0,0.0,0.0,0.0,0.0,0.0,0.0,0.0,0.0,0.0,0.0,0.0,0.0,0.0,0.0,0.0,0.0,0.0,0.0,0.0,0.0,0.0,0.0,0.0,0.0,0.0,0.0,0.0,0.0,0.0,0.0,0.0,0.0,0.0,0.0,0.0,0.0,0.0,0.0,0.0,0.0,0.0,0.0,0.0,0.0,0.0,0.0,0.0,0.0,0.0,0.0,0.0,0.0,0.0,0.0,0.0,0.0,0.0,0.0,0.0,0.0,0.0,0.0,0.0,0.0,0.0,0.0,0.0,0.0,0.0,0.0,0.0,0.0,0.0,0.0,0.0,0.0,0.0,0.0,0.0,0.0,0.0,0.0,0.0,0.0,0.0,0.0,0.0,0.0,0.0,0.0,0.0,0.0,0.0,0.0,0.0,0.0,0.0,0.0,0.0,0.0,0.0,0.0,0.0,0.0,0.0,0.0,0.0,0.0,0.0,0.0,0.0,0.0,0.0,0.0,0.0,0.0,0.0,0.0,0.0,0.0,0.0,0.0,0.0,0.0,0.0,0.0,0.0,0.0,0.0,0.0,0.0,0.0,0.0,0.0,0.0,0.0,0.0,0.0,0.0,0.0,0.0,0.0,0.0,0.0,0.0,0.0,0.0,0.0,0.0,0.0,0.0,0.0,0.0,0.0,0.0,0.0,0.0,0.0,0.0,0.0,0.0,0.0,0.0,0.0,0.0,0.0,0.0,0.0,0.0,0.0,0.0,0.0,0.0,0.0,0.0,0.0,0.0,0.0,0.0,0.0,0.0,0.0,0.0,0.0,0.0,0.0,0.0,0.0,0.0,0.0,0.0,0.0,0.0,0.0,0.0,0.0,0.0,0.0,0.0,0.0,0.0,0.0,0.0,0.0,0.0,0.0,0.0,0.0,0.0,0.0,0.0,0.0,0.0,0.0,0.0,0.0,0.0,0.0,0.0,0.0,0.0,0.0,0.0,0.0,0.0,0.0,0.0,0.0,0.0,0.0,0.0,0.0,0.0,0.0,0.0,0.0,0.0,0.0,0.0,0.0,0.0,0.0,0.0,0.0,0.0,0.0,0.0,0.0,0.0,0.0,0.0,0.0,0.0,0.0,0.0,0.0,0.0,0.0,0.0,0.0,0.0,0.0,0.0,0.0,0.0,0.0,0.0,0.0,0.0,0.0,0.0,0.0,0.0,0.0,0.0,0.0,0.0,0.0,0.0,0.0,0.0,0.0,0.0,0.0,0.0,0.0,0.0,0.0,0.0,0.0,0.0,0.0,0.0,0.0,0.0,0.0,0.0,0.0,0.0,0.0,0.0,0.0,0.0,0.0,0.0,0.0,0.0,0.0,0.0,0.0,0.0,0.0,0.0,0.0,0.0,0.0,0.0,0.0,0.0,0.0,0.0,0.0,0.0,0.0,0.0,0.0,0.0,0.0,0.0,0.0,0.0,0.0,0.0,0.0,0.0,0.0,0.0,0.0,0.0,0.0,0.0,0.0,0.0,0.0,0.0,0.0,0.0,0.0,0.0,0.0,0.0,0.0,0.0,0.0,0.0,0.0,0.0,0.0,0.0,0.0,0.0,0.0,0.0,0.0,0.0,0.0,0.0,0.0,0.0,0.0,0.0,0.0,0.0,0.0,0.0,0.0,0.0,0.0,0.0,0.0,0.0,0.0,0.0,0.0,0.0,0.0,0.0,0.0,0.0,0.0,0.0,0.0,0.0,0.0,0.0,0.0,0.0,0.0,0.0,0.0,0.0,0.0,0.0,0.0,0.0,0.0,0.0,0.0,0.0,0.0,0.0,0.0,0.0,0.0,0.0,0.0,0.0,0.0,0.0,0.0,0.0,0.0,0.0,0.0,0.0,0.0,0.0,0.0,0.0,0.0,0.0,0.0,0.0,0.0,0.0,0.0,0.0,0.0,0.0,0.0,0.0,0.0,0.0,0.0,0.0,0.0,0.0,0.0,0.0,0.0,0.0,0.0,0.0,0.0,0.0,0.0,0.0,0.0,0.0,0.0,0.0,0.0,0.0,0.0,0.0,0.0,0.0,0.0,0.0,0.0,0.0,0.0,0.0,0.0,0.0,0.0,0.0,0.0,0.0,0.0,0.0,0.0,0.0,0.0,0.0,0.0,0.0,0.0,0.0,0.0,0.0,0.0,0.0,0.0,0.0,0.0,0.0,0.0,0.0,0.0,0.0,0.0,0.0,0.0,0.0,0.0,0.0,0.0,0.0,0.0,0.0,0.0,0.0,0.0,0.0,0.0,0.0,0.0,0.0,0.0,0.0,0.0,0.0,0.0,0.0,0.0,0.0,0.0,0.0,0.0,0.0,0.0,0.0,0.0,0.0,0.0,0.0,0.0,0.0,0.0,0.0,0.0,0.0,0.0,0.0,0.0,0.0,0.0,0.0,0.0,0.0,0.0,0.0,0.0,0.0,0.0,0.0,0.0,0.0,0.0,0.0,0.0,0.0,0.0,0.0,0.0,0.0,0.0,0.0,0.0,0.0,0.0,0.0,0.0,0.0,0.0,0.0,0.0,0.0,0.0,0.0,0.0,0.0,0.0,0.0,0.0,0.0,0.0,0.0,0.0,0.0,0.0,0.0,0.0,0.0,0.0,0.0,0.0,0.0,0.0,0.0,0.0,0.0,0.0,0.0,0.0,0.0,0.0,0.0,0.0,0.0,0.0,0.0,0.0,0.0,0.0,0.0,0.0,0.0,0.0,0.0,0.0,0.0,0.0,0.0,0.0,0.0,0.0,0.0,0.0,0.0,0.0,0.0,0.0,0.0,0.0,0.0,0.0,0.0,0.0,0.0,0.0,0.0,0.0,0.0,0.0,0.0,0.0,0.0,0.0,0.0,0.0,0.0,0.0,0.0,0.0,-4.2489,0.0,0.0,0.0,0.0,0.0,0.0,0.0,0.0,0.0,0.0,0.0,0.0,0.0,0.0,0.0,0.0,0.0,0.0,0.0,0.0,0.0,0.0,0.0,0.0,0.0,0.0,0.0,0.0,0.0,0.0,0.0,0.0,0.0,0.0,0.0,0.0,0.0,0.0,0.0,-2.9473,-2.8828,-2.7969,-2.8398,-2.8496,-2.8301,0.0,0.0,0.0,0.0,0.0,0.0,0.0,0.0,0.0,0.0,0.0,0.0,0.0,0.0,0.0,0.0,0.0,0.0,0.0,0.0,0.0,0.0,0.0,0.0,0.0,0.0,0.0,0.0,0.0,0.0,0.0,0.0,0.0,0.0,0.0,0.0,0.0,0.0,0.0,0.0,0.0,0.0,0.0,0.0,0.0,0.0,0.0,0.0,0.0,0.0,0.0,0.0,0.0,0.0,0.0,0.0,0.0,0.0,0.0,0.0,0.0,0.0,0.0,0.0,0.0,0.0,0.0,0.0,0.0,0.0,0.0,-4.3741,0.0,0.0,0.0,0.0,0.0,0.0,0.0,0.0,0.0,0.0,0.0,0.0,0.0,0.0,0.0,0.0,0.0,0.0,0.0,0.0,0.0,0.0,0.0,0.0,-2.7724,-2.9672,-3.0469,-3.0723,0.0,0.0,0.0,0.0,0.0,0.0,0.0,0.0,0.0,-2.9863,-2.8887,-2.8516,-2.8769,-2.9336,-2.9414,-2.9082,-2.8746,0.0,0.0,0.0,0.0,0.0,0.0,0.0,0.0,0.0,0.0,0.0,0.0,0.0,0.0,0.0,0.0,0.0,0.0,0.0,0.0,0.0,0.0,0.0,0.0,0.0,0.0,0.0,0.0,0.0,0.0,0.0,0.0,0.0,0.0,0.0,0.0,0.0,0.0,0.0,0.0,0.0,0.0,0.0,0.0,0.0,0.0,0.0,0.0,0.0,0.0,0.0,0.0,0.0,0.0,0.0,0.0,0.0,0.0,0.0,0.0,0.0,0.0,0.0,0.0,-4.9796,-4.9796,-4.9796,-4.9796,-4.9695,-4.7868,-4.5974,-4.4282,0.0,0.0,0.0,0.0,0.0,0.0,0.0,0.0,0.0,0.0,0.0,0.0,0.0,0.0,0.0,0.0,0.0,0.0,0.0,0.0,0.0,0.0,-2.633,-2.7182,-3.0432,-3.082,-3.0859,0.0,0.0,0.0,0.0,0.0,0.0,0.0,-2.9434,-2.9297,-2.8555,-2.873,-2.9434,-3.0566,-3.1738,-3.2246,-3.2109,-2.8499,-2.7264,-2.7517,0.0,0.0,0.0,0.0,0.0,0.0,0.0,0.0,0.0,0.0,0.0,0.0,0.0,0.0,0.0,0.0,0.0,0.0,0.0,0.0,0.0,0.0,0.0,0.0,0.0,0.0,0.0,0.0,0.0,0.0,0.0,0.0,0.0,0.0,0.0,0.0,0.0,0.0,0.0,0.0,0.0,-3.929,-3.929,0.0,0.0,0.0,0.0,0.0,0.0,0.0,0.0,0.0,0.0,0.0,0.0,0.0,0.0,-4.8101,-5.0389,-5.1623,-5.1725,-5.2536,-5.2909,-5.2909,-5.2909,-5.2909,-5.2909,-5.2604,0.0,-4.7285,-4.6721,0.0,0.0,0.0,0.0,0.0,0.0,0.0,0.0,0.0,0.0,0.0,0.0,0.0,0.0,0.0,0.0,0.0,0.0,0.0,0.0,0.0,-2.8046,-2.9226,-3.0762,-3.1992,-3.2168,-3.0976,0.0,0.0,0.0,0.0,0.0,-2.8945,-2.8867,-2.8906,-2.9004,-3.0176,-3.1406,-3.2695,-3.3496,-3.4004,-3.405,-3.0085,-2.8218,-2.8343,-2.8872,0.0,0.0,0.0,0.0,0.0,0.0,0.0,0.0,0.0,0.0,0.0,0.0,0.0,0.0,0.0,0.0,0.0,0.0,0.0,0.0,0.0,0.0,0.0,0.0,0.0,0.0,0.0,0.0,0.0,0.0,0.0,0.0,0.0,0.0,0.0,0.0,0.0,0.0,0.0,-4.0247,-4.1085,-3.9589,-4.2191,-4.3535,0.0,0.0,0.0,0.0,0.0,0.0,0.0,0.0,0.0,-4.81,-5.0354,-5.1461,-5.143,-5.3651,-5.504,-5.5446,-5.5784,-5.619,-5.6596,-5.6156,-5.5953,-5.5953,-5.5547,-5.4194,-5.2131,-5.0066,-4.8651,-4.7935,0.0,0.0,0.0,0.0,0.0,-5.2123,0.0,0.0,0.0,0.0,0.0,0.0,0.0,0.0,0.0,0.0,0.0,0.0,-2.7337,-2.9108,-3.0515,-3.1816,-3.3125,-3.3223,-3.1641,-3.2305,0.0,0.0,0.0,-2.9629,-2.8769,-2.8769,-2.9316,-3.0391,-3.2129,-3.3691,-3.5059,-3.5605,-3.6035,-3.621,-3.2595,-3.0376,-2.9242,-2.9702,-2.8527,-2.6531,0.0,0.0,0.0,0.0,0.0,0.0,0.0,0.0,0.0,0.0,0.0,0.0,0.0,0.0,0.0,0.0,0.0,0.0,0.0,0.0,0.0,0.0,0.0,0.0,0.0,0.0,0.0,0.0,0.0,0.0,0.0,0.0,0.0,0.0,0.0,0.0,0.0,-4.1324,-4.2282,-4.0157,-4.3593,-4.5387,0.0,0.0,0.0,0.0,0.0,0.0,-5.0033,-5.1014,-5.1961,-5.2875,-5.4397,-5.5378,-5.5784,-5.7408,-5.8693,-5.9607,-5.9404,-5.9708,-6.0419,-5.9844,-5.9404,-5.8998,-5.8457,-5.7611,-5.6325,-5.3112,-5.0939,-4.9684,-5.0474,-5.1158,-5.18,-5.2618,-5.3463,-5.4142,0.0,0.0,0.0,0.0,0.0,0.0,0.0,0.0,0.0,0.0,0.0,-2.1876,-2.7837,-2.8079,-2.9651,-3.4095,-3.3867,-3.3418,-3.3301,-3.1855,-3.0586,-2.9609,-2.959,-2.9199,-2.834,-2.9492,-3.0937,-3.2637,-3.4375,-3.6094,-3.7754,-3.8574,-3.8984,-3.8856,-3.6699,-3.343,-2.9501,-2.7784,-2.6668,-2.6068,-2.8592,0.0,0.0,0.0,0.0,0.0,0.0,0.0,0.0,0.0,0.0,0.0,0.0,0.0,0.0,0.0,0.0,0.0,0.0,0.0,0.0,0.0,0.0,0.0,0.0,0.0,0.0,0.0,0.0,0.0,0.0,0.0,0.0,0.0,0.0,0.0,0.0,0.0,0.0,-4.1384,-4.4662,0.0,0.0,0.0,0.0,-4.8781,-5.0135,-5.1623,-5.3179,-5.4634,-5.6089,-5.7509,-5.8998,-6.0452,-6.1941,-6.2042,-6.2821,-6.4241,-6.3565,-6.3599,-6.4309,-6.4275,-6.3497,-6.2144,-6.211,-6.0858,-5.8558,-5.4905,-5.371,-5.4136,-5.3471,-5.4521,-5.6361,-5.5671,-5.5934,-5.6418,0.0,0.0,0.0,0.0,0.0,0.0,0.0,0.0,-2.0773,-2.0522,-2.3092,-2.5304,-2.6119,-2.9842,-3.2617,-3.3697,-3.5578,-3.6152,-3.4785,-3.4121,-3.291,-3.0918,-3.0273,-2.9961,-2.9961,-3.1211,-3.2851,-3.4863,-3.6601,-3.8184,-3.9609,-3.9902,-4.0195,-4.0449,-3.7958,-3.5968,-3.4197,-3.1739,-2.9359,-2.7342,-2.958,-2.9805,0.0,0.0,0.0,0.0,0.0,0.0,0.0,0.0,0.0,0.0,0.0,0.0,0.0,0.0,0.0,0.0,0.0,0.0,0.0,0.0,0.0,0.0,0.0,0.0,0.0,0.0,0.0,0.0,0.0,0.0,0.0,0.0,0.0,0.0,0.0,0.0,0.0,-4.5125,-4.868,0.0,0.0,-4.9887,-5.1251,-5.2503,-5.3551,-5.5412,-5.8355,-5.9471,-6.0892,-6.2854,-6.3903,-6.4681,-6.5222,-6.5696,-6.5967,-6.6034,-6.5256,-6.5053,-6.5256,-6.4343,-6.3362,-6.2347,-6.1907,-6.0926,-5.9607,-5.8287,-5.7281,-5.6645,-5.6329,-5.7079,-5.8324,-5.7981,-5.8391,-5.9024,0.0,0.0,0.0,0.0,0.0,0.0,0.0,0.0,-2.1103,-1.9861,-2.3629,-2.6427,-2.6352,-3.0728,-3.4306,-3.5536,-3.7364,-3.7578,-3.5723,-3.4785,-3.3281,-3.0957,-3.043,-3.0625,-3.1523,-3.3086,-3.4863,-3.6875,-3.8457,-3.9746,-4.0742,-4.0742,-4.0898,-4.1152,-3.8762,-3.7529,-3.7167,-3.515,-3.2562,-2.9696,-3.1001,-3.1269,-3.0605,0.0,0.0,0.0,0.0,0.0,0.0,0.0,0.0,0.0,0.0,0.0,0.0,0.0,0.0,0.0,0.0,0.0,0.0,0.0,0.0,0.0,0.0,0.0,0.0,0.0,0.0,0.0,0.0,0.0,0.0,0.0,0.0,0.0,0.0,0.0,-4.704,-4.8177,-5.1518,-5.3376,-5.2444,-5.3485,-5.4988,-5.6765,-5.8017,-6.0013,-6.3024,-6.3835,-6.5053,-6.6779,-6.732,-6.7692,-6.7963,-6.7929,-6.7793,-6.7557,-6.6542,-6.6068,-6.6034,-6.4816,-6.3835,-6.3125,-6.2618,-6.1839,-6.0892,-6.1129,-6.052,-5.9377,-5.8798,-5.9346,-6.0352,-6.0023,-6.0665,-6.1557,0.0,0.0,0.0,0.0,0.0,0.0,0.0,-2.0702,-2.1145,-1.9734,-2.1833,-2.4967,-2.8589,-3.0865,-3.4292,-3.9314,-3.8564,-3.7402,-3.6133,-3.3633,-3.1426,-2.9707,-3.0039,-3.1113,-3.2871,-3.5,-3.6914,-3.8633,-3.9922,-4.0762,-4.1172,-4.1172,-4.1172,-4.1191,-3.9059,-3.8091,-3.8073,-3.7692,-3.5953,-3.3448,-3.3129,-3.3125,-3.3125,0.0,0.0,0.0,0.0,0.0,0.0,0.0,0.0,0.0,0.0,0.0,0.0,0.0,0.0,0.0,0.0,0.0,0.0,0.0,0.0,0.0,0.0,0.0,0.0,0.0,0.0,0.0,0.0,0.0,0.0,0.0,0.0,0.0,-4.4257,-4.7249,-4.9613,-5.0361,-5.3008,-5.4756,-5.4889,-5.7019,-5.9264,-6.1322,-6.3463,-6.5358,-6.6846,-6.759,-6.8335,-6.9147,-6.918,-6.9519,-7.0229,-6.8741,-6.8368,-6.9079,-6.759,-6.688,-6.6779,-6.6034,-6.529,-6.4613,-6.458,-6.3734,-6.2448,-6.3193,-6.3057,-6.2245,-6.0757,-6.122,-6.2663,-6.1856,-6.2659,-6.387,0.0,0.0,0.0,0.0,0.0,0.0,0.0,-2.1601,-2.289,-2.1921,-2.6489,-2.9217,-2.785,-3.3103,-3.6607,-3.6166,-3.7464,-3.7988,-3.7012,-3.4238,-3.2129,-3.1035,-3.168,-3.3184,-3.5547,-3.6777,-3.8242,-3.998,-4.0664,-4.1055,-4.1172,-4.1172,-4.1348,-4.1621,-4.0971,-4.0966,-4.1235,-4.112,-4.043,-3.9146,-3.6697,-3.4922,-3.3672,0.0,0.0,0.0,0.0,0.0,0.0,0.0,0.0,0.0,0.0,0.0,0.0,0.0,0.0,0.0,0.0,0.0,0.0,0.0,0.0,0.0,0.0,0.0,0.0,0.0,0.0,0.0,0.0,0.0,0.0,0.0,0.0,-4.677,-4.713,-4.9194,-5.1798,-5.485,-5.7129,-5.9024,-6.045,-6.2028,-6.3657,-6.5174,-6.6339,-6.7658,-6.918,-6.9451,-6.9925,-7.0669,-7.0703,-7.0804,-7.1007,-7.0601,-6.9958,-6.9079,-6.8673,-6.7895,-6.6779,-6.6034,-6.529,-6.458,-6.4038,-6.326,-6.2415,-6.2618,-6.2584,-6.2347,-6.1907,-6.2432,-6.338,-6.3251,-6.3536,-6.4016,0.0,0.0,0.0,0.0,0.0,0.0,0.0,-2.205,-2.3471,-2.3137,-2.7973,-3.0954,-2.9757,-3.4773,-3.7837,-3.7023,-3.7972,-3.7832,-3.6055,-3.3633,-3.2187,-3.2051,-3.3398,-3.5195,-3.7422,-3.832,-3.9414,-4.0801,-4.123,-4.1426,-4.1445,-4.1621,-4.1836,-4.207,-4.2246,-4.2461,-4.2715,-4.2891,-4.2715,-4.2148,-3.9961,-3.8144,-3.6484,-3.3848,-3.2871,-3.276,-3.1391,-3.2649,-3.4885,-3.3833,0.0,0.0,0.0,0.0,0.0,0.0,0.0,0.0,0.0,0.0,0.0,0.0,0.0,0.0,0.0,0.0,0.0,0.0,0.0,0.0,0.0,0.0,0.0,0.0,-4.8207,-5.0391,-5.1768,-5.2965,-5.485,-5.7962,-5.9531,-6.1071,-6.2714,-6.4417,-6.5975,-6.7257,-6.8614,-6.9722,-7.0601,-7.0669,-7.0872,-7.1312,-7.1312,-7.1312,-7.1312,-7.1007,-7.0398,-6.9553,-6.891,-6.8132,-6.7252,-6.617,-6.5459,0.0,-6.4275,-6.3531,-6.2854,-6.2854,-6.2685,0.0,0.0,0.0,0.0,0.0,-6.4581,-6.409,0.0,0.0,0.0,0.0,0.0,0.0,0.0,-2.2135,-2.3393,-2.4044,-2.7904,-3.1226,-3.271,-3.5614,-3.8001,-3.9372,-3.872,-3.709,-3.4258,-3.2598,-3.2168,-3.3125,-3.5176,-3.707,-3.8691,-3.959,-4.043,-4.125,-4.1621,-4.1816,-4.1875,-4.2305,-4.2519,-4.2598,-4.3027,-4.3262,-4.332,-4.3691,-4.3613,-4.3183,-4.2754,-4.1719,-4.0059,-3.6484,-3.5781,-3.6563,-3.5191,-3.538,-3.6252,-3.6391,0.0,0.0,0.0,0.0,0.0,0.0,0.0,0.0,0.0,0.0,0.0,0.0,0.0,0.0,0.0,0.0,0.0,0.0,0.0,0.0,0.0,0.0,0.0,0.0,-5.1079,-5.3892,-5.7184,-5.7663,-5.8321,-6.0086,-6.0864,-6.175,-6.3101,-6.5069,-6.6837,-6.8167,-7.0113,-7.1312,-7.1312,0.0,0.0,0.0,0.0,-7.1312,-7.1312,-7.0635,-7.0229,-7.006,-6.8673,-6.7929,-6.7726,-6.6339,-6.5628,-6.5527,-6.4783,-6.4072,-6.3396,-6.3396,-6.299,-6.2381,-6.2381,-6.3427,-6.5125,-6.6017,-6.5437,-6.4237,0.0,0.0,0.0,0.0,0.0,0.0,0.0,-2.1881,-2.3628,-2.5851,-2.945,-3.1728,-3.1325,-3.4883,-3.7245,-3.6806,-3.658,-3.582,-3.418,-3.3437,-3.375,-3.5332,-3.7129,-3.8574,-3.9629,-4.0488,-4.1172,-4.168,-4.1758,-4.1973,-4.2305,-4.2754,-4.3125,-4.3476,-4.3945,-4.4336,-4.4648,-4.4726,-4.4531,-4.4101,-4.3633,-4.207,-3.9863,-3.8379,-3.7344,-3.6681,-3.637,-3.7616,-3.9331,-3.8989,-3.9888,-4.0902,-3.9245,-3.7939,0.0,0.0,0.0,0.0,0.0,0.0,0.0,0.0,0.0,0.0,0.0,0.0,0.0,0.0,0.0,0.0,0.0,0.0,0.0,-5.2456,-5.479,-5.7304,-6.0655,-6.1134,-6.1283,-6.1672,-6.1822,-6.2626,-6.446,-6.608,-6.758,-6.8891,-7.0381,-7.1312,-7.1312,-7.1312,0.0,-7.1312,-7.1312,-7.1312,-7.1312,-7.1176,-7.05,-6.9316,0.0,0.0,-6.6981,-6.6102,-6.5358,-6.4783,-6.4038,-6.3294,-6.2618,-6.2618,-6.2516,-6.2381,-6.2381,-6.3427,-6.503,-6.5248,-6.5199,-6.5081,0.0,0.0,0.0,0.0,0.0,0.0,0.0,-2.1534,-2.333,-2.5811,-2.9336,-3.129,-3.0502,-3.3937,-3.562,-3.3757,-3.3671,-3.3769,-3.375,-3.416,-3.5273,-3.7226,-3.8945,-4.0176,-4.084,-4.1484,-4.1894,-4.2109,-4.2539,-4.2851,-4.3086,-4.375,-4.416,-4.4375,-4.4844,-4.5156,-4.5371,-4.5566,-4.543,-4.5019,-4.4785,-4.3535,-4.166,-4.0371,-4.0057,-4.0187,-4.0308,-4.1388,-4.2776,-4.2559,-4.2736,-4.2735,-4.1354,-4.0149,-3.9094,0.0,0.0,0.0,0.0,0.0,0.0,0.0,0.0,0.0,0.0,0.0,0.0,0.0,0.0,-4.5198,0.0,0.0,-5.2725,-5.5688,-5.7543,-5.9398,-6.1762,-6.2091,-6.2211,-6.254,-6.26,-6.3033,-6.3954,-6.5639,-6.7028,-6.8107,-6.9772,-7.0884,-7.1255,-7.1312,-7.1312,-7.1312,-7.1312,-7.1312,-7.1312,-7.1312,-7.0939,-7.0195,-6.9823,-6.9045,-6.7929,-6.7151,-6.6406,-6.5662,-6.4918,-6.4174,-6.3429,-6.2685,-6.2618,-6.2922,-6.2516,-6.3427,-6.5065,-6.5554,-6.5511,-6.5301,0.0,0.0,0.0,0.0,0.0,0.0,0.0,-2.0961,-2.2474,-2.4792,-2.7679,-2.9578,-2.9313,-3.2175,-3.3192,-3.1336,-3.1684,-3.2637,-3.3848,-3.5234,-3.6934,-3.8984,-4.0586,-4.1621,-4.2031,-4.2383,-4.2637,-4.2812,-4.3496,-4.3887,-4.3984,-4.4863,-4.5273,-4.5293,-4.582,-4.6055,-4.6074,-4.6406,-4.6348,-4.6035,-4.5859,-4.5117,-4.3906,-4.2645,-4.2851,-4.3785,-4.4079,-4.4569,-4.5238,-4.577,-4.5221,-4.4141,-4.3237,-4.266,-4.1932,-4.0049,-3.9597,0.0,0.0,0.0,0.0,0.0,0.0,0.0,0.0,0.0,-4.2085,-4.5831,-4.7585,-4.931,-5.2449,-5.4491,-5.6406,-5.8381,-5.9817,-6.1044,-6.2121,-6.2391,-6.263,-6.3019,-6.3079,-6.3079,-6.3079,-6.4779,-6.6137,-6.671,-6.8826,-7.0262,-7.0825,-7.1098,-7.1312,-7.1312,-7.1312,-7.1312,-7.1312,-7.1312,-7.1244,-7.1075,-7.0331,-6.9586,-6.8842,-6.7895,-6.7151,-6.6542,-6.5797,-6.5155,-6.4512,-6.3328,-6.3091,-6.3463,-6.3057,-6.375,-6.5065,-6.5842,-6.5778,-6.5301,0.0,0.0,0.0,0.0,0.0,0.0,0.0,0.0,-2.0643,-2.2911,-2.42,-2.5587,-2.706,-2.8297,-2.9549,-3.0779,-3.298,-3.4746,-3.5664,-3.7285,-3.9023,-4.0801,-4.1777,-4.248,-4.293,-4.2988,-4.3398,-4.418,-4.4277,-4.4512,-4.4902,-4.5762,-4.6152,-4.6191,-4.7012,-4.7363,-4.7363,-4.7422,-4.7422,-4.7305,-4.6543,-4.5918,-4.5425,-4.5412,-4.5086,-4.4584,-4.5068,-4.5165,-4.5253,-4.7034,-4.6928,-4.5999,-4.5874,-4.5799,-4.5221,-4.2559,-4.0802,-3.9702,-3.9529,-3.9702,0.0,-3.8133,-3.8668,-4.0235,0.0,0.0,-4.7968,-5.0155,-5.2553,-5.457,-5.5568,-5.6855,-5.8441,-6.0446,-6.1882,-6.278,-6.2959,-6.3438,-6.3617,-6.3139,-6.3079,-6.3079,-6.3079,-6.4382,-6.5204,-6.5328,-6.7838,-6.9412,-6.9409,-7.0574,-7.1312,-7.1312,-7.1312,-7.1312,-7.1312,-7.1312,-7.0973,-7.0297,-6.9586,-6.8808,-6.7996,-6.6576,-6.5899,-6.5764,-6.5053,-6.4681,-6.458,-6.441,-6.4038,-6.3577,-6.4271,-6.4742,-6.4999,-6.5131,-6.5238,-6.5301,0.0,0.0,0.0,0.0,0.0,0.0,0.0,0.0,0.0,0.0,-2.2429,-2.3611,-2.4205,-2.545,-2.6957,-2.8855,-3.1133,-3.3281,-3.5137,-3.7578,-3.9824,-4.1816,-4.2969,-4.3652,-4.3848,-4.4082,-4.4394,-4.4766,-4.5254,-4.5605,-4.5781,-4.6641,-4.7051,-4.707,-4.7422,-4.7578,-4.7578,-4.7578,-4.7578,-4.7558,-4.7187,-4.6641,-4.6032,-4.6619,-4.6351,-4.5788,-4.6052,-4.6404,0.0,-4.6559,-4.62,-4.5899,-4.62,-4.5648,-4.4568,-4.3062,-4.148,-4.0284,-4.0697,0.0,0.0,0.0,-4.2887,-4.5281,-4.724,-4.9504,-5.1937,-5.423,-5.6184,-5.7782,-5.886,-6.0116,-6.1283,0.0,-6.3019,-6.3498,-6.3139,-6.3288,-6.3228,-6.257,-6.2839,-6.3079,-6.3079,-6.3924,-6.4605,-6.5032,-6.7269,-6.8761,-6.9121,-7.0574,-7.1312,-7.1312,-7.1312,-7.1312,-7.1312,-7.1312,-7.1142,-7.0838,-7.0534,-6.9992,-6.918,-6.8166,-6.7184,-6.6305,-6.5561,-6.5222,-6.5155,-6.4309,-6.4325,-6.4881,-6.4329,-6.5126,-6.6388,-6.5985,-6.5569,-6.5301,0.0,0.0,0.0,0.0,0.0,0.0,0.0,0.0,0.0,0.0,-2.0496,-2.1618,-2.2088,-2.3944,-2.5788,-2.7182,-2.9512,-3.1875,-3.4199,-3.7402,-4.0176,-4.2344,-4.3691,-4.4512,-4.4746,-4.5156,-4.543,-4.5547,-4.6289,-4.666,-4.666,-4.7402,-4.7754,-4.7754,-4.7871,-4.793,-4.793,-4.793,-4.793,-4.791,-4.8355,-4.7897,-4.7267,-4.7821,-4.7553,-4.6631,-4.63,-4.6421,-4.6351,-4.502,-4.4468,-4.4468,-4.5171,-4.4769,-4.3865,-4.3011,-4.1966,-4.1129,-4.1629,0.0,0.0,-4.4555,-4.641,-4.8872,-5.1123,-5.2982,-5.5083,-5.8118,-5.9668,-6.0745,-6.1732,-6.269,-6.3258,-6.3109,-6.3588,-6.3767,-6.3169,-6.3079,-6.278,-6.1942,-6.2091,-6.2331,-6.251,-6.3258,-6.419,-6.5063,-6.6839,-6.8355,-6.9121,-7.0574,-7.1312,-7.1312,-7.1312,-7.1312,-7.1312,-7.1312,-7.1312,-7.1312,-7.1109,-7.0601,-6.9857,-6.891,-6.7861,-6.6779,-6.6237,-6.6,-6.5899,-6.4647,-6.48,-6.5758,-6.4734,-6.5499,-6.7125,-6.6605,-6.5915,-6.5301,0.0,0.0,0.0,0.0,0.0,0.0,0.0,0.0,0.0,0.0,0.0,0.0,0.0,-2.4482,-2.6406,-2.6426,-2.916,-3.1621,-3.334,-3.707,-4.0176,-4.2344,-4.3691,-4.4785,-4.5625,-4.6055,-4.6465,-4.6875,-4.7324,-4.7539,-4.7558,-4.7988,-4.8183,-4.8203,-4.8633,-4.8808,-4.8808,-4.8808,-4.8808,-4.8914,-5.0319,-5.0089,-4.9238,-5.0072,-4.8944,-4.6923,-4.5479,-4.4232,-4.3037,-4.2459,-4.1907,-4.1656,-4.2735,-4.379,-4.4292,-4.266,-4.2289,-4.2461,-4.2685,0.0,-4.6228,-4.7958,-4.8205,-4.9308,-5.4827,-5.6131,-5.7443,-6.1994,-6.3408,-6.3857,-6.3887,-6.3947,-6.3767,-6.3169,-6.3588,-6.3767,-6.3169,-6.3079,-6.26,-6.1313,-6.0565,-6.0446,0.0,-6.2331,-6.3706,-6.5032,-6.6365,-6.7806,-6.9121,-7.0574,-7.1312,-7.1312,-7.1312,-7.1312,-7.1312,-7.1312,-7.1312,-7.1312,-7.0567,-6.9857,-6.9079,-6.7557,-6.6846,-6.6812,-6.6779,-6.6779,-6.6711,-6.5933,-6.5767,-6.5902,-6.597,-6.6167,-6.6451,-6.65,-6.5999,-6.5301,0.0,0.0,0.0,0.0,0.0,0.0,0.0,0.0,0.0,0.0,0.0,0.0,0.0,0.0,0.0,0.0,-2.8086,-2.9902,-3.1621,-3.5625,-3.8633,-4.0215,-4.3183,-4.5078,-4.5664,-4.6367,-4.6933,-4.7363,-4.7793,-4.7988,-4.8008,-4.8437,-4.8633,-4.8652,-4.8789,-4.8867,-4.8867,-4.8867,-4.9728,-5.1224,-5.0539,-5.0676,-5.1366,-5.0608,-4.8216,-4.5314,0.0,-4.2623,-4.1153,-3.9848,-3.9546,-3.9823,-4.0576,-4.0802,-4.0812,-4.0743,-4.2057,-4.3684,-4.4551,0.0,-4.8355,-4.9569,-5.1243,-5.3619,-5.7266,-5.8927,-6.0502,-6.3207,-6.3199,-6.248,-6.1583,-6.2121,-6.2361,-6.1283,-6.272,-6.3767,-6.3169,-6.3079,-6.2421,-6.0655,-6.1014,0.0,0.0,0.0,0.0,-6.494,-6.7266,-6.8699,-6.9217,-7.0574,-7.1312,-7.1312,-7.1312,-7.1312,-7.1312,-7.1312,-7.1312,-7.1312,-7.1075,-7.0297,-6.9079,-6.8571,-6.7793,-6.6812,-6.6812,-6.6812,-6.6711,-6.612,-6.6214,-6.6743,-6.6417,-6.668,-6.7286,-6.7303,-6.6439,-6.5228,0.0,0.0,0.0,0.0,0.0,0.0,0.0,0.0,0.0,0.0,0.0,0.0,0.0,0.0,0.0,0.0,0.0,-2.8496,-3.0078,-3.3359,-3.6016,-3.7773,-4.0391,-4.2148,-4.2891,-4.3437,-4.416,-4.5058,-4.5625,-4.623,-4.6855,-4.7285,-4.7578,-4.7734,-4.7871,-4.7949,-4.7949,-4.7949,-4.8791,-5.0115,-4.9216,-4.9475,-4.992,-4.8636,-4.6045,0.0,-4.1718,-4.0275,-3.8868,-3.7789,-3.7663,-3.804,-3.8391,-3.8517,-3.8842,-4.0069,-4.2065,-4.4462,-4.6796,-4.8624,-5.0515,-5.2295,-5.3867,-5.5666,-5.8604,-5.944,-6.0256,-6.2318,-6.1584,-6.025,-5.9498,-5.9697,-5.9757,-5.9129,-6.0446,-6.1732,-6.2301,-6.2151,-6.1613,-6.0565,-6.1014,-6.1134,0.0,0.0,0.0,-6.5741,-6.7874,-6.9409,-6.9949,-7.0791,-7.1312,-7.1312,-7.1312,-7.1312,-7.1312,-7.1312,-7.1312,-7.1312,-7.077,-7.0026,-6.9079,-6.8538,-6.776,-6.6812,-6.6812,-6.681,-6.6814,-6.6144,-6.6283,-6.6916,-6.6197,-6.6292,-6.6806,-6.6512,-6.5742,-6.4861,0.0,0.0,0.0,0.0,0.0,0.0,0.0,0.0,0.0,0.0,0.0,0.0,0.0,0.0,0.0,0.0,0.0,0.0,-2.8711,-3.043,-3.2519,-3.5019,-3.5684,-3.6562,-3.7793,-3.7891,-3.875,-4.0449,-4.1269,-4.2519,-4.418,-4.457,-4.498,-4.5391,-4.5801,-4.5976,-4.5976,-4.5957,-4.5956,-4.6031,-4.6702,-4.6343,-4.5314,-4.4713,-4.2861,-4.03,-3.8642,-3.7337,-3.6358,-3.6358,-3.6383,-3.6408,-3.6458,-3.7333,-3.8589,-4.0937,-4.2837,-4.5074,-4.9331,-5.0937,-5.2297,-5.5844,-5.5759,-5.5523,-5.8802,-5.7917,-5.7112,-5.9777,-5.8838,-5.7536,0.0,0.0,-5.6316,-5.6915,-5.7184,-5.8261,-6.0835,-6.0655,-6.0475,0.0,0.0,0.0,0.0,0.0,0.0,-6.7132,0.0,-6.9855,-7.1222,-7.1312,-7.1312,-7.1312,-7.1312,-7.1312,-7.1312,-7.1312,-7.1312,-7.1312,-6.9857,-6.9147,-6.9045,-6.7557,-6.6846,-6.6812,-6.6812,-6.6882,-6.6969,-6.6283,-6.6109,-6.6235,-6.5501,-6.5294,-6.5228,-6.4494,-6.4163,-6.42,0.0,0.0,0.0,0.0,0.0,0.0,0.0,0.0,0.0,0.0,0.0,0.0,0.0,0.0,0.0,0.0,0.0,0.0,-2.6992,-2.8945,-3.0508,-3.1484,-3.4101,-3.5859,-3.6484,-3.7441,-3.8457,-3.9531,-3.9746,-4.0273,-4.1055,-4.1152,-4.1269,-4.1367,-4.1484,-4.1523,-4.1504,-4.1152,-4.2514,-4.4968,-4.3565,-4.4542,-4.6464,-4.4211,-4.2208,-4.035,-3.9094,-3.7663,-3.6358,-3.6358,0.0,0.0,-3.7965,-3.9341,-4.1019,-4.3756,-4.6035,-4.8367,-5.1619,-5.3113,-5.4112,-5.5893,-5.5827,-5.571,-5.7958,-5.7863,-5.7658,-5.8132,-5.6997,-5.5175,0.0,0.0,0.0,-5.5658,-5.856,0.0,-6.2421,-6.2421,0.0,0.0,0.0,-6.2391,-6.257,-6.512,0.0,0.0,-6.9676,-7.0882,-7.1312,-7.1312,-7.1312,-7.1312,-7.1312,-7.1312,-7.1312,-7.1312,-7.1312,-7.1312,-7.0364,-6.962,-6.9079,-6.8064,-6.732,-6.6812,-6.6812,-6.6882,-6.7045,-6.6985,-6.6652,-6.6368,-6.6862,-6.6316,-6.5375,-6.5742,-6.5118,-6.4127,0.0,0.0,0.0,0.0,0.0,0.0,0.0,0.0,0.0,0.0,0.0,0.0,0.0,0.0,0.0,0.0,0.0,0.0,0.0,-2.7226,-2.8164,-2.8769,-3.0488,-3.1719,-3.2344,-3.3047,-3.4023,-3.5254,-3.5644,-3.6348,-3.7344,-3.7539,-3.7734,-3.793,-3.8105,-3.8203,-3.8184,-3.8604,-3.9771,0.0,0.0,-4.1306,-4.2936,-4.1128,-3.9697,-3.8617,-3.799,-3.7462,-3.7186,0.0,0.0,-3.8894,-4.0249,-4.1889,-4.3785,-4.6618,0.0,-5.0511,-5.333,-5.4873,-5.5792,-5.642,-5.6168,-5.5821,-5.6164,-5.5548,-5.4637,-5.3834,-5.2439,0.0,-4.9312,0.0,0.0,0.0,0.0,0.0,-6.2361,-6.266,-6.2929,0.0,-6.3887,0.0,-6.4336,-6.6084,-6.7419,0.0,-7.0096,-7.1312,-7.1312,-7.1312,-7.1312,-7.1312,-7.1312,-7.1312,-7.1312,-7.1312,-7.1312,-7.1312,-7.0229,-6.9485,-6.9079,-6.7929,-6.7184,-6.6812,0.0,-6.6919,-6.712,-6.7271,-6.6932,-6.6458,-6.6975,-6.6402,-6.5375,-6.5815,-6.5191,-6.409,0.0,0.0,0.0,0.0,0.0,0.0,0.0,0.0,0.0,0.0,0.0,0.0,0.0,0.0,0.0,0.0,0.0,0.0,0.0,0.0,-2.6074,-2.6816,-2.6543,-2.6738,-2.748,-2.7559,-2.8359,-2.9941,-3.0723,-3.1914,-3.3476,-3.3848,-3.4238,-3.4648,-3.5,-3.5156,-3.5289,-3.6485,-3.7146,-3.7183,-3.7673,-3.7863,-3.7739,0.0,-3.6784,-3.6358,-3.6358,-3.6985,-3.809,0.0,-4.0902,-4.1279,-4.3162,-4.4844,-4.6677,-4.9439,-5.0996,-5.2402,-5.5089,-5.657,-5.7349,-5.7349,-5.6821,-5.5829,-5.3881,-5.2384,-5.0658,-4.8378,-4.7116,-4.6408,-4.6007,-4.7608,-4.9733,-5.1977,0.0,-5.7812,-6.1792,-6.2361,-6.3258,-6.5712,-6.5503,-6.5413,-6.6071,-6.6827,-6.7558,-6.8234,-7.01,-7.1199,-7.1312,-7.1312,-7.1312,-7.1312,-7.1312,-7.1312,-7.1312,-7.1312,-7.1312,-7.1312,-6.9891,-6.9248,-6.918,-6.7658,-6.6948,-6.6948,0.0,0.0,-6.7302,-6.7196,-6.6926,-6.6512,-6.6623,-6.6109,-6.5301,-6.5411,-6.4971,-6.4237,0.0,0.0,0.0,0.0,0.0,0.0,0.0,0.0,0.0,0.0,-1.8196,-1.9131,0.0,0.0,0.0,0.0,0.0,0.0,0.0,0.0,0.0,-2.5957,-2.623,-2.6465,-2.6602,-2.6953,-2.7617,-2.8613,-2.8769,-2.9375,-3.0351,-3.043,-3.0508,-3.0586,-3.0664,-3.0684,-3.078,-3.184,-3.2899,-3.3922,-3.4699,-3.577,-3.6634,-3.6533,0.0,0.0,-3.6358,-3.6483,-3.7262,-4.1229,-4.2861,-4.3765,-4.6803,-4.8586,-5.0117,-5.2879,-5.416,-5.5189,-5.7499,-5.8604,-5.9081,-5.9081,-5.7976,-5.5917,-5.2497,-5.1433,0.0,-4.5678,-4.5207,-4.5179,-4.4026,-4.5933,-4.8835,-5.2426,0.0,0.0,0.0,0.0,-6.4246,0.0,0.0,0.0,0.0,0.0,0.0,0.0,0.0,0.0,-7.1255,-7.1312,-7.1312,-7.1312,-7.1312,-7.1312,-7.1312,-7.1312,-7.1312,-7.1312,-7.0432,-6.9992,-6.9958,-6.8402,-6.7726,-6.7658,-6.6406,0.0,-6.7267,-6.6595,-6.6387,-6.6549,-6.721,-6.6586,-6.5375,-6.6035,-6.5778,-6.5007,0.0,0.0,0.0,0.0,0.0,0.0,0.0,-1.682,-1.7101,-1.8143,-1.9141,-2.0076,-2.0622,-2.1397,-2.2612,0.0,0.0,0.0,0.0,0.0,0.0,0.0,-2.5937,-2.6055,-2.6055,-2.6465,-2.6992,0.0,0.0,-2.8281,-2.8906,-2.8906,-2.8906,-2.8906,-2.8906,-2.8906,-2.8996,-3.0832,-3.2075,-3.2769,-3.4652,-3.5858,-3.6358,0.0,0.0,0.0,0.0,0.0,0.0,-4.0676,-4.3212,-4.5698,-4.9012,-5.0845,-5.2201,-5.4687,-5.5817,-5.6721,-5.8956,-5.996,-6.0236,-5.9633,-5.76,-5.4845,-5.1713,0.0,0.0,-4.3389,-4.2943,-4.297,-4.1983,-4.4526,0.0,0.0,0.0,0.0,0.0,0.0,0.0,0.0,0.0,0.0,0.0,0.0,0.0,0.0,0.0,0.0,-7.1255,-7.1312,-7.1312,-7.1312,-7.1312,-7.1312,-7.1312,-7.1312,-7.1312,-7.1312,-7.0534,-6.9992,-6.9586,-6.8436,-6.7692,-6.7286,-6.7052,0.0,-6.7267,-6.7451,-6.7294,-6.7136,-6.754,-6.721,-6.6586,-6.699,-6.6623,-6.5815,0.0,0.0,0.0,0.0,0.0,0.0,0.0,-1.7542,-1.7903,-1.9225,-2.0442,-2.1125,-2.0869,-2.1336,-2.239,0.0,0.0,0.0,0.0,0.0,0.0,0.0,0.0,0.0,0.0,0.0,0.0,0.0,0.0,0.0,0.0,0.0,0.0,0.0,0.0,-2.8301,-2.8495,-3.1133,-3.2398,0.0,0.0,-3.6533,0.0,0.0,0.0,0.0,0.0,0.0,0.0,0.0,-4.2559,-4.5623,-4.8837,-5.1423,-5.3607,-5.5365,-5.6595,-5.7826,-5.9784,-6.0738,-6.0889,-5.9633,-5.6821,-5.3554,-5.0578,-4.7216,0.0,-4.1536,-4.1203,-4.1175,-4.0516,-4.306,-4.5933,0.0,-5.0122,-5.3563,-5.9279,-6.0206,-6.1912,0.0,-6.6909,0.0,0.0,0.0,0.0,0.0,0.0,0.0,-7.1255,-7.1312,-7.1312,-7.1312,-7.1312,-7.1312,-7.1312,-7.1312,-7.1312,-7.1312,-7.0703,-7.006,-6.9316,-6.8504,-6.776,-6.71,-6.7684,0.0,0.0,-6.8155,-6.8182,-6.7687,-6.7687,-6.7687,-6.7687,-6.7687,-6.7173,-6.6366,0.0,0.0,0.0,0.0,0.0,0.0,0.0,-1.8196,-1.8985,-2.0681,-2.1575,-2.1895,-2.1181,-2.2331,-2.3111,0.0,0.0,0.0,0.0,0.0,0.0,0.0,0.0,0.0,0.0,0.0,0.0,0.0,0.0,0.0,0.0,0.0,0.0,0.0,0.0,0.0,0.0,-3.1133,0.0,0.0,0.0,0.0,0.0,0.0,0.0,0.0,0.0,0.0,0.0,0.0,0.0,-4.153,-4.4342,-4.9464,-5.4461,-5.4662,0.0,0.0,-6.001,-6.0738,-6.0788,-5.9156,-5.6244,-5.2734,-4.8458,0.0,-4.3822,-4.0506,-4.0636,-4.1175,-4.0516,-4.1175,-4.324,0.0,-4.8985,-5.2007,-5.9099,-6.0625,-6.2271,-6.5682,0.0,0.0,0.0,0.0,0.0,0.0,0.0,0.0,0.0,-7.1312,-7.1312,-7.1312,-7.1312,-7.1312,-7.1312,-7.1312,-7.1312,-7.1312,-7.1244,-7.0804,-7.006,-6.9316,-6.8538,-6.7811,-6.7374,0.0,0.0,-6.7581,-6.7673,-6.7687,-6.7687,-6.7687,-6.7687,-6.7687,-6.7173,-6.6366,0.0,0.0,0.0,0.0,0.0,0.0,-1.8076,-1.841,-1.9185,-2.1122,-2.2377,-2.2647,-2.1891,-2.2606,-2.3042,-2.2741,0.0,0.0,0.0,0.0,0.0,0.0,0.0,0.0,0.0,0.0,0.0,0.0,0.0,0.0,0.0,0.0,0.0,0.0,0.0,0.0,0.0,0.0,0.0,0.0,0.0,0.0,0.0,0.0,0.0,0.0,0.0,0.0,0.0,0.0,0.0,0.0,-3.9747,-4.3539,0.0,0.0,-5.3783,-5.6294,-5.9081,-6.0487,-6.0788,-5.9106,-5.544,-5.155,-4.8859,-4.5457,-4.2361,-4.0946,-4.0723,-4.0576,-3.9918,-4.0337,-4.1654,-4.4287,-4.4945,-4.7219,-5.3294,-5.473,-5.7124,-6.2421,0.0,0.0,0.0,0.0,0.0,0.0,0.0,0.0,0.0,-7.1312,-7.1312,-7.1312,-7.1312,-7.1312,-7.1312,-7.1312,-7.1075,-7.0635,-7.0635,-6.9992,-6.8808,-6.8504,-6.7963,-6.7269,-6.7133,0.0,0.0,-6.7537,-6.7637,-6.7687,-6.7687,-6.7687,-6.7687,-6.7687,-6.7173,-6.6366,0.0,0.0,0.0,0.0,0.0,-1.6647,-1.8116,-1.8584,-1.9359,-2.1069,-2.2677,-2.3118,-2.1833,-2.2476,-2.2606,-2.1827,-2.2811,0.0,0.0,0.0,0.0,0.0,0.0,0.0,0.0,0.0,-2.6152,-2.7012,-2.6719,0.0,0.0,0.0,0.0,0.0,0.0,0.0,0.0,0.0,0.0,0.0,0.0,0.0,0.0,0.0,0.0,0.0,0.0,0.0,0.0,0.0,0.0,0.0,0.0,-3.8542,-4.2308,0.0,-5.0619,-5.3758,-5.7323,-5.9332,-6.0085,-5.8604,-5.4587,-5.0613,-4.9093,-4.5029,-4.1714,-4.1696,-4.1145,-4.0487,-3.9828,-3.9918,-4.0606,-4.2102,-4.2372,-4.4197,-4.9494,-5.081,-5.3324,0.0,0.0,0.0,0.0,0.0,0.0,0.0,0.0,0.0,0.0,-7.1312,-7.1312,-7.1312,-7.1312,-7.1312,-7.1312,-7.1312,-7.0939,-7.0195,-7.0195,-6.9383,-6.7895,-6.7895,-6.7387,-6.6524,0.0,0.0,0.0,-6.7465,-6.7637,-6.7687,-6.7687,-6.7687,-6.765,-6.743,-6.6843,-6.6035,0.0,0.0,0.0,0.0,0.0,0.0,-1.7796,-1.8784,-1.9679,-2.0561,-2.2405,-2.2835,-2.0943,-2.1653,-2.1723,-2.0461,-2.1712,0.0,0.0,0.0,0.0,0.0,0.0,0.0,0.0,0.0,-2.6152,-2.7012,-2.7012,-2.7441,-2.8281,0.0,0.0,0.0,0.0,0.0,0.0,0.0,0.0,0.0,0.0,0.0,0.0,0.0,0.0,0.0,0.0,0.0,0.0,0.0,0.0,0.0,0.0,-3.5487,-3.6709,-4.2258,-4.7405,-5.19,-5.4687,-5.7047,-5.8478,-5.7323,-5.3708,-5.0003,-4.8476,-4.5103,-4.23,-4.2376,-4.1833,-4.1175,-4.0516,-3.9858,-4.0068,-4.2043,-4.2372,-4.4197,-4.9494,-5.081,0.0,0.0,0.0,0.0,0.0,0.0,0.0,0.0,0.0,0.0,0.0,-7.1312,-7.1312,-7.1312,-7.1312,-7.1312,-7.1312,-7.1312,-7.0939,-7.0195,-7.0195,-6.9383,-6.7895,-6.7895,-6.7083,0.0,0.0,0.0,0.0,-6.7213,-6.7637,-6.7687,-6.7687,-6.7687,-6.7577,-6.6806,-6.5999,-6.5191,0.0,0.0,0.0,0.0,0.0,0.0,0.0,-1.7702,-1.8464,-1.9359,-2.0014,-2.0227,-1.9891,-1.9487,-1.9613,-2.0367,-2.0809,0.0,0.0,0.0,0.0,0.0,0.0,0.0,0.0,0.0,-2.6309,-2.7461,-2.7168,-2.7461,-2.8301,-2.8301,-2.8144,0.0,0.0,0.0,0.0,0.0,0.0,0.0,0.0,0.0,0.0,0.0,0.0,0.0,0.0,0.0,0.0,0.0,0.0,0.0,0.0,0.0,0.0,-3.7538,-4.1957,-4.6677,-4.9088,-5.1373,-5.2678,-5.1172,-4.8611,-4.6289,-4.5899,-4.3725,-4.1803,-4.1725,-4.1534,-4.1055,-3.9918,-3.9559,-4.0068,-4.2043,-4.2372,-4.3569,0.0,0.0,0.0,0.0,0.0,0.0,0.0,0.0,0.0,0.0,0.0,0.0,0.0,-7.1312,-7.1312,-7.1312,-7.1312,-7.1312,-7.1312,-7.1312,-7.0703,-6.9451,-6.9451,-6.8639,-6.7151,-6.6609,0.0,0.0,0.0,0.0,0.0,-6.5668,-6.6182,-6.6852,-6.7488,-6.7357,-6.6843,-6.6586,-6.5632,-6.442,0.0,0.0,0.0,0.0,0.0,0.0,0.0,-1.7034,-1.7622,-1.8183,-1.8357,-1.8611,-1.9145,-1.829,-1.8251,-1.9775,-2.0223,0.0,0.0,0.0,0.0,0.0,0.0,0.0,0.0,-2.5898,-2.6621,-2.791,-2.7793,-2.8164,-2.9023,-2.9023,-2.8691,-2.8144,-2.8418,0.0,0.0,0.0,0.0,0.0,0.0,0.0,-3.5491,0.0,0.0,0.0,0.0,0.0,0.0,0.0,0.0,0.0,0.0,0.0,0.0,0.0,-3.7663,-4.1404,-4.4669,-4.7179,-4.8611,-4.7581,-4.5648,-4.4061,-4.4091,-4.2614,-4.1215,-4.137,-4.1384,-4.1055,-3.9978,-3.9589,-3.9888,-4.1384,-4.1833,-4.291,-4.5574,0.0,0.0,0.0,0.0,0.0,0.0,0.0,0.0,0.0,0.0,0.0,0.0,0.0,-7.1312,-7.1312,-7.1312,-7.1312,-7.1312,-7.1041,-7.0297,-6.9079,-6.8504,-6.759,-6.6373,-6.5628,0.0,0.0,0.0,0.0,0.0,-6.4498,-6.5232,-6.6427,-6.664,-6.6665,-6.6439,-6.5815,-6.4934,-6.4053,0.0,0.0,0.0,0.0,0.0,0.0,0.0,-1.6727,-1.719,-1.719,-1.7328,-1.7809,-1.8677,-1.7782,-1.7582,-1.8758,0.0,0.0,0.0,0.0,0.0,0.0,0.0,0.0,-2.5742,-2.6172,-2.7012,-2.8301,-2.8711,-2.9355,-3.0195,-3.0195,-2.9746,-2.8926,-2.8926,-2.8691,0.0,0.0,0.0,0.0,0.0,0.0,0.0,0.0,0.0,0.0,0.0,0.0,0.0,0.0,0.0,0.0,0.0,0.0,0.0,0.0,0.0,0.0,0.0,-4.3966,-4.5648,-4.5573,-4.4016,-4.2557,-4.2636,-4.1571,0.0,-4.1192,-4.1324,-4.1115,-4.0516,-3.9858,-3.9679,-4.0427,-4.1085,-4.2402,0.0,0.0,0.0,0.0,0.0,0.0,0.0,0.0,0.0,0.0,0.0,0.0,0.0,0.0,-7.1222,-7.1312,-7.1278,-7.1244,-7.1244,-7.0534,-6.9789,-6.9011,-6.7523,-6.6406,-6.5662,-6.4884,0.0,0.0,0.0,0.0,0.0,-6.3647,-6.4735,-6.6114,-6.537,-6.5638,-6.6166,-6.4677,-6.4053,-6.387,0.0,0.0,0.0,0.0,0.0,0.0,0.0,0.0,0.0,0.0,-1.654,-1.674,-1.7181,-1.6981,-1.7194,0.0,0.0,0.0,0.0,0.0,0.0,0.0,0.0,0.0,-2.5742,-2.6172,-2.7012,-2.8301,-2.8711,-2.9355,-3.0195,-3.0195,-2.9746,-2.8926,-2.8926,-2.8691,0.0,0.0,0.0,0.0,0.0,0.0,0.0,0.0,0.0,0.0,-3.6358,-3.6282,0.0,0.0,0.0,0.0,0.0,0.0,0.0,0.0,-3.3746,-3.455,-3.5705,0.0,-3.912,-3.8291,-3.799,-3.8319,0.0,-3.9605,0.0,0.0,0.0,-4.0576,-4.0427,-3.9858,-3.9978,-4.1624,-4.2462,-4.3449,-4.5065,0.0,0.0,0.0,0.0,0.0,0.0,0.0,0.0,0.0,0.0,0.0,0.0,0.0,-7.017,-7.1312,-7.0737,-7.0466,-7.0466,-7.0297,-6.9519,-6.8166,-6.7252,-6.6406,-6.5662,-6.4343,0.0,0.0,0.0,0.0,-6.2779,-6.3462,-6.3971,-6.4391,-6.4911,-6.4896,-6.4452,-6.4177,-6.3686,-6.3099,0.0,0.0,0.0,0.0,0.0,0.0,0.0,0.0,0.0,0.0,0.0,-1.6433,-1.686,-1.6914,0.0,0.0,0.0,0.0,0.0,0.0,0.0,0.0,0.0,-2.5742,-2.5742,-2.6348,-2.7305,-2.8574,-2.9199,-2.9941,-3.0801,-3.0605,-3.0059,-2.9199,-2.8809,-2.8398,0.0,0.0,0.0,0.0,-3.052,0.0,0.0,0.0,0.0,0.0,-3.6168,-3.6031,0.0,-3.5504,-3.4801,-3.3947,0.0,0.0,0.0,0.0,-3.3294,-3.352,-3.352,-3.4951,-3.6282,-3.568,-3.6125,-3.704,-3.816,-3.8866,0.0,0.0,0.0,-4.0307,-4.0008,-3.9918,-4.0307,-4.1683,-4.2701,-4.4436,0.0,0.0,0.0,0.0,0.0,0.0,0.0,0.0,0.0,0.0,0.0,0.0,0.0,0.0,-6.8876,-6.9353,-6.9591,-6.9857,-7.0195,-6.9485,-6.8538,-6.7387,-6.6305,-6.5392,-6.4647,-6.3531,-6.2821,0.0,0.0,0.0,-6.1443,-6.2248,-6.2591,-6.2717,-6.2828,-6.2897,-6.2833,-6.2522,-6.2368,-6.2271,0.0,0.0,0.0,0.0,0.0,0.0,0.0,0.0,0.0,0.0,0.0,0.0,0.0,0.0,0.0,0.0,0.0,0.0,0.0,0.0,0.0,0.0,-2.5781,-2.5762,-2.584,-2.6602,-2.7617,-2.8828,-2.9746,-3.0605,-3.1406,-3.1133,-3.0488,-2.9531,-2.875,-2.8125,0.0,0.0,0.0,0.0,-2.8799,0.0,0.0,0.0,0.0,0.0,0.0,0.0,0.0,-3.573,-3.4751,-3.3345,-3.4198,0.0,0.0,0.0,0.0,0.0,-3.3294,-3.4474,-3.5579,-3.5253,-3.5904,-3.6753,-3.7481,-3.844,0.0,0.0,0.0,0.0,0.0,0.0,0.0,0.0,0.0,0.0,0.0,0.0,0.0,0.0,0.0,0.0,0.0,0.0,0.0,0.0,0.0,0.0,0.0,0.0,-6.7316,-6.6971,-6.7992,-6.8876,-6.9485,-6.8335,-6.732,-6.6474,-6.5087,-6.4038,-6.3328,-6.2584,-6.1806,0.0,0.0,0.0,-6.0148,-6.0858,-6.1183,-6.1258,-6.0532,-6.0726,-6.1333,-6.0803,-6.0997,-6.1604,0.0,0.0,0.0,0.0,0.0,0.0,0.0,0.0,0.0,0.0,0.0,0.0,0.0,0.0,0.0,0.0,0.0,0.0,0.0,0.0,0.0,-2.6309,-2.5937,-2.5918,-2.6289,-2.6758,-2.7461,-2.8398,-2.9609,-3.0469,-3.0996,-3.1289,-3.0762,-2.9551,-2.9043,-2.8398,-2.7695,-2.8125,-2.8008,-2.7578,-2.7949,0.0,0.0,0.0,0.0,0.0,0.0,0.0,0.0,-3.4525,-3.4048,-3.3721,-3.342,0.0,0.0,0.0,0.0,0.0,-3.4223,-3.5328,-3.578,-3.3922,-3.3972,-3.4735,-3.6143,-3.6567,0.0,0.0,0.0,0.0,0.0,0.0,0.0,0.0,0.0,0.0,0.0,0.0,0.0,0.0,0.0,0.0,0.0,0.0,0.0,0.0,0.0,0.0,0.0,0.0,-6.5092,-6.6153,-6.6182,-6.6271,-6.6373,-6.6779,-6.6305,-6.4918,-6.4106,-6.3294,-6.2516,-6.1806,-6.1028,0.0,0.0,-6.0317,-6.0114,-6.0216,-6.0291,-6.0279,-6.0253,-6.0357,-6.059,-6.1224,-6.1456,-6.1715,0.0,0.0,0.0,0.0,0.0,0.0,0.0,0.0,0.0,0.0,0.0,0.0,0.0,0.0,0.0,0.0,0.0,0.0,0.0,0.0,-2.7031,-2.707,-2.666,-2.6406,-2.6387,-2.7031,-2.8008,-2.9316,-3.0391,-3.1367,-3.2246,-3.1523,-3.0488,-2.9199,-2.8769,-2.8242,-2.7676,-2.7871,-2.7851,-2.7656,0.0,0.0,0.0,0.0,0.0,0.0,0.0,0.0,0.0,0.0,-3.3947,-3.347,-3.3495,0.0,0.0,0.0,0.0,0.0,-3.3696,-3.4424,-3.4851,-3.4148,-3.5251,-3.6713,-3.7481,0.0,0.0,0.0,0.0,0.0,0.0,0.0,0.0,0.0,0.0,0.0,0.0,0.0,0.0,0.0,0.0,0.0,0.0,0.0,0.0,0.0,0.0,0.0,0.0,0.0,-6.3485,-6.3761,-6.4634,-6.4715,-6.3903,-6.4241,-6.4275,-6.4005,-6.326,-6.2516,-6.1772,-6.0994,-6.025,-5.9539,0.0,-5.9641,-5.893,-5.9336,-5.9268,-5.8937,-5.8999,-5.9288,-5.9798,-6.1104,-6.1604,-6.1715,0.0,0.0,0.0,0.0,0.0,0.0,0.0,0.0,0.0,0.0,0.0,0.0,0.0,0.0,0.0,0.0,0.0,0.0,0.0,-2.5411,-2.7168,-2.75,-2.7285,-2.7109,-2.6992,-2.7734,-2.8906,-3.0508,-3.1582,-3.2559,-3.3379,-3.1894,-3.043,-2.9062,-2.8633,-2.8144,-2.7676,-2.7773,-2.7754,-2.7637,0.0,0.0,0.0,0.0,0.0,0.0,0.0,0.0,0.0,0.0,0.0,0.0,0.0,0.0,0.0,-3.3068,-3.3068,-3.3144,-3.3395,-3.3872,-3.4374,-3.4801,-3.6274,-3.7926,-3.8851,0.0,0.0,0.0,0.0,0.0,0.0,0.0,0.0,0.0,0.0,0.0,0.0,0.0,0.0,0.0,0.0,0.0,0.0,0.0,0.0,0.0,0.0,0.0,0.0,0.0,-6.1407,-6.0995,-6.2256,-6.2464,-6.1327,-6.14,-6.1874,-6.2719,-6.2144,-6.1467,-6.0757,-6.0114,-5.9438,-5.8795,-5.9336,-5.893,-5.7915,-5.8321,-5.8254,-5.7881,-5.7712,-5.8357,-5.9574,-6.1055,-6.1715,-6.1969,0.0,0.0,0.0,0.0,0.0,0.0,0.0,0.0,0.0,0.0,0.0,0.0,0.0,0.0,0.0,0.0,0.0,0.0,0.0,-2.5411,-2.7031,-2.707,-2.7422,-2.7969,-2.8711,-2.9199,-3.0078,-3.1426,-3.3086,-3.373,-3.3398,-3.25,-3.1172,-2.9512,-2.9062,-2.8418,-2.7695,-2.8086,-2.8027,-2.7637,-2.7187,0.0,0.0,0.0,0.0,0.0,0.0,0.0,0.0,0.0,0.0,0.0,0.0,0.0,-3.3068,-3.3068,-3.3068,-3.3294,-3.4324,-3.5002,-3.5336,-3.5386,-3.4801,0.0,-3.8778,-3.882,0.0,0.0,0.0,0.0,0.0,0.0,0.0,0.0,0.0,0.0,0.0,0.0,0.0,0.0,0.0,0.0,0.0,0.0,0.0,0.0,0.0,0.0,0.0,0.0,0.0,-5.8266,-5.8324,-5.8236,-5.8139,-5.8543,-5.9285,-6.0351,-6.0283,-5.9877,-5.9167,-5.9133,-5.8693,-5.7983,-5.8017,-5.7983,-5.7848,-5.7205,-5.734,-5.7814,-5.7137,-5.8288,-6.0397,-6.1286,-6.2076,-6.2705,0.0,0.0,0.0,0.0,0.0,0.0,0.0,0.0,0.0,0.0,0.0,0.0,0.0,0.0,0.0,0.0,0.0,0.0,0.0,-2.4289,-2.6115,-2.7773,-2.7969,-2.8457,-2.9297,-3.0547,-3.209,-3.3926,-3.4844,-3.4648,-3.3398,-3.2285,-3.084,-2.9141,-2.873,-2.8359,-2.8047,-2.7949,-2.7969,-2.8027,-2.7598,-2.7773,0.0,0.0,0.0,0.0,0.0,0.0,0.0,0.0,-3.3068,-3.3068,-3.3068,-3.3068,-3.3068,-3.3068,-3.3068,-3.3169,-3.3596,-3.4349,-3.5127,-3.5454,-3.5228,0.0,0.0,0.0,0.0,0.0,0.0,0.0,0.0,0.0,0.0,0.0,0.0,0.0,0.0,0.0,0.0,0.0,0.0,0.0,0.0,0.0,0.0,0.0,0.0,0.0,0.0,0.0,0.0,-5.7394,-5.7286,-5.6947,-5.6531,-5.7364,-5.776,-5.7686,-5.8867,-5.9268,-5.8998,-5.8524,-5.7915,-5.7205,-5.7205,-5.7205,-5.7205,-5.69,-5.7239,-5.7993,-5.8734,-5.9587,-6.0519,-6.186,-6.2515,-6.2805,0.0,0.0,0.0,0.0,0.0,0.0,0.0,0.0,0.0,0.0,0.0,0.0,0.0,0.0,0.0,0.0,0.0,0.0,-2.2022,-2.3901,-2.5805,-2.7656,-2.7949,-2.8613,-2.9746,-3.1465,-3.3223,-3.498,-3.582,-3.5195,-3.3203,-3.2051,-3.0664,-2.9101,-2.8535,-2.8359,-2.8457,-2.8047,-2.8027,-2.8262,-2.7832,-2.7832,0.0,0.0,0.0,0.0,0.0,0.0,0.0,0.0,-3.3068,-3.3068,-3.3068,-3.3068,-3.3068,-3.3068,-3.2943,-3.2792,-3.2792,-3.3345,-3.4073,-3.4625,0.0,0.0,-4.0279,-4.1672,-4.3049,0.0,0.0,0.0,0.0,0.0,0.0,0.0,0.0,0.0,0.0,0.0,0.0,0.0,0.0,0.0,0.0,0.0,0.0,0.0,0.0,0.0,0.0,0.0,0.0,0.0,-5.5594,-5.5077,-5.4637,-5.5505,-5.5897,-5.573,-5.7077,-5.8093,-5.8626,-5.7881,-5.7273,-5.6799,-5.6562,-5.6461,-5.6461,-5.6461,-5.7009,-5.8116,-5.9762,-6.0696,-6.1331,-6.2725,-6.3209,-6.3209,0.0,0.0,0.0,0.0,0.0,0.0,0.0,0.0,0.0,0.0,0.0,0.0,0.0,0.0,0.0,0.0,0.0,0.0,-2.1744,-2.4683,-2.6387,-2.6387,-2.7207,-2.8457,-3.0137,-3.1875,-3.3203,-3.4082,-3.5801,-3.5312,-3.2754,-3.1914,-3.0801,-2.9531,-2.8672,-2.8516,-2.8887,-2.8476,-2.8301,-2.8262,-2.7832,-2.7676,-2.7617,0.0,0.0,0.0,0.0,0.0,0.0,0.0,-3.3068,-3.3068,-3.3068,-3.3068,-3.3068,-3.3068,-3.2667,-3.2215,-3.2215,-3.224,0.0,0.0,0.0,0.0,0.0,-4.2183,-4.3559,-4.825,0.0,0.0,0.0,0.0,0.0,0.0,0.0,0.0,0.0,0.0,0.0,0.0,0.0,0.0,0.0,0.0,0.0,0.0,0.0,0.0,0.0,0.0,0.0,0.0,-5.2905,-5.2187,-5.2187,-5.2642,-5.3483,-5.4557,-5.4933,-5.6079,-5.7848,-5.7137,-5.6799,-5.6731,-5.6021,-5.5716,-5.5716,-5.5716,-5.6645,-5.8137,-5.9804,-6.1379,-6.2908,-6.3758,-6.409,-6.409,0.0,0.0,0.0,0.0,0.0,0.0,0.0,0.0,0.0,0.0,0.0,0.0,0.0,0.0,0.0,0.0,0.0,0.0,-2.2968,-2.4008,-2.5026,-2.6367,-2.6914,-2.7441,-2.7949,-2.9941,-3.2285,-3.5,-3.4902,-3.3691,-3.1445,-3.0859,-2.9902,-2.8672,-2.8711,-2.8633,-2.8476,-2.834,-2.8301,-2.8281,-2.8164,-2.8105,-2.8066,0.0,0.0,0.0,0.0,0.0,0.0,0.0,0.0,0.0,-3.3068,-3.3068,-3.3068,-3.3068,-3.2943,-3.2817,-3.2817,-3.3395,0.0,0.0,0.0,0.0,0.0,-4.3011,0.0,0.0,0.0,0.0,0.0,0.0,0.0,0.0,0.0,0.0,0.0,0.0,0.0,0.0,0.0,0.0,0.0,0.0,0.0,0.0,0.0,0.0,0.0,0.0,0.0,0.0,-5.1947,-5.1498,-5.1498,-5.1938,-5.2362,-5.2676,-5.3837,-5.5347,-5.7103,-5.6359,-5.575,-5.5243,-5.5006,-5.4938,-5.5075,-5.6645,-5.8237,-5.9769,-6.0831,-6.1579,-6.2076,-6.2881,-6.3209,-6.3209,0.0,0.0,0.0,0.0,0.0,0.0,0.0,0.0,0.0,0.0,-1.8918,-1.8811,0.0,0.0,0.0,0.0,0.0,0.0,0.0,-2.4196,-2.5036,-2.6113,-2.6367,-2.6758,-2.7266,-2.9023,-3.0898,-3.2812,-3.3144,-3.2305,-3.0371,-3.0449,-2.9883,-2.8828,-2.9238,-2.9199,-2.8789,-2.8613,-2.8437,-2.8301,-2.8301,-2.8184,-2.8008,0.0,0.0,0.0,0.0,0.0,0.0,0.0,0.0,0.0,-3.3068,-3.3068,-3.3068,-3.3068,-3.2767,-3.2441,-3.2667,0.0,0.0,0.0,0.0,0.0,0.0,0.0,0.0,0.0,0.0,0.0,0.0,0.0,0.0,0.0,0.0,0.0,0.0,0.0,0.0,0.0,0.0,0.0,0.0,0.0,0.0,0.0,0.0,0.0,0.0,0.0,0.0,0.0,-5.1169,-5.072,-5.0451,-5.0697,-5.1072,-5.1561,-5.254,-5.379,-5.5319,-5.5306,-5.5006,-5.46,-5.494,-5.521,-5.572,-5.7677,-5.9444,-6.0938,-6.14,-6.1987,-6.2639,-6.313,-6.3319,-6.3319,0.0,0.0,0.0,0.0,0.0,0.0,0.0,0.0,0.0,0.0,-1.8838,-1.8731,0.0,0.0,0.0,0.0,0.0,0.0,0.0,-2.502,-2.5742,-2.5742,-2.5781,-2.6367,-2.7578,-2.875,-2.9141,-2.875,-3.084,-3.1035,-2.9473,-3.0351,-3.0332,-2.9531,-3.0,-2.9941,-2.9492,-2.9043,-2.8633,-2.8301,-2.8301,-2.8066,-2.7715,-2.7637,0.0,0.0,0.0,0.0,0.0,0.0,0.0,0.0,-3.3068,-3.3068,-3.3068,-3.3068,-3.234,-3.1662,-3.2265,0.0,0.0,0.0,0.0,0.0,0.0,0.0,0.0,0.0,0.0,0.0,0.0,0.0,0.0,0.0,0.0,0.0,0.0,0.0,0.0,0.0,0.0,0.0,0.0,0.0,0.0,0.0,0.0,0.0,0.0,0.0,0.0,0.0,-5.0451,-4.9853,-4.9284,-4.9194,-4.9728,0.0,-5.1118,-5.19,-5.295,-5.4015,-5.4601,-5.4771,-5.5464,-5.6327,-5.7381,-5.8754,-6.021,-6.1715,-6.1715,-6.2602,-6.398,-6.398,-6.398,-6.398,0.0,0.0,0.0,0.0,0.0,0.0,0.0,0.0,0.0,0.0,0.0,0.0,0.0,0.0,0.0,0.0,0.0,0.0,0.0,-2.5528,-2.5742,-2.5742,-2.6055,-2.6543,-2.7148,-2.7422,-2.7519,-2.7422,-2.8906,-2.9258,-2.8594,-2.9453,-2.957,-2.9082,-2.9863,-2.9766,-2.9023,-2.8613,-2.8379,-2.8301,-2.8301,-2.8242,-2.8086,-2.7402,-2.7031,0.0,0.0,0.0,0.0,0.0,0.0,0.0,-3.3068,-3.3068,-3.3068,-3.3068,-3.2918,-3.2918,0.0,0.0,0.0,0.0,0.0,0.0,0.0,0.0,0.0,0.0,0.0,0.0,0.0,0.0,0.0,0.0,0.0,0.0,0.0,0.0,0.0,0.0,0.0,0.0,0.0,0.0,0.0,0.0,0.0,0.0,0.0,0.0,0.0,-4.9703,-4.9553,-4.9404,-4.9254,-4.8745,-4.9061,0.0,-5.039,-5.1156,-5.2152,-5.3243,-5.4395,-5.5559,-5.5686,-5.7228,-5.9701,-5.9437,-6.0557,-6.2567,-6.2567,-6.2764,-6.3099,-6.3099,-6.3099,-6.3099,0.0,0.0,0.0,0.0,0.0,0.0,0.0,0.0,0.0,0.0,0.0,0.0,0.0,0.0,0.0,0.0,0.0,0.0,0.0,0.0,-2.584,-2.6035,-2.6269,-2.6484,-2.6699,-2.6719,-2.6719,-2.6719,-2.7168,-2.7598,-2.8008,-2.8867,-2.9141,-2.8945,-2.9805,-2.9726,-2.8906,-2.8691,-2.8476,-2.8301,-2.8301,-2.8301,-2.8242,-2.7793,-2.75,-2.7266,-2.6816,0.0,0.0,0.0,0.0,0.0,0.0,0.0,-3.3068,-3.3068,-3.2893,-3.2893,0.0,0.0,0.0,0.0,0.0,0.0,0.0,0.0,0.0,0.0,0.0,0.0,0.0,0.0,0.0,0.0,0.0,0.0,0.0,0.0,0.0,0.0,0.0,0.0,0.0,0.0,0.0,0.0,0.0,0.0,0.0,-4.9254,-4.9134,-4.8805,-4.8805,-4.8656,-4.8327,-4.7997,-4.8364,-4.9368,-5.001,-5.1187,-5.2697,-5.3583,-5.4505,-5.5258,-5.6399,-5.779,-5.9384,-6.0114,-6.1112,-6.2254,-6.2658,-6.2805,-6.2805,-6.2805,-6.2805,-6.2805,0.0,0.0,0.0,0.0,0.0,0.0,0.0,0.0,0.0,0.0,0.0,0.0,0.0,0.0,0.0,0.0,0.0,0.0,0.0,0.0,0.0,-2.6367,-2.6387,-2.6426,-2.6504,-2.6426,-2.6387,-2.6387,-2.5957,-2.6406,-2.7676,-2.8457,-2.8848,-2.8945,-2.9746,-2.9648,-2.8906,-2.8848,-2.8613,-2.8301,-2.8301,-2.8242,-2.8184,-2.8184,-2.7871,-2.7461,-2.7519,-2.8545,-2.9929,-3.0108,0.0,0.0,0.0,0.0,-3.3219,-3.3219,-3.2817,-3.2616,0.0,0.0,0.0,0.0,0.0,0.0,0.0,0.0,0.0,0.0,0.0,0.0,0.0,0.0,0.0,0.0,0.0,0.0,0.0,0.0,0.0,0.0,0.0,0.0,0.0,0.0,0.0,0.0,0.0,0.0,-4.8925,-4.8925,-4.8686,-4.8147,-4.8117,-4.7848,-4.7309,-4.7452,-4.8072,-4.9054,-5.032,-5.1882,-5.3484,-5.4391,-5.4887,-5.5088,-5.7207,-5.828,-5.8652,-6.0591,-6.1374,-6.1484,-6.2291,-6.2511,-6.2401,-6.2401,-6.2401,-6.2438,0.0,0.0,0.0,0.0,0.0,0.0,0.0,0.0,0.0,0.0,-1.7649,0.0,0.0,0.0,0.0,0.0,0.0,0.0,-2.5625,0.0,0.0,-2.6367,-2.6387,-2.6562,-2.6914,-2.6582,-2.6387,-2.6387,-2.5957,-2.6406,-2.7676,-2.8164,-2.8574,-2.8945,-2.9434,-2.9375,-2.8906,-2.8535,-2.834,-2.8301,-2.8301,-2.8066,-2.7754,-2.7754,-2.7246,-2.6602,-2.6973,-2.8167,-2.962,-3.0494,-3.2156,0.0,0.0,0.0,-3.3796,-3.3796,-3.3395,-3.3194,0.0,0.0,0.0,0.0,0.0,0.0,0.0,0.0,0.0,0.0,0.0,0.0,0.0,0.0,0.0,0.0,0.0,0.0,0.0,0.0,0.0,0.0,0.0,0.0,0.0,0.0,0.0,0.0,0.0,0.0,-4.7578,-4.7578,-4.7519,-4.7429,-4.7429,-4.7399,-4.7309,-4.8126,-4.9135,-5.0242,-5.217,-5.3212,-5.3551,-5.4939,-5.5963,-5.6657,-5.7585,-5.8812,-6.0091,-6.0408,-6.0566,-6.0639,-6.1447,-6.1337,-6.0713,-6.0713,-6.0713,-6.0823,0.0,0.0,0.0,0.0,0.0,0.0,0.0,0.0,0.0,0.0,0.0,-1.7884,0.0,0.0,0.0,-2.2667,-2.3384,-2.4295,-2.5625,-2.5742,-2.5937,-2.6367,-2.6152,-2.623,-2.666,-2.625,-2.6016,-2.6016,-2.584,-2.6406,-2.7676,-2.7851,-2.8301,-2.8926,-2.8867,-2.875,-2.8555,-2.8379,-2.8301,-2.8301,-2.8301,-2.7891,-2.7344,-2.7832,-2.748,-2.6836,-2.75,-2.8998,-3.0555,-3.0734,-3.2158,-3.3897,-3.3822,0.0,0.0,0.0,-3.3043,0.0,0.0,0.0,0.0,0.0,0.0,0.0,0.0,0.0,0.0,0.0,0.0,0.0,0.0,0.0,0.0,0.0,0.0,0.0,0.0,0.0,0.0,0.0,0.0,0.0,0.0,0.0,0.0,0.0,0.0,-4.7309,-4.7309,-4.7309,-4.7309,-4.7309,-4.7309,-4.7309,-4.7309,-4.8293,-4.9615,-5.1229,-5.28,-5.3518,-5.3551,-5.5059,-5.5901,-5.6276,-5.7485,-5.8409,-5.9098,-5.9538,-5.9758,-5.9832,-6.0603,-6.0713,-6.0419,-6.0419,-6.0676,-6.1117,0.0,0.0,0.0,0.0,0.0,0.0,0.0,0.0,0.0,0.0,0.0,0.0,0.0,0.0,0.0,0.0,-2.2985,-2.3899,-2.5625,-2.5742,-2.5879,-2.6211,-2.5918,-2.5898,-2.6211,-2.5898,-2.5742,-2.5742,-2.5742,-2.6445,-2.7832,-2.7715,-2.8242,-2.9219,-2.8691,-2.8398,-2.8301,-2.8301,-2.8301,-2.8281,-2.8047,-2.7519,-2.6914,-2.7441,-2.7109,-2.6484,-2.7461,-2.9123,-3.0756,-3.0778,-3.2158,-3.3847,-3.3571,-3.3395,0.0,0.0,0.0,0.0,0.0,0.0,0.0,0.0,0.0,0.0,0.0,0.0,0.0,0.0,0.0,0.0,0.0,0.0,0.0,0.0,0.0,0.0,0.0,0.0,0.0,0.0,0.0,0.0,0.0,0.0,0.0,0.0,0.0,-4.7309,-4.7309,-4.716,-4.713,-4.7309,-4.713,-4.7302,-4.7679,-4.8922,-5.0518,-5.2312,-5.311,-5.3518,-5.3551,-5.4818,-5.5552,-5.578,-5.7315,-5.7997,-5.807,-5.8877,-5.9098,-5.8988,-5.9795,-5.9979,-5.9795,-5.9795,-6.0162,-6.075,0.0,0.0,0.0,0.0,0.0,0.0,0.0,0.0,0.0,0.0,0.0,0.0,-1.7687,-1.7687,-1.8304,-1.9731,-2.1049,-2.2868,-2.5528,-2.5742,-2.5742,-2.5781,-2.5742,0.0,-2.5781,-2.5742,-2.5742,-2.5742,-2.5742,-2.6602,-2.8262,-2.7851,-2.8555,-3.0098,-2.9258,-2.8672,-2.8301,-2.8301,-2.8301,-2.8223,-2.7402,-2.6816,-2.6387,-2.6016,-2.5312,-2.4727,-2.6016,0.0,0.0,0.0,-3.2251,-3.3972,-3.4474,-3.4274,-3.3847,0.0,0.0,0.0,0.0,0.0,0.0,0.0,0.0,0.0,0.0,0.0,0.0,0.0,0.0,0.0,0.0,0.0,0.0,0.0,0.0,0.0,0.0,0.0,0.0,0.0,0.0,0.0,0.0,0.0,0.0,0.0,0.0,-4.7309,-4.7309,-4.6711,-4.6651,-4.7279,-4.6711,-4.7129,-4.8759,-5.0747,-5.2312,-5.3416,-5.3484,-5.3518,-5.3518,-5.4328,-5.5024,-5.578,-5.7315,-5.7997,-5.807,-5.8877,-5.8767,-5.8143,-5.8951,-5.8804,-5.8107,-5.8107,-5.8143,-5.84,0.0,0.0,0.0,0.0,0.0,0.0,0.0,0.0,0.0,0.0,0.0,0.0,0.0,-1.7582,-1.8094,-1.9524,-2.1659,-2.3782,-2.5528,-2.5742,-2.5742,-2.5742,-2.5742,-2.5742,-2.5742,-2.5742,-2.5742,-2.5742,-2.5742,-2.6328,-2.748,-2.7598,-2.8281,-2.9355,-2.9062,-2.8828,-2.8672,-2.8398,-2.8301,-2.8242,-2.7656,-2.6855,-2.5996,-2.6113,-2.5605,0.0,0.0,0.0,0.0,0.0,0.0,-3.2845,-3.3433,-3.352,-3.3294,-3.2918,-3.2657,0.0,0.0,0.0,0.0,0.0,0.0,0.0,0.0,0.0,0.0,0.0,0.0,0.0,0.0,0.0,0.0,0.0,0.0,0.0,0.0,0.0,0.0,0.0,0.0,0.0,0.0,0.0,0.0,0.0,0.0,0.0,-4.7309,-4.6681,-4.6441,-4.6681,-4.6022,-4.66,-4.8446,-5.0286,-5.1453,-5.2063,-5.3044,-5.3247,-5.2739,-5.4023,-5.4757,-5.5024,-5.6059,-5.708,-5.8033,-5.8327,-5.8253,-5.8033,-5.8327,-5.8253,-5.7997,-5.7997,-5.8327,-5.8951,0.0,0.0,0.0,0.0,0.0,0.0,0.0,0.0,0.0,-1.7742,0.0,0.0,0.0,0.0,-1.8415,-2.0143,-2.1963,-2.38,-2.5528,-2.5742,-2.5742,-2.5742,-2.5742,-2.5742,-2.5742,-2.5742,-2.5742,-2.5742,-2.5742,-2.6172,-2.7031,-2.7305,-2.7969,-2.8906,-2.8769,-2.8789,-2.8906,-2.8613,0.0,-2.8223,-2.7519,-2.6816,-2.6152,0.0,0.0,0.0,0.0,0.0,0.0,0.0,0.0,-3.1752,-3.2773,-3.2943,-3.2641,-3.1888,-3.2089,-3.262,-3.3041,0.0,0.0,0.0,0.0,0.0,0.0,0.0,0.0,0.0,0.0,0.0,0.0,0.0,0.0,0.0,0.0,0.0,0.0,0.0,0.0,0.0,0.0,0.0,0.0,0.0,0.0,0.0,0.0,0.0,-4.6621,-4.5992,-4.5663,-4.5663,-4.6103,-4.6952,-4.8285,-5.0068,-5.1028,-5.1217,-5.2266,-5.2469,-5.1961,-5.2951,-5.3736,-5.4287,-5.4793,-5.581,-5.7266,-5.7498,-5.7631,-5.7679,-5.7904,-5.7997,-5.7997,-5.7997,-5.8327,-5.8951,0.0,0.0,0.0,0.0,0.0,0.0,0.0,0.0,-1.8063,-1.8063,0.0,0.0,0.0,0.0,0.0,-2.1505,-2.1659,-2.2885,-2.5528,-2.5742,-2.5742,-2.5742,-2.5742,-2.5742,-2.5742,-2.5742,-2.5742,-2.5742,-2.5742,-2.6152,-2.6973,-2.6992,-2.7656,-2.8848,-2.8457,-2.8496,-2.8887,-2.8906,-2.8672,-2.8184,0.0,-2.666,-2.6855,0.0,0.0,0.0,-2.5742,-2.6496,0.0,0.0,0.0,-3.0754,-3.2549,-3.2692,-3.2014,-3.0959,-3.1292,-3.1961,0.0,0.0,0.0,0.0,0.0,0.0,0.0,0.0,0.0,0.0,0.0,0.0,0.0,0.0,0.0,0.0,0.0,0.0,0.0,0.0,0.0,0.0,0.0,0.0,0.0,0.0,0.0,0.0,0.0,-4.5304,-4.5304,-4.4676,-4.4287,-4.4287,-4.6899,-4.8295,-4.8295,-5.0225,-5.1183,-5.115,-5.1183,-5.1217,-5.1183,-5.1217,-5.2004,-5.3428,-5.3428,-5.4266,-5.5688,-5.6527,-5.6861,-5.6964,-5.7679,-5.7997,-5.7997,-5.7997,-5.8033,-5.8253,0.0,0.0,0.0,0.0,0.0,0.0,-1.8771,-1.8557,-1.837,0.0,0.0,0.0,-1.837,-1.837,-1.9297,-2.1778,-2.1952,-2.308,-2.5547,-2.5742,-2.5742,-2.5742,-2.5742,-2.5742,-2.5742,-2.5742,-2.5742,-2.5742,-2.5742,-2.5859,-2.6094,-2.6406,-2.6914,-2.7559,-2.7754,-2.791,-2.8027,-2.834,0.0,-2.8242,-2.7578,-2.7012,0.0,0.0,0.0,0.0,0.0,-2.633,0.0,0.0,-2.9474,-3.0422,0.0,-3.2692,-3.2164,-3.1863,-3.1883,-3.1961,-3.1961,0.0,0.0,0.0,0.0,0.0,0.0,0.0,0.0,0.0,0.0,0.0,0.0,0.0,0.0,0.0,0.0,0.0,0.0,0.0,0.0,0.0,0.0,0.0,0.0,0.0,0.0,0.0,-4.5394,-4.5304,-4.5304,-4.5342,-4.5125,-4.4665,-4.6653,-4.776,-4.776,-4.9555,-5.0135,-4.9627,-5.071,-5.0913,-5.0405,-5.098,-5.1447,-5.1872,-5.1872,-5.2375,-5.341,-5.5248,-5.6367,-5.6912,-5.7116,-5.7498,-5.7997,-5.7997,-5.8364,-5.9024,0.0,0.0,0.0,0.0,0.0,-1.8878,-1.8918,-1.8891,-1.8811,0.0,0.0,0.0,-1.8691,-1.8784,-1.9556,-2.1321,-2.2014,-2.3186,-2.5233,-2.5698,-2.6016,-2.6016,-2.584,-2.5742,-2.5742,-2.5742,-2.5742,-2.5742,-2.5742,-2.5742,-2.5742,-2.5996,-2.6348,-2.6758,-2.7012,-2.7226,-2.7402,-2.7656,0.0,0.0,-2.7559,0.0,0.0,-2.6699,-2.666,0.0,0.0,0.0,-2.7432,-2.8301,-2.9371,0.0,0.0,0.0,0.0,-3.1662,-3.1755,-3.1985,-3.1747,-3.2043,-3.2654,0.0,0.0,0.0,-3.5305,-3.5451,0.0,0.0,0.0,0.0,0.0,0.0,0.0,0.0,0.0,0.0,0.0,0.0,0.0,0.0,0.0,0.0,0.0,0.0,0.0,-4.4885,-4.4616,-4.4347,-4.4077,-4.4297,-4.4273,-4.3975,-4.5721,-4.6848,-4.7144,-4.848,-4.912,-4.9018,-4.9864,-5.0067,-4.9661,-5.0101,-5.0473,-5.0744,-5.0744,-5.115,-5.1959,-5.3625,-5.4922,-5.5984,-5.6259,-5.6632,-5.7029,-5.7029,-5.7536,-5.8368,0.0,0.0,-1.7382,-1.8823,-1.9239,-1.9332,-1.9105,-1.9265,-1.9332,0.0,-1.9292,-1.9359,-1.9105,-1.9279,-1.9745,-2.0559,-2.1973,-2.3313,-2.4664,-2.5812,-2.6465,-2.6465,-2.6094,-2.5859,-2.5801,-2.5801,-2.5781,-2.5742,-2.5742,-2.5742,-2.5742,-2.5742,-2.5937,-2.6309,-2.6309,-2.6523,-2.6875,0.0,0.0,-2.75,-2.7207,-2.7539,0.0,0.0,-2.7891,0.0,-2.7812,-2.7695,-2.7806,-2.8354,-2.9609,0.0,0.0,0.0,0.0,0.0,-3.124,-3.1703,-3.1202,-3.1119,-3.1716,0.0,0.0,0.0,-3.6182,-3.564,-3.5356,0.0,0.0,0.0,0.0,0.0,0.0,0.0,0.0,0.0,0.0,0.0,0.0,0.0,0.0,0.0,0.0,-4.4377,-4.3988,-4.3988,-4.3449,-4.2851,-4.2282,-4.2671,-4.2838,-4.2838,-4.4625,-4.5887,-4.6548,-4.7469,-4.824,-4.8883,-4.8951,-4.9018,-4.9018,-4.9018,-4.9357,-4.9965,-4.9965,-5.0405,-5.115,-5.186,-5.3092,-5.453,-5.5285,-5.5667,-5.5724,-5.5724,-5.6219,-5.6998,0.0,-1.5854,-1.7491,-1.9351,-1.9679,-1.9773,-1.9947,-1.9826,-1.9773,-1.9947,-2.0027,-2.004,-1.9987,-1.9826,-2.0144,-2.1097,-2.2371,-2.36,-2.4682,-2.6077,-2.6894,-2.6894,-2.6816,-2.6602,-2.6269,-2.6269,-2.6094,-2.5742,-2.5742,-2.5742,-2.5742,-2.5742,-2.5781,-2.5859,-2.5859,-2.5898,-2.5977,0.0,0.0,-2.6699,-2.7305,0.0,-2.7773,-2.7695,-2.7715,-2.7773,-2.7695,-2.7891,-2.8344,0.0,-3.0192,-3.0537,0.0,0.0,0.0,0.0,0.0,0.0,0.0,0.0,0.0,0.0,0.0,0.0,-3.4466,-3.499,-3.5739,0.0,0.0,0.0,0.0,0.0,0.0,0.0,0.0,0.0,0.0,0.0,0.0,0.0,0.0,0.0,0.0,-4.2342,-4.1953,-4.1953,-4.1833,-4.1713,-4.1564,-4.3012,-4.3854,-4.3854,-4.559,-4.6582,-4.675,-4.7477,-4.8003,-4.8139,-4.8714,-4.9018,-4.9018,-4.9018,-4.9086,-4.9221,-4.9221,-4.9627,-5.0371,-5.1116,-5.234,-5.3801,-5.4513,-5.5144,-5.5724,-5.5724,-5.6219,-5.695,-1.2885,-1.4555,-1.6453,-1.8282,-1.8684,-1.9076,-2.0079,-1.9485,-1.9292,-2.0305,-2.0575,-2.0561,-2.0267,-2.0107,-2.0064,-2.0413,-2.2336,-2.3695,-2.427,-2.6255,-2.7344,-2.7344,-2.6934,-2.6602,-2.6387,-2.6172,-2.5957,-2.5742,-2.5742,-2.5742,-2.5742,-2.5742,-2.5625,-2.541,-2.5644,-2.5605,0.0,0.0,-2.5996,-2.6445,-2.709,0.0,-2.7695,-2.7891,-2.7988,-2.7988,-2.7988,-2.7988,-2.8186,-2.9373,-2.9483,0.0,0.0,-3.1761,-3.1308,0.0,-3.1009,-3.0482,0.0,0.0,0.0,-3.1119,0.0,0.0,0.0,-3.4773,-3.5699,0.0,0.0,0.0,0.0,0.0,0.0,0.0,0.0,0.0,0.0,0.0,0.0,0.0,0.0,0.0,0.0,-4.1265,-4.0876,-4.0876,-4.0576,-4.0397,-4.0397,-4.1334,-4.2132,-4.2525,-4.4179,-4.5429,-4.6244,-4.6989,-4.7564,-4.7936,-4.8646,-4.9018,-4.9018,-4.9018,-4.9018,-4.9018,-4.9018,-4.9221,-4.9593,-5.0338,-5.1303,-5.2466,-5.3597,-5.4264,-5.4606,-5.4606,-5.5092,-5.5778,-1.1777,-1.3177,-1.4789,-1.6583,-1.7074,-1.776,-1.955,-1.8877,-1.8763,-2.042,-2.0922,-2.0935,-2.0454,-2.0307,-2.0107,-1.9813,-2.1949,-2.3503,-2.4006,-2.6045,-2.7447,-2.7676,-2.709,-2.6641,-2.6387,-2.6133,-2.5898,-2.5742,-2.5742,-2.5781,-2.5859,-2.5781,-2.5586,-2.5332,-2.5527,-2.5449,0.0,0.0,0.0,-2.6309,0.0,-2.7226,-2.7578,-2.8008,-2.8164,-2.8184,-2.8262,-2.8027,-2.7786,-2.851,0.0,-2.8423,-3.0147,-3.0349,0.0,0.0,0.0,0.0,0.0,0.0,0.0,0.0,0.0,-3.266,0.0,0.0,0.0,-3.5424,0.0,0.0,0.0,0.0,0.0,0.0,0.0,0.0,0.0,0.0,0.0,0.0,0.0,0.0,0.0,-4.0277,-3.9828,-3.9828,-3.932,-3.908,-3.92,-3.9412,-3.9969,-4.0896,-4.2223,-4.3635,-4.5235,-4.6077,-4.6937,-4.7699,-4.8578,-4.9018,-4.9018,-4.9018,-4.9018,-4.9018,-4.9018,-4.9018,-4.9052,-4.9796,-5.0541,-5.1352,-5.2739,-5.3382,-5.3518,-5.3518,-5.389,-5.4397,-1.1831,-1.232,-1.3111,-1.4892,-1.5473,-1.6188,-1.8167,-1.8226,-1.8763,-2.042,-2.0922,-2.1082,-2.1015,-2.0548,-2.0521,-2.1243,0.0,0.0,-2.4805,0.0,-2.6443,-2.7656,-2.793,-2.7559,-2.6406,-2.6699,-2.6504,-2.5742,-2.5742,-2.5937,-2.6309,-2.5918,-2.5918,-2.6211,-2.5469,0.0,0.0,0.0,-2.541,0.0,-2.6699,-2.7051,0.0,-2.7578,-2.7734,-2.7793,-2.8164,-2.8027,-2.7786,0.0,-2.8279,-2.7861,0.0,-2.8786,-2.8436,0.0,0.0,0.0,0.0,0.0,0.0,0.0,-3.1008,0.0,0.0,0.0,-3.438,-3.5294,0.0,0.0,0.0,0.0,0.0,0.0,0.0,0.0,0.0,0.0,0.0,0.0,0.0,0.0,0.0,0.0,-3.7734,-3.7734,-3.7674,-3.7883,-3.8482,-3.8708,-3.9392,-4.0671,-4.1087,-4.1999,-4.3542,-4.4958,-4.6091,-4.6921,-4.8342,-4.9018,-4.9018,-4.9018,-4.9018,-4.9018,-4.9018,-4.9018,-4.9052,-4.9796,-5.0541,-5.1285,-5.2131,-5.2875,-5.3518,-5.3518,-5.3551,-5.3619,-1.0657,-1.1535,-1.238,-1.3414,-1.3554,-1.4534,-1.7781,-1.967,-2.076,-2.1229,-2.159,-2.1804,0.0,0.0,0.0,0.0,0.0,-2.2889,0.0,0.0,-2.6717,-2.8047,-2.7969,-2.7676,-2.7148,-2.6816,-2.6484,-2.6113,-2.6113,-2.6074,-2.6016,-2.6074,-2.5937,-2.5625,-2.5508,0.0,-2.5352,0.0,0.0,0.0,0.0,0.0,0.0,-2.7578,-2.7871,-2.7695,-2.7871,-2.7656,-2.7329,0.0,-2.6999,0.0,0.0,0.0,0.0,0.0,0.0,0.0,0.0,0.0,0.0,0.0,0.0,0.0,0.0,0.0,-3.4109,0.0,0.0,0.0,0.0,0.0,0.0,0.0,-3.6626,0.0,0.0,0.0,0.0,0.0,0.0,0.0,0.0,0.0,0.0,0.0,0.0,-3.6985,-3.7255,-3.7752,-3.8427,-3.9482,-4.0376,-4.1373,-4.252,-4.3977,-4.4886,-4.5273,-4.6684,-4.7671,-4.8161,-4.8161,-4.8161,-4.8161,-4.8161,-4.7868,-4.7406,-4.7701,-4.8488,-4.9571,-4.9866,-5.1456,-5.3518,-5.3518,-5.3518,-5.3518,-0.9822,-1.0651,-1.1446,-1.1752,-1.1663,-1.2803,-1.6897,-1.9628,-2.1306,-2.159,0.0,0.0,-2.2218,-2.1844,0.0,0.0,0.0,-2.3152,0.0,0.0,-2.6334,0.0,0.0,0.0,0.0,-2.6934,-2.6621,-2.6387,-2.6504,-2.6406,-2.6094,-2.6289,-2.6113,-2.5605,0.0,-2.5566,-2.5273,0.0,0.0,-2.5781,-2.6328,-2.6504,-2.6523,-2.7422,-2.7656,-2.748,-2.748,-2.7285,-2.6953,-2.6523,-2.6094,0.0,-2.6072,0.0,0.0,0.0,0.0,0.0,-2.9415,0.0,0.0,0.0,0.0,0.0,0.0,0.0,0.0,0.0,0.0,0.0,0.0,0.0,0.0,0.0,0.0,-3.5794,0.0,0.0,0.0,0.0,0.0,0.0,0.0,0.0,0.0,0.0,0.0,-3.6297,-3.6477,-3.6926,-3.7624,-3.8626,-3.9579,-4.0572,-4.1658,-4.2865,-4.3699,-4.4125,-4.5309,-4.6399,-4.7239,-4.7239,-4.7239,-4.7239,-4.7239,-4.6799,-4.6173,-4.6173,-4.7005,-4.8285,-4.8285,-5.0066,-5.2661,-5.2661,-5.2661,-5.2661,-0.9822,-0.9707,0.0,0.0,-0.9827,-1.1071,-1.4928,-1.7235,0.0,0.0,0.0,0.0,0.0,0.0,0.0,0.0,0.0,-2.2711,-2.4084,0.0,-2.4404,0.0,0.0,0.0,0.0,0.0,-2.7226,-2.6387,-2.6797,-2.6992,-2.6973,-2.6562,-2.6582,-2.6914,-2.6094,-2.5723,-2.5723,-2.5723,-2.5742,-2.582,-2.666,-2.748,-2.8086,0.0,-2.6699,-2.7031,-2.7031,0.0,0.0,-2.6523,-2.6094,0.0,0.0,0.0,0.0,0.0,0.0,0.0,0.0,0.0,0.0,-3.0055,0.0,0.0,0.0,0.0,-3.3673,0.0,0.0,0.0,0.0,0.0,-3.5729,-3.6387,-3.5938,0.0,0.0,0.0,0.0,0.0,0.0,0.0,0.0,0.0,0.0,0.0,0.0,0.0,-3.6447,-3.6507,-3.7075,-3.8402,-3.8462,-3.9182,-4.0758,-4.151,-4.2611,-4.4125,-4.4898,-4.5603,-4.6244,-4.6244,-4.6244,-4.6244,-4.6244,-4.6244,-4.6173,-4.6173,-4.7005,-4.8285,-4.8285,-4.9224,-5.0474,-5.0474,-5.0474,-5.0474,0.0,-0.9707,0.0,0.0,0.0,0.0,0.0,-1.6721,0.0,0.0,0.0,0.0,0.0,0.0,-2.4783,0.0,0.0,-2.4093,-2.4715,-2.4389,0.0,0.0,0.0,-2.6938,0.0,0.0,-2.7519,-2.7226,-2.709,-2.7012,-2.7012,-2.6582,-2.6465,-2.6582,0.0,-2.5742,0.0,0.0,0.0,0.0,0.0,-2.7109,-2.7851,0.0,0.0,-2.7012,-2.7012,-2.6641,0.0,-2.6016,-2.5664,-2.5234,-2.4941,-2.4355,-2.4197,-2.6321,-2.7066,0.0,0.0,0.0,-3.2164,-3.0708,0.0,0.0,0.0,0.0,0.0,0.0,0.0,0.0,0.0,0.0,-3.5579,-3.5789,-3.5639,-3.5709,0.0,-3.6413,-3.6693,0.0,0.0,0.0,0.0,0.0,0.0,0.0,0.0,0.0,0.0,-3.7422,-3.7861,-3.7734,-3.8601,-3.9313,-3.9849,-4.0546,-4.1115,-4.1689,-4.2794,-4.3809,-4.4611,-4.5081,-4.53,-4.53,-4.53,-4.493,-4.4251,-4.4251,-4.5047,-4.6352,-4.6352,-4.718,-4.8543,-4.9852,-5.0397,-5.0397,-0.9829,0.0,0.0,0.0,0.0,0.0,0.0,0.0,0.0,0.0,-2.2372,0.0,-2.6146,0.0,-2.6026,0.0,-2.5692,-2.516,-2.4479,-2.4756,0.0,-2.3771,-2.572,0.0,0.0,0.0,0.0,0.0,0.0,-2.7168,-2.7012,-2.6582,-2.6387,-2.6387,0.0,-2.5879,-2.5742,0.0,-2.5879,0.0,0.0,-2.6816,0.0,0.0,-2.75,-2.6973,0.0,-2.6211,-2.5742,-2.5742,-2.5547,-2.5273,-2.5117,-2.4687,-2.4615,-2.6519,-2.7446,-2.8271,-3.0121,-3.1662,0.0,-3.121,-3.1562,0.0,-3.0407,0.0,0.0,0.0,0.0,0.0,0.0,0.0,-3.5519,-3.5519,-3.5519,-3.5619,0.0,-3.6259,-3.66,0.0,0.0,0.0,0.0,0.0,0.0,0.0,0.0,0.0,0.0,0.0,-3.8249,-3.7404,-3.8721,-3.9409,-3.9409,-3.9828,-4.0277,-4.0756,-4.1624,-4.2606,-4.3639,-4.4098,-4.4282,-4.4282,-4.4282,-4.3927,-4.3329,-4.3329,-4.4107,-4.5304,-4.5304,-4.6112,-4.7452,-4.879,-4.9327,-4.9327,0.0,0.0,0.0,0.0,-0.9937,0.0,0.0,0.0,-1.5855,0.0,-2.1511,-2.3079,-2.6344,-2.6773,-2.7041,-2.7281,-2.7041,0.0,-2.3621,-2.5059,0.0,0.0,-2.5144,-2.6805,-2.5878,-2.7479,0.0,0.0,0.0,0.0,-2.707,-2.6602,-2.6406,-2.6426,-2.6367,0.0,-2.5762,-2.6191,-2.6113,-2.5781,-2.6112,-2.654,-2.691,-2.689,0.0,-2.6793,-2.6074,-2.5762,-2.5742,-2.5742,-2.5742,-2.5664,-2.5234,-2.5078,-2.5351,-2.6672,-2.7852,-2.903,-3.0286,-3.1379,-3.2114,-3.1562,0.0,0.0,0.0,0.0,-3.3357,0.0,0.0,0.0,0.0,0.0,0.0,-3.5519,-3.5519,-3.5718,-3.6446,-3.6538,0.0,0.0,0.0,0.0,0.0,0.0,0.0,0.0,0.0,0.0,0.0,0.0,-3.8284,-3.7404,-3.8721,-3.9409,-3.9409,-3.9409,-4.0038,-4.1294,-4.1354,-4.2043,-4.324,-4.3299,-4.3329,-4.3329,-4.3329,-4.3329,-4.3329,-4.3359,-4.4137,-4.5304,-4.5334,-4.6142,-4.7309,-4.7339,-4.7369,-4.7512,-0.9849,-0.9883,-0.9944,0.0,-0.9842,-0.9992,0.0,0.0,0.0,0.0,-2.1103,-2.4092,-2.5578,-2.7418,-2.8323,-2.7949,-2.7642,0.0,0.0,0.0,0.0,-2.3229,-2.4301,-2.5405,-2.6077,-2.692,0.0,-2.8594,0.0,0.0,-2.7949,-2.6875,-2.6562,-2.6836,0.0,0.0,-2.5742,-2.5859,-2.584,-2.5664,-2.5058,-2.5145,0.0,0.0,-2.5237,-2.5544,-2.6087,-2.6016,-2.5742,-2.5742,-2.5742,-2.5723,-2.5605,-2.5332,-2.5303,-2.6501,-2.7763,-2.9078,-3.0129,-3.1613,-3.2717,-3.2139,-3.2114,-3.2039,0.0,0.0,0.0,0.0,0.0,0.0,0.0,0.0,0.0,-3.5448,-3.5519,-3.5554,0.0,0.0,0.0,-3.6538,0.0,0.0,0.0,0.0,0.0,0.0,0.0,0.0,0.0,0.0,0.0,-3.7473,-3.8721,-3.9409,-3.9409,-3.9409,-3.9589,-3.9948,-4.0905,-4.1564,-4.1923,-4.288,-4.3329,-4.3329,-4.3329,-4.3329,-4.3359,-4.3868,-4.4556,-4.5334,-4.5873,-4.6561,-4.7369,-4.7848,-4.8027,-4.8175,-0.9937,0.0,0.0,-1.0256,0.0,0.0,-1.0941,0.0,0.0,-1.6268,-2.0119,0.0,-2.4755,-2.7298,-2.8657,-2.819,-2.7989,0.0,0.0,0.0,0.0,-2.3647,-2.4388,-2.5206,-2.6156,-2.6503,0.0,-2.8926,0.0,0.0,-2.7715,-2.6621,-2.623,-2.6426,0.0,-2.5742,-2.5742,-2.5742,-2.5742,-2.5547,-2.4454,0.0,0.0,-2.4097,-2.4152,-2.4536,-2.5657,-2.5937,-2.5742,-2.5742,-2.5742,-2.5742,-2.5742,-2.5566,-2.5503,-2.6486,-2.7688,-2.8901,-2.9809,-3.1369,-3.2616,-3.229,-3.2591,-3.2742,-3.1938,-3.219,-3.2584,0.0,0.0,0.0,0.0,0.0,0.0,0.0,-3.5519,0.0,0.0,0.0,0.0,0.0,0.0,0.0,0.0,0.0,0.0,0.0,0.0,0.0,0.0,0.0,0.0,-3.7983,-3.9204,-3.9709,-3.9409,-3.9709,-3.9978,-4.0277,-4.1025,-4.1683,-4.2252,-4.3,-4.3329,-4.3329,-4.3329,-4.3329,-4.3389,-4.4047,-4.4706,-4.5394,-4.6381,-4.698,-4.7369,-4.8027,-4.8297,-4.8327,0.0,0.0,0.0,0.0,0.0,0.0,0.0,-1.1965,0.0,-1.5855,0.0,-2.1526,-2.3633,-2.6449,-2.8129,-2.8163,0.0,-2.7575,-2.6213,-2.6533,-2.5825,-2.3701,-2.4943,-2.5874,-2.6384,-2.652,0.0,0.0,0.0,-2.6738,-2.709,-2.623,-2.582,-2.582,0.0,0.0,0.0,-2.5723,-2.5703,-2.5548,-2.4177,-2.3683,-2.3683,-2.3484,-2.3583,-2.3899,-2.502,-2.5528,-2.5742,-2.5742,-2.5742,-2.5742,-2.5742,-2.5703,-2.5779,-2.6349,-2.7457,-2.8567,-2.9269,-3.0701,-3.2022,-3.2131,-3.2943,-3.342,-3.2441,-3.2591,-3.2817,-3.2315,-3.214,-3.2201,0.0,0.0,0.0,0.0,0.0,0.0,0.0,0.0,0.0,0.0,0.0,0.0,0.0,0.0,0.0,0.0,0.0,0.0,0.0,0.0,0.0,-3.8611,-3.9688,-4.0038,-3.9559,0.0,-4.0636,-4.1384,-4.1384,-4.2013,-4.321,-4.3299,-4.3329,-4.3329,-4.3329,-4.3389,-4.3509,-4.4167,-4.4885,-4.5663,-4.683,-4.7309,-4.7369,-4.8113,-4.8501,-4.8651,0.0,0.0,0.0,0.0,0.0,-1.2033,-1.2637,-1.3159,-1.3748,-1.4515,-1.7193,0.0,-2.1967,-2.4209,-2.6363,-2.7994,-2.8136,0.0,0.0,0.0,0.0,-2.517,-2.587,-2.6588,-2.736,-2.7695,-2.8394,0.0,-2.8105,-2.748,-2.7539,-2.668,-2.6269,-2.625,0.0,0.0,-2.5215,-2.5586,0.0,-2.5119,-2.4067,-2.3683,-2.3583,-2.2466,-2.2767,-2.3683,-2.3998,-2.4707,-2.5742,-2.5742,-2.5742,-2.5742,-2.5742,-2.5488,-2.533,-2.572,-2.6451,-2.7415,-2.8478,-2.9759,-3.0979,-3.1938,-3.2365,-3.2466,-3.2265,-3.229,-3.234,-3.224,-3.2205,-3.2408,-3.3406,0.0,0.0,0.0,0.0,0.0,0.0,0.0,0.0,0.0,0.0,0.0,0.0,0.0,0.0,0.0,0.0,0.0,0.0,0.0,0.0,0.0,-3.9234,0.0,0.0,0.0,-4.0187,-4.1384,-4.1384,-4.1803,-4.2551,-4.309,-4.3329,-4.3329,-4.3329,-4.3629,-4.4197,-4.4855,-4.5843,-4.698,-4.7219,-4.7309,-4.7396,-4.8332,-4.9489,-5.0506,0.0,0.0,0.0,0.0,0.0,0.0,0.0,-1.3994,0.0,-1.3994,-1.6269,-1.8802,-2.0707,-2.3525,-2.6007,-2.7994,-2.8003,-2.7722,-2.7295,-2.672,-2.6066,-2.5317,-2.6142,0.0,-2.7523,-2.7695,-2.8431,-2.957,-2.8066,-2.7324,-2.7324,-2.668,-2.6269,-2.6035,0.0,-2.5391,0.0,0.0,0.0,-2.5353,-2.4343,-2.3462,-2.2685,-2.2993,-2.2941,-2.2868,-2.4196,-2.5118,-2.5742,-2.5742,-2.5742,-2.5703,-2.5469,-2.5234,-2.5059,-2.5059,-2.5563,-2.6351,-2.748,-2.8671,-2.9882,-3.1116,-3.1587,-3.1788,-3.1788,-3.2014,-3.2139,-3.1838,-3.1788,-3.2016,-3.2725,-3.2551,0.0,0.0,0.0,0.0,0.0,0.0,0.0,0.0,0.0,0.0,0.0,0.0,0.0,0.0,0.0,0.0,0.0,0.0,0.0,0.0,0.0,0.0,0.0,0.0,0.0,-4.1893,-4.1893,-4.2222,-4.288,-4.318,-4.3329,-4.3329,-4.3329,-4.3509,-4.3898,-4.4885,-4.6082,-4.7309,-4.7309,-4.7593,-4.8157,-4.8594,-5.0385,-5.2509,0.0,-1.1545,0.0,0.0,-1.2793,0.0,0.0,-1.4434,-1.4719,-1.4156,-1.5729,-1.7604,-1.962,-2.2522,-2.5051,-2.7201,-2.7495,-2.7522,-2.7108,-2.6587,-2.5905,-2.5024,-2.6099,-2.6832,-2.7263,-2.7713,-2.8413,0.0,-2.8027,-2.7187,-2.7012,-2.6582,-2.6113,0.0,0.0,0.0,0.0,0.0,-2.5352,-2.5528,-2.4808,-2.3752,-2.2702,-2.3723,-2.3533,-2.2767,-2.4609,-2.543,-2.5742,-2.5742,-2.5684,-2.5527,-2.5176,-2.4941,-2.4766,-2.4609,-2.4796,-2.5326,-2.6432,-2.7599,-2.8786,-2.9917,-3.0748,-3.1235,-3.1235,-3.1562,-3.1763,-3.1311,-3.1311,-3.1453,-3.163,-3.147,0.0,0.0,0.0,0.0,0.0,0.0,0.0,0.0,0.0,0.0,0.0,0.0,0.0,0.0,0.0,-4.0087,-4.0087,-3.9895,-3.9779,0.0,0.0,-4.0337,-4.0606,0.0,-4.1654,-4.2581,-4.2432,-4.2701,-4.3329,-4.3329,-4.3329,-4.3329,-4.3329,-4.3479,-4.3838,-4.5185,-4.6352,-4.7309,-4.7309,-4.7764,-4.8512,-4.8973,-5.1104,-5.376,0.0,0.0,0.0,0.0,0.0,0.0,0.0,-1.4278,-1.4787,-1.4855,-1.4798,-1.5668,-1.7915,-2.0269,-2.2375,-2.4362,-2.6518,-2.7348,-2.652,-2.6172,-2.5598,-2.4716,-2.5784,-2.674,-2.7263,-2.8234,-2.9083,0.0,0.0,-2.7773,0.0,-2.6582,-2.5937,0.0,0.0,0.0,0.0,-2.5352,-2.5469,-2.5176,-2.5412,-2.5469,-2.5235,-2.4134,-2.443,-2.5235,-2.4196,-2.4707,-2.5742,-2.5742,-2.5469,-2.5117,-2.5078,-2.4531,-2.4062,-2.4785,-2.4526,-2.4217,-2.5238,-2.6432,-2.7538,-2.8786,-2.9861,-3.0683,-3.0683,-3.0733,-3.0758,-3.0708,-3.106,-3.1235,-3.0788,-3.1095,-3.1939,0.0,0.0,0.0,0.0,0.0,0.0,0.0,0.0,0.0,0.0,-4.1136,0.0,0.0,-4.0087,-4.0087,-4.0087,-3.9895,-3.9779,-3.9779,0.0,-4.0098,-4.1265,-4.0756,-4.1414,-4.324,-4.2641,-4.2701,-4.3329,-4.3329,-4.3329,-4.3329,-4.3329,-4.4018,-4.5214,-4.6561,-4.7189,-4.7309,-4.7309,-4.7396,-4.7679,-4.9567,-5.1293,-5.2986,0.0,0.0,0.0,0.0,0.0,0.0,0.0,-1.4407,-1.4624,-1.4685,-1.459,-1.5355,-1.7714,-1.8672,-2.0441,-2.3978,-2.483,-2.564,-2.6268,-2.5945,-2.5291,-2.4422,-2.5641,-2.6617,-2.7082,-2.8306,-2.9157,0.0,0.0,0.0,0.0,0.0,0.0,0.0,0.0,-2.5293,-2.5215,-2.5293,-2.5391,-2.5508,-2.5957,-2.5446,-2.4529,-2.5088,-2.4932,-2.451,-2.4805,-2.5216,-2.5703,-2.543,-2.5215,-2.5059,-2.5059,-2.4648,-2.418,-2.4277,-2.4062,-2.3979,-2.4819,-2.5827,-2.7001,-2.815,-2.9267,-3.0131,-3.0131,-3.0382,-3.0532,-3.0181,-3.0281,-3.0457,-3.0583,-3.0507,-3.1241,0.0,0.0,0.0,0.0,0.0,0.0,0.0,0.0,0.0,0.0,0.0,0.0,0.0,0.0,-4.0019,-4.0001,-3.9833,-3.9913,-4.025,0.0,-4.0636,-4.1953,-4.1713,-4.2162,-4.3329,-4.306,-4.309,-4.3329,-4.3329,-4.3329,-4.3359,-4.3748,-4.4436,-4.5364,-4.6322,-4.695,-4.7309,-4.7309,-4.8072,-4.9247,-5.0087,-5.214,-5.4575,-1.3342,0.0,-1.3302,0.0,-1.3824,-1.3966,-1.4387,-1.4448,-1.4448,-1.4448,-1.4407,-1.5063,-1.6561,-1.7372,-1.9149,-2.2686,-2.3453,-2.4377,-2.6016,-2.5745,-2.509,-2.4115,-2.5116,0.0,-2.6104,-2.7077,-2.8055,-2.8859,-2.8153,0.0,0.0,0.0,0.0,0.0,-2.5215,-2.5371,-2.5527,-2.4929,-2.4832,-2.5156,-2.5443,-2.4871,-2.3917,-2.5427,-2.5194,-2.4207,-2.4987,-2.543,-2.5488,-2.5176,-2.5059,-2.5039,-2.4922,-2.459,-2.418,-2.3867,-2.3691,-2.3693,-2.414,-2.5378,-2.673,-2.7441,-2.8688,-2.9804,-2.9804,-3.0105,-3.0256,-2.988,-2.9804,-2.9905,-3.0306,-3.0181,-3.0881,-3.3457,0.0,0.0,0.0,0.0,0.0,0.0,-3.9787,-3.9734,-4.0458,0.0,0.0,0.0,0.0,0.0,-4.0236,-3.9973,0.0,0.0,0.0,0.0,0.0,-4.2372,-4.2671,-4.3329,-4.3329,-4.3329,-4.3329,-4.3329,-4.3329,-4.3389,-4.4227,-4.4855,-4.5364,-4.6262,-4.689,-4.7309,-4.7309,-4.8157,-4.9567,-5.0165,-5.2085,-5.4601,-1.3743,-1.3715,-1.3763,-1.4211,-1.4292,-1.4292,-1.4299,-1.4299,-1.4299,-1.4299,-1.417,-1.4136,-1.4285,-1.623,-1.8264,-2.0249,-2.2355,-2.4185,-2.5431,-2.5518,-2.4997,0.0,0.0,-2.4025,-2.4431,-2.4401,-2.5373,-2.7122,0.0,0.0,-2.6992,0.0,-2.5508,-2.5078,-2.5527,-2.5488,-2.5003,-2.411,-2.3683,-2.3683,-2.3701,-2.3701,-2.3845,-2.4737,-2.5078,-2.5019,-2.459,-2.4707,-2.5078,-2.5059,-2.5059,-2.5,-2.4551,-2.4141,-2.3789,-2.3789,-2.3477,-2.3144,-2.3144,-2.4808,-2.6483,-2.6483,-2.8131,-2.9804,-2.9804,-2.9804,-2.9804,-2.9804,-2.9804,-2.9804,-2.9804,-3.0256,-3.1009,-3.2444,0.0,0.0,0.0,0.0,0.0,0.0,-3.8611,-3.8653,-3.8822,0.0,0.0,0.0,0.0,0.0,0.0,0.0,0.0,-4.0591,-4.0444,0.0,-4.2419,-4.2372,-4.2671,-4.3329,-4.3329,-4.3329,-4.3329,-4.3329,-4.3329,-4.3389,-4.4706,-4.5274,-4.5394,-4.6741,-4.7309,-4.7309,-4.7309,-4.7309,-4.7624,-4.9615,-5.0922,-5.194,-1.4129,-1.4116,-1.4129,-1.4278,-1.4299,-1.4299,-1.4299,-1.4299,-1.4265,-1.4156,-1.4102,-1.4048,-1.3994,-1.4622,-1.5709,0.0,-1.9801,-2.1563,0.0,-2.4363,-2.4569,-2.3808,-2.3581,-2.3804,-2.4431,-2.4416,-2.5485,-2.7535,0.0,0.0,0.0,-2.6309,-2.5957,-2.5527,-2.5684,-2.5139,-2.411,-2.3845,-2.3185,-2.2366,-2.2366,-2.2868,-2.3746,-2.3639,-2.4278,-2.5,-2.457,-2.4687,-2.5059,-2.5059,-2.5273,-2.5449,-2.5,-2.457,-2.416,-2.3867,-2.3691,-2.3516,-2.3223,-2.437,-2.5958,-2.6808,-2.8337,-2.9764,-3.0273,-3.0055,-2.9804,-2.9804,-2.9804,-2.9804,-2.9804,-2.993,-3.042,-3.1489,-3.2919,0.0,0.0,0.0,0.0,0.0,-3.8611,-3.9027,0.0,-3.9907,0.0,0.0,0.0,0.0,0.0,0.0,0.0,0.0,-4.1535,0.0,-4.303,-4.303,-4.312,-4.3329,-4.3329,-4.3329,-4.3329,-4.3329,-4.3569,-4.4047,-4.4915,-4.5574,-4.6052,-4.695,-4.7309,-4.7309,-4.7309,-4.7679,-4.8512,-4.9852,-5.1597,-5.3541,-1.4306,-1.4299,-1.4299,-1.4299,-1.4299,-1.4278,-1.4224,-1.4211,-1.4156,-1.4007,-1.3939,-1.3865,-1.377,-1.3654,0.0,-1.6668,-1.8532,-2.0285,-2.2105,-2.368,-2.4382,-2.3794,-2.3487,-2.3297,-2.3536,0.0,0.0,-2.6876,-2.7118,-2.6993,-2.6621,-2.6621,-2.6087,-2.5149,-2.5149,-2.4343,-2.2868,-2.2366,-2.1659,-2.0947,-2.0947,-2.1456,-2.2214,-2.208,-2.2967,-2.3975,-2.348,-2.3832,-2.4609,-2.4766,-2.5117,-2.543,-2.5156,-2.4883,-2.457,-2.416,-2.4023,-2.3965,-2.3691,-2.4593,-2.5841,-2.6628,-2.7865,-2.9005,-2.9176,-2.9003,-2.8851,-2.9077,-2.9184,-2.9287,-2.9702,-2.9804,-3.0139,-3.1044,-3.2345,-3.3688,-3.4864,0.0,0.0,0.0,0.0,0.0,0.0,-4.0333,-4.0645,0.0,0.0,0.0,0.0,0.0,0.0,-4.14,-4.2013,0.0,-4.3329,-4.3329,-4.3329,-4.3329,-4.3599,-4.3569,-4.3359,-4.3838,-4.4167,-4.4377,-4.5274,-4.5933,-4.6381,-4.704,-4.7309,-4.7309,-4.7309,-4.7679,-4.8377,-4.9852,-5.1403,-5.3039,-1.4306,-1.4299,0.0,0.0,-1.4292,0.0,-1.4095,-1.4061,-1.4,-1.3844,-1.3709,-1.3627,-1.3614,-1.3349,-1.4193,-1.6433,0.0,0.0,0.0,-2.354,-2.4342,-2.3794,-2.3447,-2.2859,-2.2004,-2.1964,-2.3021,-2.5271,-2.7253,-2.7824,-2.7109,-2.6929,-2.5945,-2.4296,-2.414,-2.3199,-2.144,-2.0143,-1.9524,-1.942,-1.942,-1.9524,-1.9656,-2.0393,-2.1388,-2.2344,-2.1717,-2.2528,-2.3887,-2.4277,-2.4707,-2.5078,-2.5098,-2.5117,-2.5019,-2.4551,-2.4414,-2.4414,-2.4414,-2.5148,-2.6076,-2.6166,-2.6928,-2.7676,-2.7316,-2.7182,-2.7363,-2.8009,-2.8155,-2.8474,-2.9624,-2.9804,-3.0062,-3.097,-3.1974,-3.3142,-3.4581,0.0,0.0,0.0,0.0,0.0,0.0,-4.0666,-4.1145,0.0,0.0,0.0,0.0,0.0,-4.0934,-4.149,-4.2102,-4.2731,-4.3329,-4.3329,-4.3329,-4.3329,-4.3988,-4.3988,-4.3449,-4.4706,-4.4975,-4.4526,-4.5783,-4.6352,-4.6441,-4.704,-4.7309,-4.7309,-4.7309,-4.7309,-4.7538,-4.9615,-5.0429,-5.0993,0.0,0.0,-1.4299,-1.4299,-1.4204,-1.4116,-1.4075,-1.3973,-1.3844,-1.3695,-1.3648,-1.3587,-1.3464,-1.3288,-1.3937,-1.5913,-1.7889,-1.9121,-1.9531,-2.2276,-2.3915,-2.3781,-2.3033,-2.2432,-2.1991,-2.1764,-2.2692,-2.4792,-2.6522,-2.7584,-2.7969,-2.6229,-2.5234,-2.4796,-2.3047,-2.1522,-2.0025,-1.9731,-1.902,-1.8094,-1.8094,-1.8708,-1.9686,-2.0552,-2.1764,-2.2853,-2.3089,-2.3615,-2.4277,-2.4375,-2.4707,-2.5137,-2.5469,-2.5586,-2.543,-2.4648,-2.4414,-2.4414,-2.4414,-2.4834,-2.5558,-2.6464,-2.7515,-2.8366,-2.8254,-2.7854,-2.7775,-2.8469,-2.862,-2.8826,-2.9699,-2.9804,-2.9856,-3.0062,-3.1536,-3.272,-3.3071,-3.4641,0.0,0.0,-3.8123,-3.923,-4.0756,-4.1205,-4.1534,0.0,0.0,0.0,0.0,-4.0919,-4.149,-4.2179,-4.2761,-4.318,-4.3329,-4.3329,-4.3329,-4.3329,-4.3988,-4.4227,-4.4107,-4.4915,-4.5484,-4.5873,-4.6172,-4.6621,-4.71,-4.7249,-4.7309,-4.7309,-4.7309,-4.7309,-4.7538,-4.9615,-5.0749,-5.1714,-1.4312,-1.4299,-1.4278,-1.4211,-1.4129,-1.4027,-1.3892,-1.3797,-1.3688,-1.3546,-1.3526,-1.3492,-1.341,-1.3261,-1.3908,-1.5789,-1.7794,-1.9172,-1.9984,-2.2397,-2.3768,-2.3768,-2.2899,-2.2285,-2.1991,-2.1697,-2.2341,-2.3638,-2.5915,-2.6569,-2.5991,-2.5554,-2.4403,-2.28,-2.1554,-2.0178,-1.8708,-1.8565,-1.8095,-1.7368,-1.7235,-1.7764,-1.8568,-1.9629,-2.0868,-2.2223,-2.2982,-2.3626,-2.416,-2.4355,-2.457,-2.4844,-2.5293,-2.5566,-2.5644,-2.5156,-2.5019,-2.5019,-2.5019,-2.5195,-2.5563,-2.6209,-2.6848,-2.7231,-2.702,-2.6767,-2.67,-2.7453,-2.8048,-2.8654,-2.9569,-2.999,-3.0181,-3.0181,-3.1527,-3.2593,-3.2593,-3.4506,0.0,-3.7704,-3.8721,-3.9978,-4.1654,-4.2102,-4.2312,-4.2342,-4.1414,0.0,-4.1294,-4.1354,-4.1534,-4.1893,-4.2851,-4.3329,-4.3329,-4.3329,-4.3329,-4.3329,-4.4317,-4.4616,-4.4347,-4.5633,-4.6262,-4.6352,-4.6651,-4.698,-4.7309,-4.7309,-4.7309,-4.7309,-4.7309,-4.7309,-4.7538,-4.9615,-5.0653,-5.1411,-1.4312,-1.4278,-1.4224,-1.4095,-1.4034,-1.3919,-1.3668,-1.3607,-1.3546,-1.3417,-1.3403,-1.3403,-1.3403,-1.3261,-1.3908,-1.5789,-1.7794,-1.958,-2.1464,-2.3049,-2.3768,-2.3768,-2.2859,-2.2231,-2.1991,-2.1617,-2.1769,-2.2483,-2.4794,-2.5121,-2.3402,-2.4416,-2.3258,-2.0332,-1.997,-1.9069,-1.7569,-1.7275,-1.7154,-1.7128,-1.682,-1.6988,-1.7626,-1.8637,-2.0098,-2.1542,-2.2631,-2.3428,-2.4043,-2.4394,-2.4512,-2.459,-2.5039,-2.543,-2.5742,-2.5742,-2.5742,-2.5742,-2.5742,-2.5742,-2.5742,-2.5742,-2.5742,-2.5644,-2.5254,-2.5176,-2.5417,-2.6041,-2.7171,-2.8355,-2.9423,-3.0171,-3.0708,-3.0633,-3.1792,-3.2731,-3.2731,0.0,-3.7105,-3.8392,-3.9738,-4.1025,-4.2252,-4.294,-4.312,-4.2551,-4.1893,-4.1773,-4.2342,-4.1833,-4.1534,-4.1534,-4.2701,-4.3329,-4.3329,-4.3329,-4.3329,-4.3359,-4.4676,-4.5005,-4.4526,-4.6441,-4.701,-4.6501,-4.707,-4.7309,-4.7309,-4.7309,-4.7309,-4.7309,-4.7309,-4.7309,-4.7538,-4.9487,-5.0229,-5.0826,-1.4306,-1.4197,-1.4102,-1.4075,-1.3865,-1.3682,-1.3634,-1.3519,-1.3424,-1.3403,-1.3403,-1.3403,-1.3403,-1.3261,-1.3908,-1.5789,-1.7794,-1.958,-2.1464,-2.3049,-2.3768,-2.3768,-2.2672,-2.2031,-2.1991,-2.1216,-2.1354,-2.2483,-2.2711,-2.2972,-2.3402,-2.21,-2.1002,-2.0212,-1.8696,-1.7833,-1.7569,-1.7275,-1.7154,-1.7128,-1.682,-1.758,-1.9033,-2.0357,-2.1841,-2.344,-2.4335,-2.4828,-2.4883,-2.4941,-2.4961,-2.5039,-2.5488,-2.5684,-2.5742,-2.5742,-2.5742,-2.5742,-2.5742,-2.5742,-2.5742,-2.5742,-2.5742,-2.5723,-2.5644,-2.5625,-2.5777,-2.6517,-2.758,-2.8697,-2.947,-3.0548,-3.1135,-3.0683,-3.2137,-3.3294,-3.3439,0.0,-3.7764,-3.911,-4.0427,-4.1534,-4.2282,-4.294,-4.3299,-4.318,-4.2581,-4.2252,-4.2342,-4.2252,-4.2222,-4.2222,-4.294,-4.3329,-4.3329,-4.3329,-4.3329,-4.3359,-4.4676,-4.5244,-4.5185,-4.6651,-4.7249,-4.716,-4.7249,-4.7309,-4.7309,-4.7309,-4.7309,-4.7309,-4.7309,-4.7309,-4.7452,-4.8594,-4.9428,-5.0348,-1.4306,-1.4177,-1.4048,-1.396,-1.377,-1.3573,-1.341,-1.3322,-1.3275,-1.3275,-1.3275,-1.3275,-1.3275,-1.3214,-1.3879,-1.5656,-1.6649,-1.8306,-2.1265,-2.296,-2.3768,-2.3768,-2.2619,-2.183,-2.1523,-2.0802,-2.0727,-2.13,-2.1598,-2.1481,-2.0743,-2.0674,-2.0023,-1.8816,-1.7952,-1.7582,-1.7555,-1.7101,-1.7007,-1.7114,-1.666,-1.7626,-1.9351,-2.0718,-2.2223,-2.3863,-2.5005,-2.5273,-2.5059,-2.5059,-2.5059,-2.5098,-2.5312,-2.5547,-2.5781,-2.6016,-2.5918,-2.5742,-2.5742,-2.5742,-2.5742,-2.5742,-2.5742,-2.5742,-2.5742,-2.5742,-2.5761,-2.6119,-2.7708,-2.9083,-2.9481,-3.081,-3.1902,-3.2272,-3.2894,0.0,0.0,-3.6629,-3.8452,-3.9798,-4.1115,-4.2162,-4.2821,-4.315,-4.3329,-4.3329,-4.2731,-4.2521,-4.288,-4.2551,-4.2521,-4.288,-4.318,-4.3329,-4.3329,-4.3329,-4.3509,-4.3868,-4.4825,-4.5484,-4.5873,-4.686,-4.7309,-4.7309,-4.7309,-4.7309,-4.7309,-4.7309,-4.7309,-4.7309,-4.7309,-4.7519,-4.7992,-4.8982,-4.9718,-5.0652,-1.4306,-1.415,-1.398,-1.3865,-1.3661,-1.3444,-1.3207,-1.3146,-1.3125,-1.3125,-1.3125,-1.3125,-1.3125,-1.3091,-1.3611,-1.4923,-1.5441,-1.7093,-2.0195,-2.21,-2.3222,-2.3674,-2.2592,-2.171,-2.1122,-2.0535,-2.0227,-2.0227,-2.0699,-2.009,-1.849,-1.9576,-1.9234,-1.7582,-1.7582,-1.7582,-1.7555,-1.7034,-1.6941,-1.7203,-1.6977,-1.7951,-1.9837,-2.1213,-2.2733,-2.4295,-2.5333,-2.5508,-2.5215,-2.5215,-2.5215,-2.5234,-2.5352,-2.5605,-2.5977,-2.6406,-2.6289,-2.6035,-2.6035,-2.5879,-2.5664,-2.5448,-2.5293,-2.5254,-2.535,-2.5369,-2.5506,-2.5917,-2.7989,-2.9754,-2.9754,-3.1352,-3.2794,-3.3528,0.0,0.0,0.0,-3.768,-3.9349,-4.0696,-4.1893,-4.2791,-4.3299,-4.3329,-4.3329,-4.3329,-4.288,-4.2791,-4.3299,-4.2851,-4.2821,-4.3329,-4.3329,-4.3329,-4.3329,-4.3329,-4.3658,-4.4317,-4.4975,-4.5663,-4.6352,-4.701,-4.7309,-4.7309,-4.7309,-4.7309,-4.7309,-4.7309,-4.7309,-4.7309,-4.7489,-4.7848,-4.8385,-4.9316,-5.0119,-5.0938,-1.4306,-1.4061,-1.3858,-1.3844,-1.3492,-1.32,-1.3173,-1.3064,-1.2976,-1.2976,-1.2976,-1.2976,-1.2976,-1.2847,-1.2752,-1.2889,-1.4444,-1.6178,-1.8239,-1.987,-2.1475,-2.3213,-2.2485,-2.171,-2.1122,-2.0535,-2.0227,-2.0227,-1.9488,-1.8897,-1.849,-1.8306,-1.801,-1.7582,-1.7582,-1.7582,-1.7555,-1.7248,-1.7128,-1.7319,-1.8166,-1.9496,-2.1197,-2.2602,-2.4156,-2.5528,-2.5645,-2.5723,-2.5684,-2.5684,-2.5684,-2.5762,-2.6172,-2.6309,-2.6426,-2.6836,-2.6953,-2.6914,-2.6914,-2.6348,-2.5527,-2.4656,-2.4154,-2.399,-2.4354,-2.4427,-2.4859,-2.6512,-2.8958,-3.0785,-3.0785,-3.2452,-3.3596,-3.3265,0.0,0.0,-3.6253,-3.8626,-4.0726,-4.2043,-4.2821,-4.3269,-4.3329,-4.3329,-4.3329,-4.3329,-4.3299,-4.3269,-4.3329,-4.3299,-4.3269,-4.3329,-4.3329,-4.3329,-4.3329,-4.3329,-4.3658,-4.4317,-4.4975,-4.5663,-4.6352,-4.701,-4.7309,-4.7309,-4.7309,-4.7309,-4.7309,-4.7309,-4.7309,-4.7369,-4.7967,-4.8237,-4.8356,-4.9044,-4.9674,-5.0426,-1.4333,-1.4068,-1.3838,-1.3838,-1.3546,-1.3254,-1.3071,-1.2996,-1.2929,-1.2827,-1.282,-1.282,-1.282,-1.2766,-1.2691,-1.2596,-1.3245,-1.4286,-1.599,-1.7729,-1.9826,-2.239,-2.1991,-2.1523,-2.1122,-2.0535,-2.0227,-2.0227,-1.9533,-1.9052,-1.8758,-1.8464,-1.8263,-1.813,-1.7756,-1.7689,-1.7836,-1.7355,-1.775,-1.8714,-1.8888,-2.0536,-2.2874,-2.3637,-2.4852,-2.6133,-2.6133,-2.6133,-2.6094,-2.582,-2.5742,-2.582,-2.625,-2.6387,-2.6523,-2.7207,-2.7422,-2.748,-2.7734,-2.7187,-2.6241,-2.4911,-2.453,-2.4458,-2.4602,-2.4639,-2.5106,-2.6666,-2.9042,-3.0897,-3.0897,-3.2835,-3.4591,-3.5037,0.0,-3.6035,-3.8093,-3.9275,-4.0499,-4.2175,-4.294,-4.3329,-4.3329,-4.3329,-4.3329,-4.3329,-4.3329,-4.3329,-4.3329,-4.3329,-4.3329,-4.3329,-4.3329,-4.3329,-4.3329,-4.3329,-4.3868,-4.4915,-4.5185,-4.5873,-4.695,-4.7189,-4.7309,-4.7309,-4.7309,-4.7309,-4.7309,-4.7309,-4.7309,-4.7369,-4.8027,-4.8536,-4.8985,-4.9643,-5.0541,-5.1626,-1.3918,-1.4007,-1.3777,-1.3777,-1.3526,-1.3261,-1.3057,-1.2949,-1.2854,-1.2745,-1.2684,-1.2657,-1.2657,-1.2657,-1.2617,-1.2508,-1.2461,-1.3072,-1.4859,-1.6923,-1.9322,-2.1885,-2.171,-2.1416,-2.1122,-2.0535,-2.0227,-2.0227,-1.9559,-1.9118,-1.8918,-1.8624,-1.8437,-1.833,-1.7916,-1.7796,-1.7876,-1.7462,-1.8268,-1.9851,-1.9928,-2.1677,-2.418,-2.4748,-2.5623,-2.6582,-2.6582,-2.6504,-2.6348,-2.6055,-2.5859,-2.584,-2.6406,-2.6777,-2.709,-2.7695,-2.7871,-2.793,-2.8223,-2.7871,-2.7052,-2.5404,-2.4631,-2.4263,-2.4912,-2.472,-2.4984,-2.6949,-2.9484,-3.139,-3.1547,-3.36,-3.5502,-3.6173,-3.6035,-3.6775,-3.9363,-4.0048,-4.104,-4.3071,-4.3479,-4.3629,-4.3629,-4.3449,-4.3329,-4.3329,-4.3329,-4.3329,-4.3329,-4.3329,-4.3329,-4.3329,-4.3329,-4.3329,-4.3329,-4.3539,-4.4197,-4.5304,-4.5514,-4.6202,-4.7309,-4.7309,-4.7309,-4.7309,-4.7309,-4.7309,-4.7309,-4.7309,-4.7429,-4.7668,-4.8327,-4.8985,-4.9643,-5.0301,-5.1266,-5.2579,-1.3054,-1.3858,-1.3627,-1.3627,-1.3376,-1.3173,-1.3173,-1.2922,-1.2732,-1.2732,-1.2596,-1.2501,-1.2501,-1.2501,-1.2501,-1.2501,-1.2372,-1.2964,-1.4843,-1.7631,-1.9966,-2.1846,-2.1697,-2.1403,-2.1109,-2.0535,-2.0227,-2.0227,-1.9359,-1.8931,-1.8918,-1.8624,-1.833,-1.805,-1.805,-1.7876,-1.7582,-1.7582,-1.8682,-2.0408,-2.1296,-2.3014,-2.5149,-2.6021,-2.666,-2.7031,-2.7031,-2.6758,-2.6406,-2.6387,-2.6094,-2.5898,-2.6758,-2.7598,-2.8281,-2.8281,-2.8281,-2.8281,-2.8281,-2.8281,-2.7844,-2.6092,-2.419,-2.3274,-2.5147,-2.4485,-2.439,-2.7649,-3.0432,-3.251,-3.3106,-3.4915,-3.6383,-3.6383,-3.6779,-3.7803,-3.9775,-4.0916,-4.2524,-4.5042,-4.4706,-4.4317,-4.4317,-4.3718,-4.3359,-4.3359,-4.3329,-4.3329,-4.3329,-4.3329,-4.3329,-4.3329,-4.3329,-4.3329,-4.3329,-4.3988,-4.4646,-4.5304,-4.5992,-4.6681,-4.7309,-4.7309,-4.7309,-4.7309,-4.7309,-4.7309,-4.7309,-4.7309,-4.7698,-4.8356,-4.9015,-4.9673,-5.0301,-5.096,-5.188,-5.29,-1.2722,-1.3521,-1.3627,-1.3627,-1.3464,-1.3295,-1.3186,-1.3098,-1.2963,-1.2759,-1.2691,-1.2623,-1.2515,-1.2501,-1.2501,-1.2501,-1.2372,-1.2871,-1.4483,-1.5108,-1.6778,-1.9817,-2.0734,-2.1109,-2.0815,-2.0428,-2.0134,-1.9933,-1.9466,-1.9239,-1.9225,-1.8731,-1.8557,-1.8637,-1.7996,-1.7796,-1.7889,-1.8702,-2.003,-2.1788,-2.3014,-2.471,-2.65,-2.7104,-2.7363,-2.748,-2.748,-2.7383,-2.7187,-2.6602,-2.6504,-2.668,-2.6934,-2.7402,-2.7793,-2.748,-2.7402,-2.7402,-2.7402,-2.7402,-2.7188,-2.6206,-2.5559,-2.5289,-2.5829,-2.5863,-2.6334,-2.8257,-3.1148,-3.3406,-3.3563,-3.5752,-3.7513,-3.7513,-3.7653,-3.8506,-4.0858,-4.1513,-4.2536,-4.4965,-4.5125,-4.5005,-4.5005,-4.4825,-4.4706,-4.4706,-4.4287,-4.4018,-4.4018,-4.3599,-4.3329,-4.3329,-4.3329,-4.3569,-4.4018,-4.4227,-4.4646,-4.5304,-4.5992,-4.6681,-4.7309,-4.7309,-4.7309,-4.7309,-4.7309,-4.7309,-4.7339,-4.7818,-4.8117,-4.8386,-4.9523,-5.0062,-5.0393,-5.182,-5.2852,-5.3939,-1.2481,-1.3442,-1.3539,-1.3539,-1.3464,-1.337,-1.3275,-1.3166,-1.3024,-1.2847,-1.2712,-1.2603,-1.2515,-1.2501,-1.2501,-1.2501,-1.2318,-1.2473,-1.3197,-1.3669,-1.4729,-1.6786,-1.8254,-1.9549,-2.0681,-2.0388,-2.0094,-1.98,-1.9506,-1.9372,-1.9359,-1.8878,-1.8691,-1.8731,-1.8063,-1.7876,-1.8036,-1.9295,-2.1024,-2.2845,-2.405,-2.5806,-2.7539,-2.7637,-2.7773,-2.791,-2.791,-2.7812,-2.7559,-2.6875,-2.6699,-2.6797,-2.6973,-2.7187,-2.7363,-2.709,-2.7012,-2.7012,-2.7012,-2.7148,-2.7176,-2.6811,-2.6261,-2.6118,-2.6992,-2.6921,-2.716,-2.881,-3.1611,-3.3877,-3.4078,-3.6422,-3.8341,-3.8341,-3.8341,-3.9277,-4.1764,-4.2067,-4.306,-4.5769,-4.5873,-4.5693,-4.5693,-4.5454,-4.5304,-4.5304,-4.4915,-4.4706,-4.4706,-4.4317,-4.4107,-4.4107,-4.3589,-4.349,-4.3985,-4.3714,-4.4291,-4.5693,-4.6142,-4.6681,-4.7309,-4.7309,-4.7309,-4.7309,-4.7309,-4.7309,-4.7369,-4.8027,-4.8446,-4.8775,-4.9823,-5.0637,-5.1394,-5.2202,-5.371,-5.5586,-1.2527,-1.3472,-1.3403,-1.3403,-1.3403,-1.3397,-1.3383,-1.3152,-1.2969,-1.2942,-1.2698,-1.2515,-1.2501,-1.2488,-1.2481,-1.2481,-1.221,-1.1918,-1.1619,-1.2835,-1.3526,-1.3478,-1.4997,-1.7352,-2.042,-2.013,-1.996,-1.98,-1.9506,-1.9372,-1.9359,-1.9038,-1.8758,-1.8517,-1.8196,-1.8063,-1.8198,-1.9861,-2.16,-2.3478,-2.4738,-2.6454,-2.8262,-2.7871,-2.7969,-2.8301,-2.8301,-2.8047,-2.7656,-2.7226,-2.6758,-2.6465,-2.6836,-2.6953,-2.6953,-2.6914,-2.6894,-2.6894,-2.6894,-2.7226,-2.7559,-2.7598,-2.6635,-2.6203,-2.8385,-2.7936,-2.7512,-2.9308,-3.1906,-3.4078,-3.4527,-3.6996,-3.8944,-3.8944,-3.9045,-3.9969,-4.2395,-4.2861,-4.4004,-4.6959,-4.677,-4.6411,-4.6411,-4.5843,-4.5484,-4.5287,-4.5341,-4.5311,-4.5198,-4.5251,-4.5304,-4.5108,-4.412,-4.3488,-4.3283,-4.281,-4.3754,-4.6152,-4.6211,-4.6625,-4.7309,-4.7309,-4.7309,-4.7309,-4.7309,-4.7339,-4.7429,-4.8087,-4.8745,-4.9404,-5.0094,-5.1364,-5.2745,-5.2238,-5.4293,-5.7378,-1.2557,-1.3405,-1.3403,-1.3403,-1.3403,-1.3363,-1.3241,-1.3166,-1.3044,-1.2807,-1.2718,-1.2637,-1.2515,-1.2406,-1.2338,-1.2338,-1.206,-1.1755,-1.1457,-1.1678,-1.2316,-1.3478,-1.4997,-1.6712,-1.8638,-1.8372,-1.8726,-1.98,-1.9506,-1.9372,-1.9359,-1.8824,-1.8677,-1.8811,-1.8277,-1.8183,-1.8604,-2.1156,-2.2666,-2.362,-2.6138,-2.7602,-2.8281,-2.8184,-2.8203,-2.8301,-2.8301,-2.8242,-2.8086,-2.7676,-2.7012,-2.6406,-2.6504,-2.6523,-2.6465,-2.6113,-2.6016,-2.6016,-2.6016,-2.6328,-2.6738,-2.707,-2.7195,-2.7554,-2.8622,-2.8959,-2.9196,-2.9961,-3.2733,-3.4997,-3.5109,-3.7546,-3.9521,-3.9521,-4.0361,-4.1603,-4.3121,-4.4152,-4.5425,-4.7106,-4.7189,-4.71,-4.71,-4.695,-4.6486,-4.5461,-4.5838,-4.5628,-4.4618,-4.5039,-4.4828,-4.3834,-4.4461,-4.4182,-4.2675,-4.3036,-4.3772,-4.485,-4.5343,-4.6197,-4.7309,-4.7309,-4.7309,-4.7309,-4.7309,-4.7608,-4.8117,-4.8775,-4.9434,-5.0124,-5.1117,-5.1652,-5.212,-5.3198,-5.4816,-5.7017,-1.2514,-1.3385,-1.3403,-1.3403,-1.3403,-1.3349,-1.3193,-1.3112,-1.299,-1.2759,-1.261,-1.2488,-1.2413,-1.2271,-1.2149,-1.2081,-1.1925,-1.1674,-1.1307,-1.1206,-1.1474,-1.217,-1.298,-1.453,-1.6866,-1.6501,-1.7486,-1.98,-1.9506,-1.9372,-1.9359,-1.8771,-1.8571,-1.8691,-1.825,-1.821,-1.8712,-2.1759,-2.3211,-2.3871,-2.6742,-2.7988,-2.7988,-2.7988,-2.7988,-2.7988,-2.7988,-2.7851,-2.7656,-2.7441,-2.6797,-2.6113,-2.6328,-2.625,-2.6035,-2.5801,-2.5742,-2.5781,-2.5996,-2.6367,-2.6836,-2.7461,-2.7949,-2.8437,-2.9082,-2.9394,-2.9746,-3.0391,-3.3135,-3.5288,-3.5288,-3.7713,-3.9697,-3.9697,-4.0743,-4.2084,-4.3313,-4.4627,-4.5869,-4.7106,-4.7309,-4.7019,-4.6432,-4.6344,-4.5869,-4.4535,-4.48,-4.4629,-4.3963,-4.4285,-4.4381,-4.4381,-4.4381,-4.3987,-4.3034,-4.2703,-4.2981,-4.3963,-4.4657,-4.5488,-4.6432,-4.7019,-4.7309,-4.7309,-4.7638,-4.7967,-4.8356,-4.9314,-5.0065,-5.0601,-5.1467,-5.2207,-5.2989,-5.3705,-5.5314,-5.76,-1.2307,-1.3372,-1.3397,-1.337,-1.3363,-1.3302,-1.3125,-1.2996,-1.2861,-1.2678,-1.2461,-1.2311,-1.2257,-1.2115,-1.1959,-1.1809,-1.1796,-1.1626,-1.1226,-1.1179,-1.1043,-1.0772,-1.0996,-1.2334,-1.5081,-1.5367,-1.6875,-1.98,-1.9506,-1.9372,-1.9359,-1.8811,-1.8571,-1.8557,-1.8303,-1.8413,-1.9043,-2.2057,-2.3645,-2.4192,-2.6962,-2.7871,-2.7559,-2.7637,-2.7617,-2.7559,-2.7637,-2.7344,-2.6914,-2.6914,-2.6387,-2.5801,-2.6172,-2.6035,-2.5742,-2.5742,-2.5801,-2.5918,-2.6289,-2.6758,-2.7305,-2.8086,-2.8613,-2.9062,-2.957,-2.9668,-2.9922,-3.082,-3.3317,-3.5445,-3.5535,-3.7905,-3.9848,-3.9848,-4.0997,-4.2252,-4.3313,-4.4748,-4.6166,-4.7193,-4.7309,-4.6814,-4.5508,-4.5389,-4.4748,-4.3313,-4.3409,-4.3504,-4.3504,-4.3693,-4.4349,-4.5389,-4.4535,-4.3975,-4.3504,-4.2641,-4.2641,-4.3504,-4.4209,-4.4989,-4.5779,-4.6814,-4.7309,-4.7339,-4.7997,-4.8297,-4.8386,-4.9734,-5.0482,-5.0917,-5.1693,-5.2748,-5.3865,-5.4336,-5.599,-5.8368,-1.1819,-1.3318,-1.3397,-1.3234,-1.3207,-1.3112,-1.2834,-1.2773,-1.2664,-1.2386,-1.242,-1.2379,-1.2121,-1.1952,-1.1803,-1.166,-1.1647,-1.1565,-1.1375,-1.124,-1.109,-1.0921,-1.2234,-1.3101,-1.3422,-1.5992,-1.8106,-1.98,-1.9506,-1.9372,-1.9359,-1.9025,-1.8865,-1.8865,-1.8824,-1.9334,-2.0317,-2.2384,-2.3776,-2.4807,-2.6531,-2.7148,-2.7148,-2.7519,-2.7422,-2.7148,-2.7519,-2.7148,-2.6465,-2.6465,-2.6152,-2.5742,-2.5801,-2.5781,-2.5742,-2.5742,-2.5996,-2.6309,-2.6367,-2.6973,-2.7695,-2.8164,-2.8613,-2.9121,-2.9922,-3.0117,-3.0371,-3.125,-3.3916,-3.605,-3.6476,-3.8694,-4.04,-4.04,-4.2034,-4.3313,-4.3504,-4.5598,-4.7106,-4.7309,-4.7309,-4.6814,-4.5508,-4.5389,-4.4442,-4.2084,-4.2834,-4.3504,-4.3504,-4.4535,-4.5207,-4.5389,-4.6255,-4.5689,-4.3504,-4.4442,-4.4442,-4.3504,-4.4755,-4.59,-4.7019,-4.7222,-4.7309,-4.7339,-4.7997,-4.8297,-4.8415,-5.0044,-5.0777,-5.0963,-5.2216,-5.2833,-5.3353,-5.5621,-5.7113,-5.8237,-0.5158,-0.9988,-1.3302,-1.3301,-1.3091,-1.2809,-1.2678,-1.2617,-1.2494,-1.2203,-1.2142,-1.2081,-1.1945,-1.1721,-1.1592,-1.1619,-1.1463,-1.1335,-1.1267,-1.1124,-1.0975,-1.0826,-1.1454,-1.2056,-1.2893,-1.4819,-1.6578,-1.799,-1.8984,-1.9199,-1.8878,-1.8744,-1.8597,-1.8437,-1.9181,-1.9845,-2.0467,-2.3045,-2.4386,-2.4977,-2.6378,-2.6875,-2.668,-2.6875,-2.6973,-2.7031,-2.7226,-2.6366,-2.5189,-2.4964,-2.4758,-2.4609,-2.4609,-2.529,-2.6094,-2.6094,-2.6406,-2.6836,-2.7324,-2.8321,-2.9262,-2.9341,-3.0778,-3.2053,-3.1851,-3.2746,-3.338,-3.2895,-3.5435,-3.785,-3.7947,-3.9649,-4.0978,-4.0978,-4.2929,-4.4498,-4.4498,-4.6732,-4.7971,-4.6931,-4.6783,-4.5883,-4.3531,-4.3313,-4.2834,-4.169,-4.2084,-4.2738,-4.3504,-4.4069,-4.4627,-4.5389,-4.5958,-4.5689,-4.4535,-4.5115,-4.5115,-4.4535,-4.5115,-4.5689,-4.6255,-4.7019,-4.7309,-4.7339,-4.7997,-4.8588,-4.9194,-5.0352,-5.1277,-5.1995,-5.266,-5.3301,-5.4008,-5.5656,-5.6714,-5.7569]}]]